[[{"header":{"parameterUnit":"m.s-1","parameterCategory":1,"la1":30.6,"la2":29.2853,"lo1":-89.7004,"lo2":-87.6739,"dy":0.0162,"dx":0.0183,"nx":112,"ny":82,"refTime":"2023-08-20T06:00:00:Z","depth":0,"parameterNumber":2,"parameterNumberName":"U-component_of_WINDS"},"data":[0.0,0.0,0.0,0.0,0.0,0.0,0.0,0.0,0.0,0.0,0.0,0.0,0.0,0.0,0.0,0.0,0.0,0.0,0.0,0.0,0.0,0.0,0.0,0.0,0.0,0.0,0.0,0.0,0.0,0.0,0.0,0.0,0.0,0.0,0.0,0.0,0.0,0.0,0.0,0.0,0.0,0.0,0.0,0.0,0.0,0.0,0.0,0.0,0.0,0.0,0.0,0.0,0.0,0.0,0.0,0.0,0.0,0.0,0.0,0.0,0.0,0.0,0.0,0.0,0.0,0.0,0.0,0.0,0.0,0.0,0.0,0.0,0.0,0.0,0.0,0.0,0.0,0.0,0.0,0.0,0.0,0.0,0.0,0.0,0.0,0.0,0.0,0.0,0.0,0.0,-2.7288,-2.7208,-2.6906,-2.6691,-2.6691,-2.6691,-2.7035,-2.7855,0.0,0.0,0.0,0.0,0.0,0.0,0.0,0.0,0.0,0.0,0.0,0.0,0.0,0.0,0.0,0.0,0.0,0.0,0.0,0.0,0.0,0.0,0.0,0.0,0.0,0.0,0.0,0.0,0.0,0.0,0.0,0.0,0.0,0.0,0.0,0.0,0.0,0.0,0.0,0.0,0.0,0.0,0.0,0.0,0.0,0.0,0.0,0.0,0.0,0.0,0.0,0.0,0.0,0.0,0.0,0.0,0.0,0.0,0.0,0.0,0.0,0.0,0.0,0.0,0.0,0.0,0.0,0.0,0.0,0.0,0.0,0.0,0.0,0.0,0.0,0.0,0.0,0.0,0.0,0.0,0.0,0.0,0.0,0.0,0.0,0.0,0.0,0.0,0.0,0.0,0.0,0.0,0.0,0.0,0.0,0.0,0.0,0.0,0.0,0.0,0.0,0.0,0.0,0.0,-2.7178,-2.6824,-2.6741,-2.6691,-2.6691,-2.6691,-2.7035,-2.7855,0.0,0.0,0.0,0.0,0.0,0.0,0.0,0.0,0.0,0.0,0.0,0.0,0.0,0.0,0.0,0.0,0.0,0.0,0.0,0.0,0.0,0.0,0.0,0.0,0.0,0.0,0.0,0.0,0.0,0.0,0.0,0.0,0.0,0.0,0.0,0.0,0.0,0.0,0.0,0.0,0.0,0.0,0.0,0.0,0.0,0.0,0.0,0.0,0.0,0.0,0.0,0.0,0.0,0.0,0.0,0.0,0.0,0.0,0.0,0.0,0.0,0.0,0.0,0.0,0.0,0.0,0.0,0.0,0.0,0.0,0.0,0.0,0.0,0.0,0.0,0.0,0.0,0.0,0.0,0.0,0.0,0.0,0.0,0.0,0.0,0.0,0.0,0.0,0.0,0.0,0.0,0.0,0.0,0.0,0.0,0.0,0.0,0.0,0.0,0.0,0.0,0.0,0.0,-2.6857,-2.6906,-2.6725,-2.6691,-2.6691,-2.6691,-2.6691,-2.6955,-2.753,-2.7783,0.0,0.0,0.0,0.0,0.0,0.0,0.0,0.0,0.0,0.0,0.0,0.0,0.0,0.0,0.0,0.0,0.0,0.0,0.0,0.0,0.0,0.0,0.0,0.0,0.0,0.0,0.0,0.0,0.0,0.0,0.0,0.0,0.0,0.0,0.0,0.0,0.0,0.0,0.0,0.0,0.0,0.0,0.0,0.0,0.0,0.0,0.0,0.0,0.0,0.0,0.0,0.0,0.0,0.0,0.0,0.0,0.0,0.0,0.0,0.0,0.0,0.0,0.0,0.0,0.0,0.0,0.0,0.0,0.0,0.0,0.0,0.0,0.0,0.0,0.0,0.0,0.0,0.0,0.0,0.0,0.0,0.0,0.0,0.0,0.0,0.0,0.0,0.0,0.0,0.0,0.0,0.0,0.0,0.0,0.0,0.0,0.0,0.0,0.0,0.0,0.0,0.0,-2.6641,-2.6657,-2.6556,-2.6641,-2.6691,-2.6691,-2.6691,-2.6873,-2.727,-2.7678,0.0,0.0,0.0,0.0,0.0,0.0,0.0,0.0,0.0,0.0,0.0,0.0,0.0,0.0,0.0,0.0,0.0,0.0,0.0,0.0,0.0,0.0,0.0,0.0,0.0,0.0,0.0,0.0,0.0,0.0,0.0,0.0,0.0,0.0,0.0,0.0,0.0,0.0,0.0,0.0,0.0,0.0,0.0,0.0,0.0,0.0,0.0,0.0,0.0,0.0,0.0,0.0,0.0,0.0,0.0,0.0,0.0,0.0,0.0,0.0,0.0,0.0,0.0,0.0,0.0,0.0,0.0,0.0,0.0,0.0,0.0,0.0,0.0,0.0,0.0,0.0,0.0,0.0,0.0,0.0,0.0,0.0,0.0,0.0,0.0,0.0,0.0,0.0,0.0,0.0,0.0,0.0,0.0,0.0,0.0,0.0,0.0,0.0,0.0,0.0,0.0,0.0,-2.6436,-2.6522,-2.6103,-2.6436,-2.6691,-2.6691,-2.6691,-2.6873,-2.727,-2.7678,0.0,0.0,0.0,0.0,0.0,0.0,0.0,0.0,0.0,0.0,0.0,0.0,0.0,0.0,0.0,0.0,0.0,0.0,0.0,0.0,0.0,0.0,0.0,0.0,0.0,0.0,0.0,0.0,0.0,0.0,0.0,0.0,0.0,0.0,0.0,0.0,0.0,0.0,0.0,0.0,0.0,0.0,0.0,0.0,0.0,0.0,0.0,0.0,0.0,0.0,0.0,0.0,0.0,0.0,0.0,0.0,0.0,0.0,0.0,0.0,0.0,0.0,0.0,0.0,0.0,0.0,0.0,0.0,0.0,0.0,0.0,0.0,0.0,0.0,0.0,0.0,0.0,0.0,0.0,0.0,0.0,0.0,0.0,0.0,0.0,0.0,0.0,0.0,0.0,0.0,0.0,0.0,0.0,0.0,0.0,0.0,0.0,0.0,0.0,0.0,0.0,0.0,-2.659,-2.6641,-2.6453,-2.659,-2.6691,-2.6691,-2.6691,-2.6758,-2.6923,0.0,0.0,0.0,0.0,0.0,0.0,0.0,0.0,0.0,0.0,0.0,0.0,0.0,0.0,0.0,0.0,0.0,0.0,0.0,0.0,0.0,0.0,0.0,0.0,0.0,0.0,0.0,0.0,0.0,0.0,0.0,0.0,0.0,0.0,0.0,0.0,0.0,0.0,0.0,0.0,0.0,0.0,0.0,0.0,0.0,0.0,0.0,0.0,0.0,0.0,0.0,0.0,0.0,0.0,0.0,0.0,0.0,0.0,0.0,0.0,0.0,0.0,0.0,0.0,0.0,0.0,0.0,0.0,0.0,0.0,0.0,0.0,0.0,0.0,0.0,0.0,0.0,0.0,0.0,0.0,0.0,0.0,0.0,0.0,0.0,0.0,0.0,0.0,0.0,0.0,0.0,0.0,0.0,0.0,0.0,0.0,0.0,0.0,0.0,0.0,0.0,0.0,-2.647,-2.647,-2.647,-2.647,-2.6607,-2.6691,-2.6691,-2.6691,-2.6691,-2.6691,0.0,0.0,0.0,0.0,0.0,0.0,0.0,0.0,0.0,0.0,0.0,0.0,0.0,0.0,0.0,0.0,0.0,0.0,0.0,0.0,0.0,0.0,0.0,0.0,0.0,0.0,0.0,0.0,0.0,0.0,0.0,0.0,0.0,0.0,0.0,0.0,0.0,0.0,0.0,0.0,0.0,0.0,0.0,0.0,0.0,0.0,0.0,0.0,0.0,0.0,0.0,0.0,0.0,0.0,0.0,0.0,0.0,0.0,0.0,0.0,0.0,0.0,0.0,0.0,0.0,0.0,0.0,0.0,0.0,0.0,0.0,0.0,0.0,0.0,0.0,0.0,0.0,0.0,0.0,0.0,0.0,0.0,0.0,0.0,0.0,0.0,0.0,0.0,0.0,0.0,0.0,0.0,0.0,0.0,0.0,0.0,0.0,0.0,0.0,0.0,0.0,0.0,-2.6013,-2.6013,-2.6013,-2.6013,-2.6419,-2.6691,-2.6691,-2.6691,-2.6691,0.0,0.0,0.0,0.0,0.0,0.0,0.0,0.0,0.0,0.0,0.0,0.0,0.0,0.0,0.0,0.0,0.0,0.0,0.0,0.0,0.0,0.0,0.0,0.0,0.0,0.0,0.0,0.0,0.0,0.0,0.0,0.0,0.0,0.0,0.0,0.0,0.0,0.0,0.0,0.0,0.0,0.0,0.0,0.0,0.0,0.0,0.0,0.0,0.0,0.0,0.0,0.0,0.0,0.0,0.0,0.0,0.0,0.0,0.0,0.0,0.0,0.0,0.0,0.0,0.0,0.0,0.0,0.0,0.0,0.0,0.0,0.0,0.0,0.0,0.0,0.0,0.0,0.0,0.0,0.0,0.0,0.0,0.0,0.0,0.0,0.0,0.0,0.0,0.0,0.0,0.0,0.0,0.0,0.0,0.0,0.0,0.0,0.0,0.0,0.0,0.0,0.0,0.0,-2.6487,-2.6487,-2.6487,-2.6487,-2.6624,-2.6691,-2.6691,-2.6691,-2.6691,-2.6691,0.0,0.0,0.0,0.0,0.0,0.0,0.0,0.0,0.0,0.0,0.0,0.0,0.0,0.0,0.0,0.0,0.0,0.0,0.0,0.0,0.0,0.0,0.0,0.0,0.0,0.0,0.0,0.0,0.0,0.0,0.0,0.0,0.0,0.0,0.0,0.0,0.0,0.0,0.0,0.0,0.0,0.0,0.0,0.0,0.0,0.0,0.0,0.0,0.0,0.0,0.0,0.0,0.0,0.0,0.0,0.0,0.0,0.0,0.0,0.0,0.0,0.0,0.0,0.0,0.0,0.0,0.0,0.0,0.0,0.0,0.0,0.0,0.0,0.0,0.0,0.0,0.0,0.0,0.0,0.0,0.0,0.0,0.0,0.0,0.0,0.0,0.0,0.0,0.0,0.0,0.0,0.0,0.0,0.0,0.0,0.0,0.0,0.0,0.0,0.0,0.0,0.0,-2.6674,-2.6539,-2.6487,-2.6674,-2.6691,-2.6691,-2.6691,-2.6691,-2.6691,-2.6691,0.0,0.0,0.0,0.0,0.0,0.0,0.0,0.0,0.0,0.0,0.0,0.0,0.0,0.0,0.0,0.0,0.0,0.0,0.0,0.0,0.0,0.0,0.0,0.0,0.0,0.0,0.0,0.0,0.0,0.0,0.0,0.0,0.0,0.0,0.0,0.0,0.0,0.0,0.0,0.0,0.0,0.0,0.0,0.0,0.0,0.0,0.0,0.0,0.0,0.0,0.0,0.0,0.0,0.0,0.0,0.0,0.0,0.0,0.0,0.0,0.0,0.0,0.0,0.0,0.0,0.0,0.0,0.0,0.0,0.0,0.0,0.0,0.0,0.0,0.0,0.0,0.0,0.0,0.0,0.0,0.0,0.0,0.0,0.0,0.0,0.0,0.0,0.0,0.0,0.0,0.0,0.0,0.0,0.0,0.0,0.0,0.0,0.0,0.0,0.0,0.0,0.0,-2.6641,-2.6332,-2.6227,-2.6657,-2.6691,-2.6691,-2.6691,-2.6691,-2.6691,-2.6691,0.0,0.0,0.0,0.0,0.0,0.0,0.0,0.0,0.0,0.0,0.0,0.0,0.0,0.0,0.0,0.0,0.0,0.0,0.0,0.0,0.0,0.0,0.0,0.0,0.0,0.0,0.0,0.0,0.0,0.0,0.0,0.0,0.0,0.0,0.0,0.0,0.0,0.0,0.0,0.0,0.0,0.0,0.0,0.0,0.0,0.0,0.0,0.0,0.0,0.0,0.0,0.0,0.0,0.0,0.0,0.0,0.0,0.0,0.0,0.0,-2.9541,-2.9939,0.0,0.0,0.0,0.0,0.0,0.0,0.0,0.0,0.0,0.0,0.0,0.0,0.0,0.0,0.0,0.0,0.0,0.0,0.0,0.0,0.0,0.0,0.0,0.0,0.0,0.0,0.0,0.0,0.0,0.0,0.0,0.0,0.0,0.0,0.0,0.0,0.0,0.0,0.0,0.0,-2.6691,-2.6607,-2.659,-2.6691,-2.6691,-2.6691,-2.6691,-2.6691,-2.6691,-2.6691,-2.6691,0.0,0.0,0.0,0.0,0.0,0.0,0.0,0.0,0.0,0.0,0.0,0.0,0.0,0.0,0.0,0.0,0.0,0.0,0.0,0.0,0.0,0.0,0.0,0.0,0.0,0.0,0.0,0.0,0.0,0.0,0.0,0.0,0.0,0.0,0.0,0.0,0.0,0.0,0.0,0.0,0.0,0.0,0.0,0.0,0.0,0.0,0.0,0.0,0.0,0.0,0.0,0.0,0.0,0.0,0.0,0.0,0.0,0.0,0.0,-2.9514,-2.9796,0.0,0.0,0.0,0.0,0.0,0.0,0.0,0.0,0.0,0.0,0.0,0.0,0.0,0.0,0.0,0.0,0.0,0.0,0.0,0.0,0.0,0.0,0.0,0.0,0.0,0.0,0.0,0.0,0.0,0.0,0.0,0.0,0.0,0.0,0.0,0.0,0.0,0.0,0.0,0.0,-2.6691,-2.7012,-2.7232,-2.7232,-2.7571,-2.7808,-2.7808,-2.7808,-2.7638,-2.7249,-2.7232,0.0,0.0,0.0,0.0,0.0,0.0,0.0,0.0,0.0,0.0,0.0,0.0,0.0,0.0,0.0,0.0,0.0,0.0,0.0,0.0,0.0,0.0,0.0,0.0,0.0,0.0,0.0,0.0,0.0,0.0,0.0,0.0,0.0,0.0,0.0,0.0,0.0,0.0,0.0,0.0,0.0,0.0,0.0,0.0,0.0,0.0,0.0,0.0,0.0,0.0,0.0,0.0,0.0,-2.8088,-2.8206,-2.8232,-2.8918,-2.9108,-2.8922,-2.9378,-2.9504,-2.9443,-2.9754,0.0,0.0,0.0,0.0,0.0,0.0,0.0,0.0,0.0,0.0,0.0,0.0,0.0,0.0,0.0,0.0,0.0,0.0,0.0,0.0,0.0,0.0,-2.825,-2.8293,-2.7791,-2.7363,-2.7634,0.0,0.0,0.0,0.0,0.0,0.0,0.0,0.0,0.0,0.0,0.0,-2.6894,-2.7554,-2.801,-2.801,-2.8602,-2.8993,-2.8993,-2.8993,-2.8722,-2.8043,-2.801,-2.7672,0.0,0.0,0.0,0.0,0.0,0.0,0.0,0.0,0.0,0.0,0.0,0.0,0.0,0.0,0.0,0.0,0.0,0.0,0.0,0.0,0.0,0.0,0.0,0.0,0.0,0.0,0.0,0.0,0.0,0.0,0.0,0.0,-2.7968,-2.7968,0.0,0.0,0.0,0.0,0.0,0.0,0.0,0.0,0.0,0.0,0.0,0.0,0.0,-2.7936,-2.7897,-2.7545,-2.7378,-2.7378,-2.7424,-2.7454,-2.747,-2.8188,-2.8522,-2.8496,-2.8915,0.0,-2.9412,-2.9464,0.0,0.0,0.0,0.0,0.0,0.0,0.0,0.0,0.0,0.0,0.0,0.0,0.0,0.0,0.0,0.0,0.0,0.0,0.0,0.0,0.0,0.0,-2.8293,-2.8034,-2.7619,-2.7225,-2.6923,-2.7411,-2.7797,-2.7457,-2.7692,-2.7837,0.0,0.0,0.0,0.0,0.0,0.0,-2.7655,-2.8349,-2.884,-2.884,-2.8942,-2.8993,-2.8993,-2.8993,-2.8959,-2.8857,-2.884,-2.8484,-2.7689,-2.7655,0.0,0.0,0.0,0.0,0.0,0.0,0.0,0.0,0.0,0.0,0.0,0.0,0.0,0.0,0.0,0.0,0.0,0.0,0.0,0.0,0.0,0.0,0.0,0.0,0.0,0.0,0.0,0.0,0.0,-2.8116,-2.7982,-2.8156,-2.8316,-2.8588,0.0,0.0,0.0,0.0,0.0,0.0,0.0,0.0,0.0,-2.756,-2.756,-2.7454,-2.7241,-2.7051,-2.7067,-2.7301,-2.753,-2.7736,-2.7946,-2.8489,-2.8737,-2.8749,-2.8929,-2.9067,-2.92,-2.9341,-2.9504,-2.967,0.0,0.0,0.0,0.0,-2.9829,-2.9796,-2.9607,-2.9532,-2.9532,-2.9532,0.0,0.0,0.0,0.0,0.0,0.0,0.0,-2.9513,-2.9414,-2.8895,-2.8329,-2.7982,-2.7589,-2.7194,-2.6791,-2.6988,-2.7241,-2.7303,-2.7619,-2.7855,-2.7663,-2.779,0.0,0.0,0.0,-2.8467,-2.8467,-2.9144,-2.9617,-2.9617,-2.9989,-3.0245,-3.0245,-3.0245,-3.0076,-2.9634,-2.9617,-2.9262,-2.8518,-2.8467,-2.8112,0.0,0.0,0.0,0.0,0.0,0.0,0.0,0.0,0.0,0.0,0.0,0.0,0.0,0.0,0.0,0.0,0.0,0.0,0.0,0.0,0.0,0.0,0.0,0.0,0.0,0.0,0.0,0.0,-2.8016,-2.795,-2.8519,-2.8304,-2.8546,0.0,0.0,0.0,0.0,0.0,0.0,-2.8187,-2.8187,-2.8049,-2.7732,-2.7732,-2.7635,-2.7436,-2.7436,-2.765,-2.8078,-2.8485,-2.881,-2.9047,-2.943,-2.961,-2.961,-2.961,-2.961,-2.9597,-2.9399,-2.9341,-2.9404,-2.9561,-2.9652,-2.9696,-2.9634,-2.9616,-2.9598,-2.9373,-2.9299,-2.9299,-2.9299,-2.9341,-2.9424,-2.9579,0.0,0.0,0.0,0.0,-2.9392,-2.932,-2.8932,-2.8446,-2.8102,-2.7964,-2.7779,-2.739,-2.7465,-2.7498,-2.72,-2.7552,-2.7872,-2.7872,-2.8255,0.0,-2.856,-2.897,-2.9281,-2.9281,-2.9922,-3.0378,-3.0378,-3.0869,-3.119,-3.119,-3.119,-3.097,-3.0429,-3.0378,-3.0057,-2.9314,-2.9281,-2.8907,-2.8111,0.0,0.0,0.0,0.0,0.0,0.0,0.0,0.0,0.0,0.0,0.0,0.0,0.0,0.0,0.0,0.0,0.0,0.0,0.0,0.0,0.0,0.0,0.0,0.0,0.0,0.0,0.0,0.0,0.0,-2.8932,-2.8057,0.0,0.0,0.0,0.0,-2.9417,-2.9161,-2.8947,-2.8947,-2.8947,-2.8929,-2.8927,-2.8911,-2.9091,-2.9451,-2.9451,-2.9681,-3.0153,-3.0557,-3.0762,-3.0789,-3.1117,-3.1286,-3.1286,-3.1286,-3.1286,-3.1158,-2.9634,-2.9178,-2.9402,-2.9423,-2.9542,-2.9678,-2.9493,-2.9423,-2.9382,-2.9112,-2.9028,-2.9028,-2.9028,-2.9181,-2.9402,-2.9404,-2.9561,0.0,0.0,-2.9412,-2.9341,-2.9078,-2.9005,-2.8863,-2.8458,-2.894,-2.9399,-2.9047,-2.9531,-2.9372,-2.7163,-2.73,-2.7809,-2.7809,0.0,-2.8978,-2.8978,-2.9585,-3.004,-3.004,-3.0683,-3.114,-3.114,-3.1173,-3.119,-3.119,-3.119,-3.1173,-3.114,-3.114,-3.0818,-3.0091,-3.004,-2.9702,-2.8959,-2.8197,0.0,0.0,0.0,0.0,0.0,0.0,0.0,0.0,0.0,0.0,0.0,0.0,0.0,0.0,0.0,0.0,0.0,0.0,0.0,0.0,0.0,0.0,0.0,0.0,0.0,0.0,0.0,0.0,-2.9611,-2.9141,0.0,-3.0331,-2.9641,-2.9334,-2.9858,-2.9337,-2.8993,-2.8993,-2.8993,-2.912,-2.9369,-2.9386,-2.959,-3.0043,-3.0043,-3.026,-3.0697,-3.0828,-3.1007,-3.1232,-3.1347,-3.1397,-3.1397,-3.1397,-3.1397,-3.136,-3.0779,-3.0612,-3.0688,-3.0688,-3.0727,-3.0787,-3.0704,-3.0688,-3.0664,-3.0576,-3.054,-3.054,-3.054,-3.0612,-3.0688,-3.0688,-3.0738,-3.0776,-3.0711,-3.0688,-3.0664,-3.0576,-3.054,-3.0436,-3.0084,-3.0234,-3.0318,-2.9956,-2.9849,-2.9662,-2.9119,-2.895,-2.8888,-2.8888,-2.9343,-2.9778,-3.0001,-3.0466,-3.0818,-3.0818,-3.1038,-3.119,-3.119,-3.119,-3.119,-3.119,-3.119,-3.119,-3.119,-3.119,-3.1072,-3.0818,-3.0818,-3.0463,-2.9719,-2.9431,-2.9059,0.0,0.0,0.0,0.0,0.0,0.0,0.0,0.0,0.0,0.0,0.0,0.0,0.0,0.0,0.0,0.0,0.0,0.0,0.0,0.0,0.0,0.0,0.0,0.0,0.0,-2.9332,-2.9379,-3.039,-2.9928,-2.992,-3.0906,-3.0212,-2.9984,-3.0626,-3.0216,-2.9999,-3.0177,-3.0195,-3.03,-3.0572,-3.0572,-3.0802,-3.1273,-3.1273,-3.1484,-3.1892,-3.1892,-3.1982,-3.2223,-3.2223,-3.2223,-3.2223,-3.2223,-3.2223,-3.2223,-3.2312,-3.233,-3.2293,-3.1654,-3.1397,-3.1397,-3.1397,-3.147,-3.153,-3.153,-3.153,-3.1506,-3.1434,-3.1397,-3.1397,-3.1397,-3.1397,-3.1397,-3.1397,-3.1397,-3.1397,-3.1397,-3.1397,-3.1334,-3.1128,-3.1279,-3.1406,-3.1128,-3.0937,-3.0914,-3.1227,-3.0525,-2.9885,-2.9885,-3.0329,-3.0696,-3.0792,-3.1028,-3.119,-3.119,-3.119,-3.119,-3.119,-3.119,-3.119,-3.119,-3.119,-3.119,-3.119,-3.119,-3.119,-3.119,-3.119,-3.097,-3.048,-3.0243,-2.9736,-2.8993,0.0,0.0,0.0,0.0,0.0,0.0,0.0,0.0,0.0,0.0,0.0,0.0,0.0,0.0,0.0,0.0,0.0,0.0,0.0,0.0,0.0,0.0,0.0,-3.0141,-3.0172,-3.0486,-3.1214,-3.0326,-3.0231,-3.1651,-3.08,-3.0622,-3.1737,-3.1825,-3.2022,-3.2484,-3.2501,-3.2501,-3.2517,-3.2517,-3.2745,-3.3214,-3.3214,-3.3404,-3.3807,-3.3807,-3.3807,-3.3807,-3.3807,-3.3807,-3.3807,-3.3807,-3.3807,-3.3815,-3.4086,-3.42,-3.4015,-3.2207,-3.1495,-3.1483,-3.1483,-3.1663,-3.1885,-3.1896,-3.1888,-3.1853,-3.1586,-3.1495,-3.1495,-3.1483,-3.1483,-3.1501,-3.1488,-3.147,-3.147,-3.147,-3.147,-3.147,-3.147,-3.2063,-3.2638,-3.2638,-3.2934,-3.3199,-3.3214,-3.1896,-3.0768,-3.0734,-3.134,-3.1678,-3.1252,-3.121,0.0,-3.119,-3.119,-3.119,-3.119,-3.119,-3.119,-3.119,-3.119,-3.119,-3.119,-3.119,-3.119,-3.119,-3.119,-3.119,-3.119,-3.0497,-2.977,-2.9044,0.0,0.0,0.0,0.0,0.0,0.0,0.0,0.0,0.0,0.0,0.0,0.0,0.0,0.0,0.0,0.0,0.0,0.0,0.0,0.0,0.0,-3.2067,-3.2046,-3.1101,-3.0723,-3.0836,-3.1586,-3.114,-3.1043,-3.1719,-3.1525,-3.1599,-3.2264,-3.2316,-3.2349,-3.2501,-3.2501,-3.2648,-3.2999,-3.3014,-3.3211,-3.362,-3.3652,-3.3694,-3.3807,-3.3807,-3.3807,-3.3807,-3.3807,-3.3807,-3.3807,-3.3807,-3.3807,-3.3815,-3.4086,-3.42,-3.4174,-3.3892,-3.3646,-3.343,-3.343,-3.3478,-3.3563,-3.3821,-3.3895,-3.3884,-3.3829,-3.3778,-3.3746,-3.3501,-3.343,-3.3389,-3.3188,-3.3128,-3.3128,-3.3128,-3.3128,-3.3128,-3.3128,-3.3311,-3.3476,-3.3476,-3.3334,-3.3288,-3.3578,-3.303,-3.2295,-3.162,-3.1952,-3.2074,-3.131,-3.1449,-3.1545,-3.1249,-3.119,-3.119,-3.119,-3.119,-3.119,-3.119,-3.119,-3.119,-3.119,-3.119,-3.119,-3.119,-3.119,-3.119,-3.119,-3.1004,-3.0531,0.0,0.0,0.0,0.0,0.0,0.0,0.0,0.0,0.0,0.0,0.0,0.0,0.0,0.0,0.0,0.0,0.0,0.0,0.0,0.0,0.0,0.0,-3.2892,-3.2928,-3.2199,-3.189,-3.1838,-3.2057,-3.2057,-3.2056,-3.2092,-3.2092,-3.2281,-3.2761,-3.2793,-3.2856,-3.3027,-3.3042,-3.3166,-3.3433,-3.3447,-3.3564,-3.3807,-3.3807,-3.3807,-3.3807,-3.3807,-3.3807,-3.3807,-3.3807,-3.3807,-3.3807,-3.3807,-3.3807,-3.3829,-3.4249,-3.4412,-3.4423,0.0,0.0,0.0,0.0,-3.4584,-3.4605,-3.4803,-3.4879,-3.486,-3.4753,-3.4694,-3.4663,-3.4475,-3.4311,-3.4171,-3.4006,-3.3889,-3.3807,-3.3807,-3.3807,-3.3807,-3.3807,-3.3807,-3.3807,-3.3807,-3.3625,-3.3522,-3.3748,-3.3606,0.0,-3.2516,-3.2598,-3.2484,-3.1582,-3.1641,-3.1641,-3.1252,-3.1351,-3.1389,-3.121,-3.1524,-3.16,-3.123,-3.1351,0.0,0.0,0.0,-3.1526,-3.1749,-3.1564,0.0,0.0,0.0,-3.1227,-3.08,-3.102,0.0,0.0,-2.8971,-2.8425,0.0,0.0,0.0,0.0,0.0,0.0,0.0,0.0,0.0,0.0,0.0,0.0,0.0,0.0,0.0,0.0,-3.3273,-3.3273,-3.3273,-3.3273,-3.309,-3.2632,-3.2905,-3.2983,-3.2616,-3.2583,-3.2761,-3.3229,-3.3273,-3.3419,-3.3775,-3.3807,0.0,0.0,0.0,-3.3807,-3.3807,-3.3807,-3.3807,-3.3807,-3.3807,-3.3807,-3.3807,-3.3807,-3.3815,-3.3855,-3.3855,-3.3868,-3.3941,-3.4508,-3.4754,-3.4803,-3.4773,-3.4753,-3.4764,-3.5008,-3.5105,-3.5105,-3.513,0.0,0.0,-3.4879,-3.4784,-3.4774,-3.4744,-3.4529,-3.4246,-3.42,-3.4006,-3.3807,-3.3807,-3.3807,-3.3807,-3.3807,-3.3807,-3.3807,-3.3807,-3.3807,-3.3807,-3.3807,-3.3807,-3.3694,-3.3332,-3.3273,-3.295,-3.2022,-3.1915,-3.1807,-3.1408,-3.1658,-3.1751,-3.137,-3.2039,0.0,-3.1408,-3.166,-3.1897,-3.1897,-3.1897,-3.2074,-3.2484,-3.2092,-3.1897,-3.1897,-3.1897,-3.1897,-3.1897,-3.2299,-3.2163,-3.1487,-2.9972,-2.9241,0.0,0.0,0.0,0.0,0.0,0.0,0.0,0.0,0.0,0.0,0.0,0.0,0.0,0.0,0.0,-3.3694,-3.3694,-3.3694,-3.3694,-3.3694,-3.3536,-3.3105,-3.2809,-3.2745,-3.3029,-3.306,-3.3243,-3.3648,-3.3694,-3.3721,-3.3807,-3.3807,-3.3807,-3.3807,-3.3807,-3.3807,-3.3807,-3.3807,-3.3807,-3.3807,-3.3807,0.0,-3.3807,-3.3807,-3.3928,-3.4123,-3.4123,-3.4284,-3.4559,-3.4898,-3.5138,-3.532,-3.5105,-3.5016,-3.5025,-3.5088,-3.5105,-3.513,-3.5354,-3.5424,-3.5405,-3.5361,-3.5354,-3.5304,-3.5088,-3.4822,0.0,-3.4288,-3.4006,-3.3807,-3.3807,-3.3807,-3.3807,-3.3807,-3.3807,-3.3807,-3.3807,-3.3807,-3.3807,-3.3807,-3.3807,-3.378,-3.3694,-3.3694,-3.3372,-3.2501,-3.2697,-3.2761,-3.2299,-3.2316,-3.2333,-3.2248,-3.2401,-3.2434,-3.2265,-3.2316,-3.2349,-3.2349,-3.2349,-3.2417,-3.2501,-3.2417,-3.2349,-3.2349,-3.2349,-3.2349,-3.2349,-3.2451,-3.243,-3.2269,-3.1361,-3.061,0.0,0.0,0.0,0.0,0.0,0.0,0.0,0.0,0.0,0.0,0.0,-3.4012,0.0,0.0,-3.3807,-3.3807,-3.3807,-3.3807,-3.3807,-3.3807,-3.3721,-3.3522,-3.3284,-3.324,-3.348,-3.3508,-3.3578,-3.3775,-3.3807,-3.3807,-3.3807,-3.3807,-3.3807,-3.3807,-3.3923,-3.4012,-3.4012,-3.4172,-3.4255,-3.4255,-3.4068,-3.4099,-3.4244,-3.4087,-3.4147,-3.4445,-3.4445,-3.4551,-3.4714,-3.499,-3.5266,-3.5493,-3.5354,-3.5297,-3.5297,-3.5297,-3.5297,-3.5312,-3.5446,-3.55,-3.55,-3.55,-3.55,-3.5467,-3.5346,-3.5016,-3.4694,-3.4656,-3.423,-3.3829,-3.3961,-3.3902,-3.3807,-3.3807,-3.3807,-3.3807,-3.3807,-3.3807,-3.3807,-3.3807,-3.3807,-3.3807,-3.3807,-3.3807,-3.3578,-3.2952,-3.3045,-3.3029,-3.2567,-3.2697,-3.2761,-3.2517,-3.2887,-3.2981,-3.2534,-3.2713,-3.284,-3.284,-3.3027,-3.3148,-3.3148,-3.2968,-3.284,-3.284,-3.284,-3.284,-3.284,-3.3042,-3.3148,-3.3148,-3.278,-3.2158,0.0,0.0,0.0,0.0,0.0,0.0,0.0,0.0,-3.385,-3.408,-3.3948,-3.3807,-3.3807,-3.3807,-3.3807,-3.3807,-3.3807,-3.3807,-3.3807,-3.3807,-3.3807,-3.3807,-3.3807,-3.3807,-3.3807,-3.3807,-3.3807,-3.3807,-3.3807,-3.3807,-3.3807,-3.3855,-3.3876,-3.3876,-3.4147,-3.43,-3.43,-3.4561,-3.4694,-3.4694,-3.4423,-3.4434,-3.4684,-3.4412,-3.4467,-3.4774,-3.4822,-3.486,-3.4879,-3.5088,-3.5304,-3.55,-3.55,-3.55,-3.55,-3.55,-3.55,-3.55,-3.55,-3.55,-3.55,-3.55,-3.55,-3.55,-3.55,-3.5155,-3.4813,-3.5053,-3.451,-3.3941,-3.4147,-3.4012,-3.3807,-3.3807,-3.3807,-3.3807,-3.3807,-3.3807,-3.3807,-3.3807,-3.3935,-3.4027,-3.4027,-3.4174,-3.406,-3.3415,-3.3444,-3.34,-3.3041,-3.345,-3.3668,-3.3273,-3.3862,-3.401,-3.3289,-3.343,-3.3553,-3.3553,-3.3712,-3.3807,-3.3807,-3.3494,-3.3317,-3.3317,-3.3317,-3.3317,-3.3317,-3.3634,-3.3807,-3.3807,-3.3807,-3.3433,-3.4018,-3.3881,-3.3908,-3.3908,-3.3855,-3.3815,0.0,0.0,-3.382,-3.3842,-3.3815,-3.3807,-3.3807,-3.3807,-3.3807,-3.3807,-3.3807,-3.3807,-3.3807,-3.3807,-3.3807,-3.3807,-3.3807,-3.3807,-3.3807,-3.3807,-3.3807,-3.3807,-3.3807,-3.3807,-3.3807,-3.4018,-3.4159,-3.4159,-3.4475,-3.4643,-3.4643,-3.4674,-3.4694,-3.4694,-3.4663,-3.4663,-3.4694,-3.4663,-3.4793,-3.507,-3.5304,-3.5417,-3.5398,-3.5439,-3.546,-3.55,-3.55,-3.55,-3.55,-3.55,-3.55,-3.55,-3.55,-3.55,-3.55,-3.55,-3.55,-3.55,-3.55,-3.5289,-3.507,-3.5096,-3.4646,-3.4152,-3.4188,-3.4012,-3.3807,-3.3807,-3.3807,-3.3807,-3.3807,-3.3807,-3.3807,-3.3807,-3.438,-3.4876,-3.4876,-3.5514,-3.55,-3.3954,-3.4344,-3.4773,-3.4731,-3.5447,-3.5937,-3.5875,-3.5966,-3.5981,-3.5875,-3.5194,-3.4802,-3.4802,-3.4165,-3.3807,-3.3807,-3.3748,-3.3734,-3.3734,-3.3734,-3.3734,-3.3734,-3.3793,-3.3807,-3.3807,-3.3807,-3.3748,-3.4153,-3.3928,0.0,0.0,-3.3807,-3.3807,-3.3807,-3.3807,-3.3807,-3.3807,-3.3807,-3.3807,-3.3807,-3.3807,-3.3807,0.0,-3.3807,-3.3807,-3.3807,-3.3807,-3.3807,-3.3807,-3.3807,-3.3807,-3.3807,-3.3807,-3.385,-3.4018,-3.4031,-3.4117,-3.4307,-3.4431,-3.4497,-3.4497,-3.4784,-3.4935,-3.4935,-3.5088,-3.5174,-3.5155,-3.4999,-3.5008,-3.5147,-3.4999,-3.5079,-3.5346,-3.5446,-3.55,-3.55,-3.55,-3.55,-3.55,-3.55,-3.55,-3.55,-3.55,-3.55,-3.55,-3.55,-3.55,-3.55,-3.55,-3.55,-3.55,-3.55,-3.5312,-3.5105,-3.5105,-3.4666,-3.42,-3.42,-3.4012,-3.3807,-3.3807,-3.3807,-3.3935,-3.4399,-3.4491,-3.4637,-3.5165,-3.5532,-3.5771,-3.5771,-3.6064,-3.6064,-3.5349,-3.555,-3.5771,-3.5771,-3.6064,-3.6303,-3.6303,-3.6303,-3.6303,-3.6303,-3.5973,-3.5771,-3.5771,-3.4949,-3.4491,-3.4491,-3.4045,-3.3807,-3.3807,-3.3807,-3.3807,-3.3807,-3.3807,-3.3807,-3.3807,-3.3807,-3.3807,-3.43,0.0,0.0,-3.3815,-3.3807,-3.3807,-3.3807,-3.3807,-3.3807,-3.3807,-3.3807,-3.3807,-3.3807,-3.3807,-3.3807,-3.3807,-3.3807,-3.388,-3.41,-3.4137,-3.4229,-3.4468,-3.4544,-3.4592,-3.4592,-3.4173,-3.3999,-3.4195,-3.43,-3.4434,-3.4684,-3.4764,-3.4803,-3.4803,-3.5079,-3.5207,-3.5207,-3.5391,-3.55,-3.55,-3.5304,-3.5304,-3.5493,-3.5297,-3.5312,-3.55,-3.55,-3.55,-3.55,-3.55,-3.55,-3.55,-3.55,-3.55,-3.55,-3.55,-3.55,-3.55,-3.55,-3.55,-3.55,-3.55,-3.55,-3.55,-3.55,-3.5369,-3.5207,-3.5207,-3.4945,-3.467,-3.467,-3.4574,-3.4486,-3.4486,-3.4486,-3.4651,-3.5224,-3.5353,-3.5555,-3.6174,-3.6468,-3.6615,-3.6615,-3.6798,-3.6964,-3.6964,-3.6964,-3.6872,-3.6666,-3.6817,-3.6964,-3.6964,-3.6964,-3.6964,-3.6964,-3.6762,-3.6615,-3.6615,-3.5844,-3.5261,-3.5023,-3.4435,-3.4027,-3.3807,-3.3807,-3.3807,-3.3807,-3.3807,-3.3807,-3.3807,-3.3807,-3.3807,-3.43,0.0,-3.4123,-3.385,-3.3807,-3.3807,-3.3807,-3.3807,-3.3807,-3.3807,-3.3807,-3.3807,-3.3807,-3.3807,-3.3807,-3.3807,-3.3807,-3.4082,-3.4857,-3.4968,-3.5279,-3.6119,-3.6451,-3.6615,0.0,-3.5137,-3.4188,-3.42,-3.4508,-3.4684,-3.4694,-3.4944,-3.5088,-3.5088,-3.5354,-3.5493,-3.5493,-3.55,-3.55,-3.55,-3.5493,-3.5493,-3.55,-3.5493,-3.5493,-3.55,-3.55,-3.55,-3.55,-3.55,-3.55,-3.55,-3.55,-3.55,-3.55,-3.55,-3.55,-3.55,-3.55,-3.55,-3.55,-3.55,-3.55,-3.55,-3.55,-3.5493,-3.5493,-3.5493,-3.5659,-3.5851,-3.5851,-3.6037,-3.6211,-3.6211,-3.6211,-3.6229,-3.6266,-3.6266,-3.6266,-3.6285,-3.6942,-3.7456,-3.7456,-3.8102,-3.8634,-3.8634,-3.8634,-3.8358,-3.7566,-3.8138,-3.8634,-3.8634,-3.8634,-3.8634,-3.8634,-3.7915,-3.7456,-3.7456,-3.6707,-3.5881,-3.5041,-3.4986,-3.4601,-3.3825,-3.3807,-3.3807,-3.3807,-3.3807,-3.3807,-3.3807,-3.3807,-3.3807,-3.4561,0.0,-3.4508,-3.4409,-3.4405,-3.4405,-3.4405,-3.4405,-3.4405,-3.4405,-3.4809,-3.5188,-3.5188,-3.5466,-3.5725,-3.5725,-3.5569,-3.555,-3.5826,-3.6029,-3.6244,-3.6541,-3.6837,0.0,0.0,0.0,0.0,-3.6433,-3.6559,-3.6699,-3.6875,-3.6968,-3.7026,-3.7026,-3.7106,-3.6892,-3.6308,-3.6308,-3.6038,-3.55,-3.55,-3.55,-3.55,-3.55,-3.55,-3.5538,-3.6058,-3.6308,-3.6346,-3.693,-3.7161,-3.7161,-3.7161,-3.7161,-3.7161,-3.7161,-3.7161,-3.7084,-3.65,-3.6308,-3.6385,-3.6969,-3.7161,-3.7161,-3.7161,-3.7161,-3.7083,-3.6671,-3.6621,-3.6607,-3.626,-3.6228,-3.6303,-3.6303,-3.6303,-3.645,-3.6978,-3.7107,-3.7254,-3.779,-3.8102,-3.8303,-3.8303,-3.8524,-3.8707,-3.8707,-3.8707,-3.8597,-3.8322,-3.8524,-3.8707,-3.8707,-3.8707,-3.8707,-3.8707,-3.845,-3.8303,-3.8303,-3.7547,-3.696,-3.667,-3.5591,-3.4876,-3.4601,-3.4082,-3.3807,-3.3807,-3.3807,-3.3807,-3.3807,-3.3807,-3.3807,-3.4879,-3.4832,-3.4813,-3.4714,-3.4694,-3.4694,-3.4694,-3.492,-3.5138,-3.5138,-3.5801,-3.6359,-3.6359,-3.6557,-3.674,-3.6855,-3.6638,-3.6587,-3.7,-3.7206,-3.7398,-3.7697,-3.8025,-3.8236,0.0,0.0,0.0,-3.7649,-3.7681,-3.7819,-3.7981,-3.8007,-3.8007,-3.8007,-3.8007,-3.7738,-3.718,-3.7161,-3.6911,-3.6385,-3.6385,-3.6385,-3.6385,-3.6385,-3.6385,-3.6423,-3.6949,-3.7161,-3.7219,-3.7777,-3.8007,-3.8007,-3.8007,-3.8007,-3.8007,-3.8007,-3.8007,-3.7911,-3.7353,-3.7161,-3.7257,-3.7815,-3.8007,-3.8007,-3.8007,-3.7917,-3.774,-3.7356,-3.7316,-3.7316,-3.6961,-3.701,-3.7165,-3.7165,-3.7165,-3.7294,-3.7823,-3.7933,-3.8065,-3.8597,-3.8707,-3.8707,-3.8707,-3.8707,-3.8707,-3.8707,-3.8707,-3.8707,-3.8707,-3.8707,-3.8707,-3.8707,-3.8707,-3.8707,-3.8707,-3.8707,-3.8707,-3.8707,-3.8212,-3.7804,-3.7511,-3.6468,-3.5756,-3.5463,-3.4637,-3.4215,-3.4215,-3.3935,-3.3855,-3.3935,-3.3842,-3.3855,-3.519,-3.5122,-3.507,-3.4793,-3.4772,-3.4791,-3.4791,-3.5434,-3.6012,-3.6012,-3.6694,-3.731,0.0,0.0,-3.695,-3.7271,-3.7045,-3.7206,-3.8271,-3.8471,-3.8765,0.0,0.0,0.0,0.0,0.0,0.0,-3.7894,-3.7985,-3.8123,-3.8123,-3.8123,-3.8123,-3.8123,-3.8123,-3.8104,-3.8065,-3.8027,-3.8007,-3.8007,-3.8007,-3.8007,-3.8007,-3.8007,-3.8007,-3.8007,-3.8046,-3.8065,-3.8065,-3.8104,-3.8123,-3.8123,-3.8123,-3.8123,-3.8123,-3.8123,-3.8123,-3.8123,-3.8123,-3.8104,-3.8065,-3.8104,-3.8123,-3.8123,-3.8123,-3.7907,-3.7641,-3.7651,-3.7796,-3.7986,-3.796,-3.8329,-3.8707,-3.8707,-3.8707,-3.8707,-3.8707,-3.8707,-3.8707,-3.8707,-3.8707,-3.8707,-3.8707,-3.8707,-3.8707,-3.8707,-3.8707,-3.8707,-3.8707,-3.8707,-3.8707,-3.8707,-3.8707,-3.8707,-3.8707,-3.8707,-3.8707,-3.8707,-3.8707,-3.8358,-3.7584,-3.7529,-3.7144,-3.6376,-3.5528,-3.5055,-3.5004,-3.4256,-3.3998,-3.4188,-3.3935,-3.3961,-3.5424,-3.5391,-3.5376,-3.5312,-3.5756,-3.6186,-3.6186,-3.6856,-3.7458,-3.7458,-3.8156,-3.875,0.0,0.0,0.0,-3.8958,-3.8708,0.0,-3.8876,-3.9354,0.0,-3.9944,0.0,-4.0389,-4.0389,-4.0465,0.0,-3.9791,-3.9811,-3.9861,-3.9861,-3.9861,-3.9861,-3.9861,-3.9861,-3.9573,-3.8969,-3.8315,-3.8007,-3.8007,-3.8007,-3.8007,-3.8007,-3.8007,-3.8007,-3.8046,-3.8681,-3.8977,-3.9015,-3.9631,-3.9861,-3.9861,-3.9861,-3.9861,-3.9861,-3.9861,-3.9861,-3.9861,-3.9861,-3.9477,-3.9073,-3.9669,-3.9861,-3.9861,-3.9861,-3.9804,-3.9684,-3.948,-3.9313,-3.912,-3.8867,-3.8746,-3.8707,-3.8707,-3.8707,-3.8707,-3.8707,-3.8707,-3.8707,-3.8707,-3.8707,-3.8707,-3.8707,-3.8707,-3.8707,-3.8707,-3.8707,-3.8707,-3.8707,-3.8707,-3.8707,-3.8707,-3.8707,-3.8707,-3.8707,-3.8707,-3.8707,-3.8707,-3.8707,-3.8615,-3.8395,-3.7823,-3.7401,-3.7199,-3.6582,-3.5843,-3.5004,-3.5255,-3.4959,-3.4188,-3.4135,-3.4135,-3.55,-3.55,-3.5577,-3.5942,-3.6365,-3.6788,-3.718,-3.795,-3.8565,-3.8565,-3.9246,0.0,-3.9823,-3.9699,0.0,0.0,0.0,0.0,-3.9675,-4.0034,-4.0286,0.0,-4.0406,0.0,-4.0496,-4.0496,-4.0496,-4.0496,-4.0496,-4.0496,-4.0496,-4.0496,-4.0496,-4.0496,-4.0496,-4.0303,-3.9926,-3.9463,-3.9228,-3.9228,-3.9194,-3.9174,-3.9186,-3.9129,-3.9104,-3.9123,-3.9611,-3.9823,-3.9861,-4.0304,-4.0496,-4.0496,-4.0496,-4.0496,-4.0496,-4.0496,-4.0496,-4.0496,-4.0496,-4.0208,-3.99,-4.0342,-4.0496,-4.0496,-4.0496,-4.0425,-4.0258,-3.9963,-3.9634,-3.932,-3.8985,-3.88,-3.8707,-3.8707,-3.8707,-3.8707,-3.8707,-3.8707,-3.8707,-3.8707,-3.8707,-3.8707,-3.8707,-3.8707,-3.8707,-3.8707,-3.8707,-3.8707,-3.8707,-3.8707,-3.8707,-3.8707,-3.8707,-3.8707,-3.8707,-3.8707,-3.8707,-3.8707,-3.8707,-3.8707,-3.8707,-3.839,-3.8196,-3.8196,-3.7691,-3.7125,-3.6477,-3.6081,-3.5629,-3.5105,-3.4628,-3.4489,-3.55,-3.5577,-3.5827,-3.6519,-3.6865,-3.7238,-3.8007,-3.8834,-3.9457,-3.9457,0.0,-4.0496,-4.0496,-4.0043,-3.9832,-4.0353,0.0,-3.9842,-4.0362,-4.0481,-4.0496,-4.0496,-4.0496,-4.0496,-4.0496,-4.0496,-4.0496,-4.0496,-4.0496,-4.0496,-4.0496,-4.0496,-4.0504,-4.0534,-4.0534,-4.0582,-4.0707,-4.077,-4.0793,-4.0796,-4.0721,-4.0686,-4.0661,-4.0552,-4.0496,-4.0496,-4.0496,-4.0496,-4.0496,-4.0496,-4.0496,-4.0496,-4.0496,-4.0496,-4.0496,-4.0496,-4.0496,-4.0496,-4.0496,-4.0496,-4.0496,-4.0496,-4.0496,-4.0496,-4.0496,-4.0321,-4.0032,-3.9754,-3.9389,-3.9049,-3.88,-3.8719,-3.8707,-3.8707,-3.8707,-3.8707,-3.8707,-3.8707,-3.8707,-3.8707,-3.8707,-3.8707,-3.8707,-3.8707,-3.8707,-3.8707,-3.8707,-3.8704,-3.8747,-3.8719,-3.8707,-3.8707,-3.8707,-3.8707,-3.8707,-3.8707,-3.8707,-3.8707,-3.8735,-3.8747,-3.8747,-3.9013,-3.9178,-3.9178,-3.882,-3.8553,-3.8395,-3.7026,-3.6321,-3.6277,-3.5353,-3.4984,-3.55,-3.5981,-3.6519,-3.6673,-3.7777,-3.8892,-3.9034,-3.9708,0.0,0.0,-4.04,-4.0496,-4.0496,-4.0241,-4.0042,-4.0148,0.0,0.0,0.0,0.0,-4.0496,0.0,-4.0496,-4.0496,-4.0496,-4.0496,0.0,-4.0496,-4.0496,-4.0496,-4.0496,-4.0496,-4.0552,-4.0655,-4.0674,-4.0693,-4.0788,-4.0789,-4.077,-4.0718,-4.0709,-4.0649,-4.0523,-4.0512,-4.0496,-4.0496,-4.0496,-4.0496,-4.0496,-4.0496,-4.0496,-4.0496,-4.0496,-4.0496,-4.0496,-4.0496,-4.0496,-4.0496,-4.0496,-4.0496,-4.0496,-4.0496,-4.0496,-4.0496,-4.0496,-4.0321,-4.0091,-4.0022,-3.9576,-3.9085,-3.9049,-3.8869,-3.8707,-3.8707,-3.8707,-3.8707,-3.8707,-3.8707,-3.8707,-3.8707,-3.8707,-3.8707,-3.8707,-3.8707,-3.8707,-3.8707,-3.8707,-3.8773,-3.9013,-3.8844,-3.8707,-3.8707,-3.8707,-3.8707,-3.8707,-3.8707,-3.8707,-3.8707,-3.8909,-3.9036,-3.9036,-3.9346,-3.9498,-3.9498,-3.9707,-3.934,-3.8395,-3.8611,-3.7882,-3.6296,-3.6099,-3.568,-3.55,-3.6096,-3.6808,-3.7257,-3.8354,-3.9419,-3.9823,0.0,0.0,0.0,-4.0496,-4.0496,-4.0496,0.0,0.0,0.0,0.0,0.0,0.0,0.0,0.0,0.0,0.0,-4.0496,0.0,-4.0496,-4.0496,-4.0496,-4.0496,-4.0496,-4.0496,-4.0496,-4.0566,-4.0692,-4.0736,-4.0792,-4.0908,-4.0964,-4.0969,-4.0863,-4.0785,-4.0699,-4.0596,-4.0523,-4.0496,-4.0496,-4.0496,-4.0496,-4.0496,-4.0496,-4.0496,-4.0496,-4.0496,-4.0496,-4.0496,-4.0496,-4.0496,-4.0496,-4.0496,-4.0496,-4.0496,-4.0496,-4.0496,-4.0473,-4.0339,-4.0195,-4.0022,-3.9668,-3.9339,-3.9058,-3.8937,-3.8788,-3.8707,-3.8707,-3.8707,-3.8707,-3.8707,-3.8707,-3.8707,-3.8707,-3.8707,-3.8707,-3.8707,-3.8707,-3.875,-3.8898,-3.8909,-3.9031,-3.9333,-3.9109,-3.8909,-3.8909,-3.8773,-3.8707,-3.8707,-3.8829,-3.8909,-3.8909,-3.9178,-3.9352,-3.9352,-3.9679,-3.987,-3.987,-4.0148,-4.003,-3.949,-3.9355,-3.8789,-3.783,-3.6921,-3.6308,-3.5534,-3.6132,-3.6961,-3.7855,-3.8723,-3.9565,-4.0352,-4.0537,0.0,0.0,-4.0496,-4.0512,-4.053,0.0,-4.0352,0.0,-4.0421,0.0,0.0,0.0,0.0,0.0,0.0,0.0,-4.0496,-4.0496,0.0,-4.0496,-4.0534,-4.0523,-4.0496,-4.0534,-4.0603,-4.0724,-4.0796,-4.0911,-4.1049,-4.1126,-4.1082,-4.0957,-4.0836,-4.0738,-4.0642,-4.0545,-4.0496,-4.0496,-4.0496,-4.0496,-4.0496,-4.0496,-4.0496,-4.0496,-4.0496,-4.0496,-4.0496,-4.0496,-4.0496,-4.0496,-4.0496,-4.0496,-4.0496,-4.0496,-4.0496,-4.0457,-4.0177,-4.0042,-3.987,-3.9264,-3.9063,-3.8975,-3.8747,-3.8707,-3.8707,-3.8707,-3.8707,-3.8707,-3.8707,-3.875,-3.8788,-3.8788,-3.8848,-3.8888,-3.8888,-3.8888,-3.8952,-3.9178,-3.9218,-3.9327,-3.9656,-3.9414,-3.9225,-3.9302,-3.9008,-3.8788,-3.8788,-3.904,-3.9218,-3.9218,-3.9529,-3.972,-3.972,-4.0022,-4.0186,-4.0186,-4.0389,-4.0496,-4.0496,-3.9881,-3.9477,-3.9265,-3.7892,-3.7065,-3.5678,-3.6316,-3.7187,-3.8043,-3.8937,-3.9781,-4.0516,0.0,0.0,-4.0534,-4.0496,-4.0549,-4.0649,-4.068,-4.0682,0.0,0.0,-4.0728,0.0,0.0,0.0,0.0,0.0,0.0,-4.0496,-4.0496,-4.0496,-4.0496,-4.061,-4.063,-4.0504,-4.0616,-4.0729,-4.08,-4.0914,-4.1051,-4.1171,-4.1078,-4.0955,-4.0813,-4.0732,-4.0636,-4.0519,-4.0504,-4.0496,-4.0496,-4.0496,-4.0496,-4.0496,-4.0496,-4.0496,-4.0496,-4.0496,-4.0496,-4.0496,-4.0496,-4.0496,-4.0496,-4.0496,-4.0496,-4.0496,-4.0496,-4.0496,-4.0457,-4.0177,-3.9891,-3.9576,-3.9199,-3.8919,-3.8735,-3.8707,-3.8707,-3.8707,-3.8707,-3.8707,-3.8707,-3.8707,-3.888,-3.9058,-3.9058,-3.9308,-3.9517,-3.9517,-3.9517,-3.9529,-3.9552,-3.9552,-3.9668,-4.0012,-3.9765,-3.9668,-3.9982,-3.9445,-3.9058,-3.9058,-3.9352,-3.9552,-3.9552,-3.987,-4.0042,-4.0042,-4.033,-4.0465,-4.0465,-4.0489,-4.0496,-4.0496,-4.0439,-4.0015,-3.9304,-3.915,-3.82,-3.5707,-3.6345,-3.7217,-3.8073,-3.8965,-3.9805,-4.0582,0.0,-4.0752,-4.0682,-4.0671,-4.0707,-4.0757,-4.0828,-4.0863,-4.0801,0.0,0.0,-4.0785,0.0,0.0,0.0,-4.0623,0.0,0.0,0.0,-4.0523,-4.0616,-4.0661,-4.0696,-4.069,-4.0723,-4.0805,-4.0917,-4.0964,-4.1056,-4.1191,-4.1076,-4.0925,-4.0797,-4.0731,-4.0636,-4.0496,-4.0496,-4.0496,-4.0496,-4.0496,-4.0496,-4.0496,-4.0496,-4.0496,-4.0496,-4.0496,-4.0496,-4.0496,-4.0496,-4.0496,-4.0496,-4.0496,-4.0496,-4.0496,-4.0496,-4.0496,-4.0414,-3.9934,-3.972,-3.9493,-3.9008,-3.8773,-3.8707,-3.8707,-3.8707,-3.875,-3.8894,-3.8833,-3.8807,-3.9168,-3.9171,-3.9165,-3.9352,-3.9517,-3.9599,-3.9599,-3.9599,-3.9668,-3.988,-3.9901,-4.0003,-4.0294,-4.0072,-3.9943,-4.0091,-3.9679,-3.9389,-3.9389,-3.972,-3.9901,-3.9901,-4.0176,-4.0347,-4.0347,-4.043,-4.0496,-4.0496,-4.0496,-4.0496,-4.0496,-4.0496,-4.0342,-4.0015,-3.9534,-3.8931,-3.5792,-3.6238,-3.6977,-3.811,-3.8848,-3.958,0.0,0.0,-4.0854,-4.0805,-4.0797,-4.0809,-4.0857,-4.0947,-4.0988,-4.0922,0.0,-4.1,-4.0874,-4.086,0.0,0.0,0.0,-4.069,-4.0581,-4.0559,-4.0616,-4.0715,-4.0762,-4.0803,-4.0857,-4.0905,-4.093,-4.0994,-4.1049,-4.1104,-4.1191,-4.1025,-4.0883,-4.0797,-4.0688,-4.0582,-4.0496,-4.0496,-4.0496,-4.0496,-4.0496,-4.0496,-4.0496,-4.0496,-4.0496,-4.0496,-4.0496,-4.0496,-4.0496,-4.0496,-4.0496,-4.0496,-4.0496,-4.0496,-4.0496,-4.0496,-4.0496,-4.0406,-3.9903,-3.9679,-3.9469,-3.8877,-3.8762,-3.8844,-3.8927,-3.897,-3.9008,-3.9205,-3.9095,-3.9073,-3.9505,-3.9486,-3.9481,-3.969,-3.981,-3.9863,-3.9863,-3.9863,-3.9954,-4.0186,-4.0213,-4.0295,-4.0473,-4.0339,-4.0213,-4.0213,-4.0013,-3.9832,-3.9746,-4.0052,-4.0213,-4.0213,-4.0389,-4.0496,-4.0496,-4.0496,-4.0496,-4.0496,-4.0496,-4.0496,-4.0496,-4.0496,-4.0496,-4.0496,-3.9919,-3.9534,-3.5996,-3.5996,-3.6426,-3.8164,-3.8594,-3.9022,0.0,-4.0994,-4.0959,-4.0839,-4.0797,-4.085,-4.0964,-4.0996,-4.103,-4.1171,-4.1191,0.0,-4.1021,-4.0994,0.0,0.0,0.0,-4.077,-4.069,-4.0697,-4.074,-4.0789,-4.092,-4.0994,-4.0994,-4.1127,-4.1148,-4.0998,-4.1128,-4.1191,-4.1191,-4.0947,-4.0801,-4.0797,-4.0597,-4.0496,-4.0496,-4.0496,-4.0496,-4.0496,-4.0496,-4.0496,-4.0496,-4.0496,-4.0496,-4.0496,-4.0496,-4.0496,-4.0496,-4.0496,-4.0496,-4.0496,-4.0496,-4.0496,-4.0496,-4.0496,-4.0496,-4.0457,-4.0177,-3.9851,-3.9469,-3.8877,-3.888,-3.916,-3.9498,-3.9587,-3.9599,-3.9599,-3.9599,-3.9599,-3.9599,-3.987,-4.0091,-4.0091,-4.0313,-4.0489,-4.0489,-4.0489,-4.0489,-4.0489,-4.0489,-4.0496,-4.0496,-4.0496,-4.0489,-4.0489,-4.0489,-4.0381,-4.012,-4.0347,-4.0489,-4.0489,-4.0496,-4.0496,-4.0496,-4.0496,-4.0496,-4.0496,-4.0496,-4.0496,-4.0496,-4.0496,-4.0496,-4.0496,-4.0496,-4.0054,-3.5996,-3.5996,-3.6426,-3.8164,-3.8594,-3.9043,-4.0759,-4.1148,-4.1127,-4.108,-4.1078,-4.1081,-4.1128,-4.1148,-4.115,-4.1191,-4.1191,0.0,0.0,0.0,0.0,-4.0813,-4.069,-4.0617,0.0,-4.0697,-4.0762,-4.092,-4.0986,-4.1049,-4.1128,-4.1171,-4.1171,-4.1149,-4.1171,-4.1191,-4.1191,-4.1025,-4.0883,-4.0797,-4.0688,-4.0582,-4.0496,-4.0496,-4.0496,-4.0496,-4.0496,-4.0496,-4.0496,-4.0496,-4.0496,-4.0496,-4.0496,-4.0496,-4.0496,-4.0496,-4.0496,-4.0496,-4.0496,-4.0496,-4.0496,-4.0496,-4.0496,-4.0457,-4.0177,-4.0022,-3.9859,-3.9439,-3.9371,-3.9481,-3.9576,-3.9599,-3.9656,-3.9891,-3.9775,-3.9712,-4.0129,-4.0148,-4.0148,-4.0339,-4.0449,-4.0496,-4.0496,-4.0496,-4.0496,-4.0496,-4.0496,-4.0496,-4.0496,-4.0496,-4.0496,-4.0496,-4.0496,-4.0465,-4.0381,-4.0457,-4.0496,-4.0496,-4.0496,-4.0496,-4.0496,-4.0496,-4.0496,-4.0496,-4.0496,-4.0496,-4.0496,-4.0582,-4.066,-4.0703,-4.0703,-4.0538,0.0,-3.5926,-3.6362,-3.81,-3.8553,0.0,0.0,-4.1191,-4.1191,-4.1191,-4.1191,-4.1191,-4.1191,-4.1191,-4.1191,-4.1191,-4.1191,0.0,0.0,0.0,0.0,-4.0813,0.0,0.0,-4.08,-4.0772,-4.0828,-4.1054,-4.1078,-4.1105,-4.1191,-4.1191,-4.1191,-4.1191,-4.1191,-4.1191,-4.1191,-4.1076,-4.0957,-4.087,-4.0757,-4.0668,-4.0561,-4.0527,-4.0496,-4.0496,-4.0496,-4.0496,0.0,-4.0496,-4.0496,-4.0496,-4.0496,-4.0496,-4.0496,-4.0496,-4.0496,-4.0496,-4.0496,-4.0496,-4.0496,-4.0496,-4.0496,-4.0473,-4.0313,-4.0091,-3.9891,-3.9808,-3.9786,-3.9819,-3.9905,-3.9935,-3.9994,-4.0204,-4.0091,-4.0043,-4.0422,-4.0364,-4.0304,-4.0473,-4.0496,-4.0496,-4.0496,-4.0496,-4.0496,-4.0496,-4.0496,-4.0496,-4.0496,-4.0496,-4.0496,-4.0496,-4.0496,-4.0496,-4.0496,-4.0496,-4.0496,-4.0496,-4.0496,-4.0496,-4.0496,-4.0496,-4.0508,-4.0561,-4.0581,-4.0596,-4.0604,-4.0699,-4.0767,-4.0797,-4.0797,-4.0757,0.0,-3.5789,0.0,0.0,0.0,0.0,-4.0702,-4.1132,0.0,-4.1172,-4.1191,-4.1191,-4.1191,-4.1191,-4.1191,-4.1191,-4.1191,0.0,0.0,-4.1017,0.0,0.0,-4.0757,-4.0781,-4.0986,-4.0899,-4.092,-4.1171,-4.1191,-4.1191,-4.1191,-4.1191,-4.1191,-4.1191,-4.1191,-4.1191,-4.1191,-4.1078,-4.1019,-4.0994,-4.0814,-4.0721,-4.0692,-4.0574,-4.0512,-4.0496,-4.0496,-4.0496,-4.0496,-4.0496,-4.0496,-4.0496,-4.0496,-4.0496,-4.0496,-4.0496,-4.0496,-4.0496,-4.0496,-4.0496,-4.0496,-4.0496,-4.0496,-4.0496,-4.0496,-4.012,-3.9724,-4.0042,-4.0129,-4.0186,-4.0441,-4.0496,-4.0496,-4.0496,-4.0496,-4.0496,-4.0496,-4.0496,-4.0496,-4.0496,-4.0496,-4.0496,-4.0496,-4.0496,-4.0496,-4.0496,-4.0496,-4.0496,-4.0496,-4.0496,-4.0496,-4.0496,-4.0496,-4.0496,-4.0496,-4.0496,-4.0504,-4.0512,-4.0519,-4.0519,-4.0515,-4.0515,-4.0582,-4.069,-4.0715,-4.0747,-4.0809,-4.0809,-4.0813,-4.082,-4.082,-4.0784,-3.5546,0.0,-3.6008,-3.7066,-3.7857,-3.8647,0.0,0.0,0.0,0.0,0.0,-4.108,-4.1171,-4.1191,-4.1191,-4.1191,0.0,0.0,-4.115,0.0,0.0,-4.0813,-4.0796,-4.0832,-4.099,-4.0964,-4.1023,-4.1191,-4.1191,-4.1191,-4.1191,-4.1191,-4.1191,-4.1191,-4.1191,-4.1191,-4.1191,-4.1171,-4.1103,-4.0996,-4.0947,-4.0856,-4.0697,-4.0661,-4.0589,-4.0496,-4.0496,-4.0496,-4.0496,-4.0496,-4.0496,-4.0496,-4.0496,-4.0496,-4.0496,-4.0496,-4.0496,-4.0496,-4.0496,-4.0496,-4.0496,-4.0496,-4.0496,-4.0496,-4.0496,-4.0406,-4.0292,-4.0381,-4.0417,-4.0414,-4.0481,-4.0496,-4.0496,-4.0496,-4.0496,-4.0496,-4.0496,-4.0496,-4.0496,-4.0496,-4.0496,-4.0496,-4.0496,-4.0496,-4.0496,-4.0496,-4.0496,-4.0496,-4.0496,-4.0496,-4.0496,-4.0496,-4.0496,-4.0496,-4.0496,-4.0496,-4.0537,-4.0655,-4.0642,-4.0678,-4.0733,-4.0738,-4.0733,-4.0779,-4.0779,-4.0832,-4.0955,-4.0955,-4.1017,-4.1104,-4.1104,-4.1048,-3.55,-3.5577,-3.5849,-3.6735,-3.7623,-3.8528,0.0,0.0,0.0,0.0,0.0,0.0,-4.0996,-4.1028,0.0,0.0,-4.1113,0.0,0.0,0.0,-4.0877,-4.0805,-4.0797,-4.0857,-4.099,-4.0996,-4.1054,-4.1191,-4.1191,-4.1191,-4.1191,-4.1191,-4.1191,-4.1191,-4.1191,-4.1191,-4.1191,-4.1191,-4.1151,-4.1082,-4.0962,-4.0843,-4.0738,-4.0661,-4.0574,-4.0496,-4.0496,-4.0496,-4.0496,-4.0496,-4.0496,-4.0496,-4.0496,-4.0496,-4.0496,-4.0496,-4.0496,-4.0496,-4.0496,-4.0496,-4.0496,-4.0496,-4.0496,-4.0496,-4.0496,-4.0496,-4.0496,-4.0496,-4.0496,-4.0496,-4.0496,-4.0496,-4.0496,-4.0496,-4.0496,-4.0496,-4.0496,-4.0496,-4.0496,-4.0496,-4.0496,-4.0496,-4.0496,-4.0496,-4.0496,-4.0496,-4.0496,-4.0496,-4.0496,-4.0496,-4.0508,-4.0595,-4.0582,-4.0597,-4.0641,-4.0647,-4.0666,-4.0697,-4.0726,-4.0752,-4.0797,-4.0797,-4.082,-4.0883,-4.0955,-4.1023,-4.1082,-4.1082,-4.1128,-4.1191,-4.1191,-4.1128,-3.55,-3.5534,-3.5753,-3.6505,-3.7473,-3.8454,0.0,0.0,0.0,0.0,0.0,0.0,0.0,0.0,0.0,0.0,0.0,0.0,-4.1026,-4.0925,-4.0864,-4.0864,-4.0864,-4.0911,-4.1023,-4.1026,-4.1078,-4.1191,-4.1191,-4.1191,-4.1191,-4.1191,-4.1191,-4.1191,-4.1191,-4.1191,-4.1191,-4.1191,-4.1191,-4.1191,-4.0964,-4.0857,-4.0816,-4.0635,-4.0552,-4.0542,-4.0512,-4.0496,-4.0496,-4.0496,-4.0496,-4.0496,-4.0496,-4.0496,-4.0496,-4.0496,-4.0496,-4.0496,-4.0496,-4.0496,-4.0496,-4.0496,-4.0496,-4.0496,-4.0496,-4.0496,-4.0535,-4.0669,-4.0593,-4.0496,-4.0496,-4.0496,-4.0496,-4.0496,-4.0496,-4.0496,-4.0496,-4.0496,-4.0496,-4.0496,-4.0496,-4.0496,-4.0496,-4.0496,-4.0496,-4.0496,-4.0496,-4.0504,-4.0534,-4.0523,-4.0575,-4.0696,-4.0713,-4.0742,-4.0789,-4.0813,-4.0805,-4.0756,-4.0792,-4.0847,-4.0864,-4.0864,-4.0917,-4.1025,-4.1149,-4.1191,-4.1191,-4.1191,-4.1191,-4.1191,-4.1191,-4.1149,-3.55,-3.5501,-3.554,-3.5682,-3.6896,-3.8073,0.0,0.0,0.0,0.0,0.0,0.0,0.0,0.0,0.0,0.0,0.0,-4.1171,0.0,0.0,-4.1149,-4.1149,-4.1149,-4.1149,-4.1171,-4.1171,-4.1171,-4.1191,-4.1191,-4.1191,-4.1191,-4.1191,-4.1191,-4.1191,-4.1191,-4.1191,-4.1191,-4.1191,-4.1191,-4.1191,-4.1151,-4.108,-4.0962,-4.0824,-4.0727,-4.0655,-4.0545,-4.0496,-4.0496,-4.0496,-4.0496,-4.0496,-4.0496,-4.0496,-4.0496,-4.0496,-4.0496,-4.0496,-4.0496,-4.0496,-4.0496,-4.0496,-4.0496,-4.0496,-4.0496,-4.0496,-4.065,-4.1393,-4.1066,-4.0496,-4.0496,-4.0496,-4.0496,-4.0496,-4.0496,-4.0496,-4.0496,-4.0496,-4.0496,-4.0496,-4.0496,-4.0496,-4.0496,-4.0496,-4.0496,-4.0496,-4.0496,-4.0537,-4.0642,-4.0661,-4.0701,-4.0779,-4.0773,-4.0781,-4.0797,-4.0908,-4.0959,-4.095,-4.0957,-4.1023,-4.1129,-4.1149,-4.115,-4.1171,-4.1191,-4.1191,-4.1191,-4.1191,-4.1191,-4.1191,-4.1191,-4.1191,-3.5453,-3.55,-3.5596,-3.6038,-3.7084,-3.8123,0.0,0.0,0.0,0.0,0.0,0.0,0.0,0.0,-4.0881,-4.1069,0.0,-4.1191,-4.1191,-4.1191,-4.1191,-4.1191,-4.1191,-4.1191,-4.1191,-4.1191,-4.1191,-4.1191,-4.1191,-4.1191,-4.1191,-4.1191,-4.1191,-4.1191,-4.1191,-4.1191,-4.1191,-4.1191,-4.1191,-4.1191,-4.1127,-4.1055,-4.0994,-4.0864,-4.0773,-4.0747,-4.0642,-4.061,-4.0596,-4.0542,-4.0496,-4.0496,-4.0496,-4.0496,-4.0496,-4.0496,-4.0496,-4.0573,-4.1046,-4.12,-4.1277,-4.1739,-4.1893,-4.1893,-4.1893,-4.1893,-4.1989,-4.2393,-4.1873,-4.1316,-4.1777,-4.1893,-4.1893,-4.1893,-4.1893,-4.1777,-4.1296,-4.12,-4.1066,-4.0593,-4.0496,-4.0496,-4.0496,-4.0496,-4.0515,-4.0589,-4.061,-4.0649,-4.0738,-4.0757,-4.0784,-4.0902,-4.0911,-4.0947,-4.1019,-4.1077,-4.1105,-4.1105,-4.1105,-4.1148,-4.1191,-4.1191,-4.1191,-4.1191,-4.1191,-4.1191,-4.1191,-4.1191,-4.1191,-4.1191,-4.1191,-4.1191,-3.5266,-3.5458,-3.5783,-3.6588,0.0,0.0,-3.9111,0.0,0.0,0.0,0.0,0.0,0.0,-4.0735,0.0,-4.0971,-4.1111,-4.1191,-4.1191,-4.1191,-4.1191,-4.1191,-4.1191,-4.1191,-4.1191,-4.1191,-4.1191,-4.1191,-4.1191,-4.1191,-4.1191,-4.1191,-4.1191,-4.1191,-4.1191,-4.1191,-4.1191,-4.1191,-4.1191,-4.1191,-4.1102,-4.1051,-4.1049,-4.0911,-4.0854,-4.0847,-4.0752,-4.0713,-4.0692,-4.0582,-4.0534,-4.0496,-4.0496,-4.0631,-4.0843,-4.1035,-4.1112,-4.1208,-4.1873,-4.2104,-4.222,-4.2874,-4.3104,-4.3104,-4.3104,-4.3104,-4.3143,-4.3335,-4.2893,-4.2508,-4.2989,-4.3104,-4.3104,-4.3104,-4.3104,-4.2912,-4.2258,-4.2104,-4.1912,-4.1247,-4.1112,-4.1051,-4.0884,-4.0853,-4.0821,-4.0751,-4.071,-4.0742,-4.0839,-4.0854,-4.0905,-4.1026,-4.1051,-4.1082,-4.1191,-4.1191,-4.1191,-4.1191,-4.1191,-4.1191,-4.1191,-4.1191,-4.1191,-4.1191,-4.1191,-4.1191,-4.1191,-4.1191,-4.1191,-4.1191,-4.1191,-4.1191,-3.4744,-3.5311,-3.6056,-3.6871,0.0,0.0,-3.9111,0.0,0.0,0.0,0.0,0.0,0.0,-4.0851,-4.0978,-4.1005,-4.1108,-4.1191,-4.1191,-4.1191,-4.1191,-4.1191,-4.1191,-4.1191,-4.1191,-4.1191,-4.1191,-4.1191,-4.1191,-4.1191,-4.1191,-4.1191,-4.1191,-4.1191,-4.1191,-4.1191,-4.1191,-4.1191,-4.1191,-4.1191,-4.1191,-4.1191,-4.1171,-4.1051,-4.099,-4.0986,-4.085,-4.0762,-4.0697,-4.0686,-4.061,-4.0496,-4.0496,-4.0989,-4.1797,-4.2604,-4.2912,-4.2912,-4.2989,-4.3008,-4.3028,-4.3085,-4.3104,-4.3104,-4.3104,-4.3104,-4.3258,-4.3989,-4.4162,-4.3951,-4.3278,-4.3104,-4.3104,-4.3104,-4.3104,-4.3085,-4.3028,-4.3008,-4.2989,-4.2931,-4.2912,-4.2707,-4.2009,-4.1899,-4.1643,-4.0904,-4.0785,-4.0843,-4.0962,-4.099,-4.1048,-4.1171,-4.1191,-4.1191,-4.1191,-4.1191,-4.1191,-4.1191,-4.1191,-4.1191,-4.1191,-4.1191,-4.1191,-4.1191,-4.1191,-4.1191,-4.1191,-4.1191,-4.1191,-4.1191,-4.1191,-4.1191,-3.5254,-3.5797,-3.6425,-3.7557,0.0,0.0,0.0,0.0,0.0,0.0,0.0,0.0,0.0,0.0,-4.0996,-4.0996,-4.1105,-4.1191,-4.1191,-4.1191,-4.1191,-4.1191,-4.1191,-4.1191,-4.1191,-4.1191,-4.1191,-4.1191,-4.1191,-4.1191,-4.1191,-4.1191,-4.1191,-4.1191,-4.1191,-4.1191,-4.1191,-4.1191,-4.1191,-4.1191,-4.1191,-4.1191,-4.1191,-4.1149,-4.1127,-4.1126,-4.0988,-4.1217,-4.1691,-4.1609,-4.1864,-4.2302,-4.2215,-4.2428,-4.2815,-4.3073,-4.3202,-4.3358,-4.3808,-4.4034,-4.4166,-4.4632,-4.4808,-4.4837,-4.4837,-4.4837,-4.4896,-4.5206,-4.5277,-4.5196,-4.4776,-4.4643,-4.4643,-4.4643,-4.4643,-4.4509,-4.3951,-4.391,-4.3805,-4.3264,-4.3221,-4.3192,-4.2913,-4.2864,-4.2613,-4.185,-4.1724,-4.159,-4.1182,-4.1127,-4.1149,-4.1191,-4.1191,-4.1191,-4.1191,-4.1191,-4.1191,-4.1191,-4.1191,-4.1191,-4.1191,-4.1191,-4.1191,-4.1191,-4.1191,-4.1191,-4.1191,-4.1191,-4.1191,-4.1191,-4.1191,-4.1191,-3.5567,-3.6289,0.0,0.0,0.0,0.0,0.0,0.0,0.0,0.0,0.0,0.0,0.0,0.0,0.0,0.0,-4.1105,-4.1191,-4.1191,-4.1191,-4.1191,-4.1191,-4.1191,-4.1191,-4.1191,-4.1191,-4.1191,-4.1191,-4.1191,-4.1191,-4.1191,-4.1191,-4.1191,-4.1191,-4.1191,-4.1191,-4.1191,-4.1191,-4.1328,-4.1582,-4.1582,-4.1445,-4.1211,-4.1465,-4.1582,-4.1582,-4.1768,-4.2183,-4.2694,-4.261,-4.2905,-4.3416,-4.3597,-4.3739,-4.3821,-4.3986,-4.4108,-4.4264,-4.4771,-4.4997,-4.5151,-4.5659,-4.5866,-4.5899,-4.5899,-4.5899,-4.5899,-4.5899,-4.5899,-4.5862,-4.5724,-4.5699,-4.5699,-4.5699,-4.5699,-4.5525,-4.4926,-4.4873,-4.4777,-4.4176,-4.4122,-4.4114,-4.389,-4.3835,-4.359,-4.2848,-4.2737,-4.2451,-4.1679,-4.1582,-4.1484,-4.123,-4.1191,-4.1191,-4.1191,-4.1191,-4.1191,-4.1191,-4.1191,-4.1191,-4.1191,-4.1191,-4.1191,-4.1191,-4.1191,-4.1191,-4.1191,-4.1191,-4.1191,-4.1191,-4.115,-4.1148,-3.5515,-3.6677,0.0,0.0,0.0,0.0,0.0,0.0,0.0,0.0,0.0,-4.0556,-4.0755,-4.0797,0.0,-4.0986,-4.1105,-4.1191,-4.1191,-4.1191,-4.1191,-4.1191,-4.1191,-4.1191,-4.1191,-4.1191,-4.1191,-4.1191,-4.1191,-4.1191,-4.1191,-4.1191,-4.1191,-4.1191,-4.1211,-4.1211,-4.1211,-4.1211,-4.1621,-4.2402,-4.2402,-4.1992,-4.125,-4.2051,-4.2402,-4.2461,-4.332,-4.3667,-4.3617,-4.3617,-4.3543,-4.3506,-4.4374,-4.4705,-4.4802,-4.5611,-4.5903,-4.5903,-4.5903,-4.5903,-4.5903,-4.5903,-4.5903,-4.5903,-4.5903,-4.5903,-4.5903,-4.5903,-4.5903,-4.5903,-4.5903,-4.5903,-4.5903,-4.5899,-4.5899,-4.5899,-4.5899,-4.5903,-4.5903,-4.5903,-4.5903,-4.5663,-4.4946,-4.4818,-4.4564,-4.3828,-4.3711,-4.3398,-4.2519,-4.2402,-4.209,-4.1289,-4.1191,-4.1191,-4.1191,-4.1191,-4.1191,-4.1191,-4.1191,-4.1191,-4.1191,-4.1191,-4.1191,-4.1191,-4.1191,-4.1191,-4.1191,-4.1191,-4.1191,-4.1191,-4.1055,-4.0994,-3.5896,0.0,0.0,0.0,0.0,0.0,0.0,0.0,0.0,0.0,0.0,-4.0515,-4.0584,-4.0703,0.0,-4.0857,-4.1052,-4.1191,-4.1191,-4.1191,-4.1191,-4.1191,-4.1191,-4.1191,-4.1191,-4.1191,-4.1191,-4.1191,-4.1191,-4.1191,-4.1191,-4.1191,-4.1191,-4.1191,-4.1758,-4.2031,-4.2031,-4.2656,-4.3086,-4.3301,-4.3301,-4.3183,-4.2969,-4.3203,-4.3301,-4.332,-4.3594,-4.4042,-4.4626,-4.5251,-4.5482,-4.5454,-4.5614,-4.574,-4.5842,-4.5982,-4.6108,-4.6173,-4.6077,-4.6091,-4.6171,-4.6077,-4.6091,-4.6175,-4.6175,-4.6175,-4.6175,-4.6175,-4.6175,-4.6175,-4.6175,-4.6175,-4.6122,-4.5936,-4.5899,-4.5899,-4.5899,-4.5978,-4.6039,-4.6039,-4.6117,-4.6101,-4.5894,-4.5855,-4.5564,-4.4746,-4.4609,-4.4082,-4.2598,-4.2402,-4.209,-4.1289,-4.1191,-4.1191,-4.1191,-4.1191,-4.1191,-4.1191,-4.1191,-4.1191,-4.1191,-4.1191,-4.1191,-4.1191,-4.1191,-4.115,-4.1055,-4.1055,-4.1019,-4.0917,-4.0874,-4.086,-3.7019,0.0,0.0,0.0,0.0,0.0,0.0,0.0,0.0,0.0,0.0,-4.0519,-4.0574,-4.0707,-4.0813,-4.087,-4.1055,-4.1191,-4.1191,-4.1191,-4.1191,-4.1191,-4.1191,-4.1191,-4.1191,-4.1191,-4.1191,-4.1191,-4.1504,-4.168,-4.168,-4.2012,-4.2187,-4.2187,-4.2656,-4.293,-4.293,-4.3437,-4.3867,-4.4219,-4.4219,-4.4394,-4.4726,-4.4375,-4.4219,-4.4238,-4.457,-4.5039,-4.5566,-4.6074,-4.6308,-4.6289,-4.6202,-4.6225,-4.6289,-4.6202,-4.6225,-4.6289,-4.6202,-4.6226,-4.6289,-4.6201,-4.6226,-4.6308,-4.6308,-4.6308,-4.6308,-4.6308,-4.6308,-4.6308,-4.6308,-4.6308,-4.6268,-4.6108,-4.6069,-4.6069,-4.6069,-4.6119,-4.6175,-4.6175,-4.6247,-4.6308,-4.6308,-4.6308,-4.6113,-4.5605,-4.5215,-4.4629,-4.3574,-4.3125,-4.2598,-4.1777,-4.168,-4.1543,-4.123,-4.1191,-4.1191,-4.1191,-4.1191,-4.1171,-4.1127,-4.1126,-4.1126,-4.1126,-4.1077,-4.0996,-4.092,-4.092,-4.0874,-4.0797,-4.077,-4.0767,0.0,0.0,0.0,0.0,0.0,0.0,0.0,0.0,0.0,0.0,0.0,-4.0549,-4.0649,-4.0752,-4.0847,-4.0959,-4.1104,-4.1191,-4.1191,-4.1191,-4.1191,-4.1191,-4.1191,-4.123,-4.1308,-4.1308,-4.1348,-4.1426,-4.2109,-4.2519,-4.2519,-4.3262,-4.3691,-4.3691,-4.3789,-4.3828,-4.3828,-4.3906,-4.4336,-4.5117,-4.5117,-4.5527,-4.6269,-4.5488,-4.5117,-4.5156,-4.5957,-4.6308,-4.6308,-4.6308,-4.6308,-4.6308,-4.6308,-4.6308,-4.6308,-4.6308,-4.6308,-4.6308,-4.6308,-4.6308,-4.6308,-4.6308,-4.6308,-4.6308,-4.6308,-4.6308,-4.6308,-4.6308,-4.6308,-4.6308,-4.6308,-4.6308,-4.6308,-4.6308,-4.6308,-4.6308,-4.6308,-4.6308,-4.6308,-4.6308,-4.6308,-4.6308,-4.6308,-4.6308,-4.6308,-4.6308,-4.5625,-4.5098,-4.5019,-4.4316,-4.3476,-4.2617,-4.2519,-4.2187,-4.1387,-4.1308,-4.1289,-4.1191,-4.1191,-4.1127,-4.1017,-4.0996,-4.0994,-4.0988,-4.0864,-4.0793,-4.0785,-4.0785,-4.0777,-4.0768,-4.0704,-4.068,0.0,0.0,0.0,0.0,0.0,0.0,0.0,0.0,0.0,0.0,-4.0356,-4.0512,-4.053,-4.069,-4.0805,-4.0847,-4.1031,-4.1191,-4.1191,-4.1191,-4.1191,-4.1191,-4.1191,-4.1445,-4.207,-4.2148,-4.2422,-4.3105,-4.332,-4.3418,-4.3418,-4.3594,-4.3691,-4.3691,-4.4355,-4.4726,-4.4726,-4.5391,-4.582,-4.6016,-4.6016,-4.6113,-4.6289,-4.6113,-4.6016,-4.6035,-4.6211,-4.6308,-4.6308,-4.6308,-4.6308,-4.6308,-4.6308,-4.6308,-4.6308,-4.6308,-4.6308,-4.6308,-4.6308,-4.6308,-4.6308,-4.6308,-4.6308,-4.6308,-4.6308,-4.6308,-4.6308,-4.6308,-4.6308,-4.6308,-4.6308,-4.6308,-4.6308,-4.6308,-4.6308,-4.6308,-4.6308,-4.6308,-4.6308,-4.6308,-4.6308,-4.6308,-4.6308,-4.6308,-4.6308,-4.6308,-4.6133,-4.5762,-4.5098,-4.4844,-4.4394,-4.3516,-4.3418,-4.3066,-4.2207,-4.2148,-4.1875,-4.123,-4.1103,-4.1026,-4.0996,-4.0996,-4.0955,-4.085,-4.0809,-4.0775,-4.0729,-4.0729,-4.0666,-4.0563,-4.0559,-4.0537,0.0,0.0,0.0,0.0,0.0,0.0,0.0,0.0,0.0,-4.0321,-4.0397,-4.0496,-4.0496,-4.0642,-4.0752,-4.0752,-4.0893,-4.1017,-4.1017,-4.1056,-4.1261,-4.1671,-4.1756,-4.2089,-4.2901,-4.2978,-4.3147,-4.3535,-4.3942,-4.4177,-4.4177,-4.4549,-4.4745,-4.4745,-4.5193,-4.5428,-4.5428,-4.5878,-4.6113,-4.6113,-4.6113,-4.6113,-4.6115,-4.6246,-4.6308,-4.6308,-4.6308,-4.6308,-4.6308,-4.6308,-4.6308,-4.6308,-4.6308,-4.6308,-4.6308,-4.6308,-4.6308,-4.6308,-4.6308,-4.6308,-4.6308,-4.6308,-4.6308,-4.6308,-4.6308,-4.6308,-4.6308,-4.6308,-4.6308,-4.6308,-4.6308,-4.6308,-4.6308,-4.6308,-4.6308,-4.6308,-4.6308,-4.6308,-4.6308,-4.6308,-4.6308,-4.6308,-4.6308,-4.6308,-4.6308,-4.6308,-4.6308,-4.6133,-4.5683,-4.5625,-4.5293,-4.4414,-4.4316,-4.3965,-4.3105,-4.3027,-4.2656,-4.1789,-4.1654,-4.1381,-4.0887,-4.0863,-4.0816,-4.0752,-4.069,-4.0635,-4.0603,-4.0603,-4.0574,-4.0496,-4.0496,-4.0496,0.0,0.0,0.0,0.0,0.0,0.0,0.0,0.0,0.0,-4.0441,-4.0473,-4.0496,-4.0496,-4.061,-4.0697,-4.0697,-4.0762,-4.0856,-4.0992,-4.1117,-4.1505,-4.2386,-4.2539,-4.2895,-4.3712,-4.3785,-4.3796,-4.3828,-4.4509,-4.4902,-4.4902,-4.5549,-4.5899,-4.5899,-4.5899,-4.5899,-4.5899,-4.5899,-4.5899,-4.5899,-4.5899,-4.5899,-4.5907,-4.612,-4.6247,-4.6268,-4.6289,-4.6308,-4.6308,-4.6308,-4.6308,-4.6308,-4.6308,-4.6308,-4.6308,-4.6308,-4.6308,-4.6308,-4.6308,-4.6308,-4.6308,-4.6308,-4.6308,-4.6308,-4.6308,-4.6308,-4.6308,-4.6308,-4.6308,-4.6308,-4.6308,-4.6308,-4.6308,-4.6308,-4.6308,-4.6308,-4.6308,-4.6308,-4.6308,-4.6308,-4.6308,-4.6308,-4.6308,-4.6308,-4.6308,-4.6308,-4.6308,-4.6308,-4.6308,-4.6308,-4.6016,-4.5293,-4.5215,-4.4863,-4.4004,-4.3906,-4.3509,-4.258,-4.2481,-4.1992,-4.0961,-4.09,-4.081,-4.0674,-4.0559,-4.0496,-4.0496,-4.0496,-4.0496,-4.0496,-4.0496,-4.0496,0.0,0.0,0.0,0.0,0.0,0.0,0.0,0.0,0.0,0.0,-4.0339,-4.0496,-4.0496,-4.061,-4.0697,-4.0697,-4.0762,-4.107,-4.1824,-4.1934,-4.2272,-4.3144,-4.3253,-4.3607,-4.4476,-4.4549,-4.4837,-4.5529,-4.5665,-4.5743,-4.5743,-4.584,-4.5899,-4.5899,-4.5899,-4.5899,-4.5899,-4.5899,-4.5899,-4.5899,-4.5899,-4.5899,-4.5903,-4.5932,-4.6027,-4.6122,-4.6247,-4.6308,-4.6308,-4.6308,-4.6308,-4.6308,-4.6308,-4.6308,-4.6308,-4.6308,-4.6308,-4.6308,-4.6308,-4.6308,-4.6308,-4.6308,-4.6308,-4.6308,-4.6308,-4.6308,-4.6308,-4.6308,-4.6308,-4.6308,-4.6308,-4.6308,-4.6308,-4.6308,-4.6308,-4.6308,-4.6308,-4.6308,-4.6308,-4.6308,-4.6308,-4.6308,-4.6308,-4.6308,-4.6308,-4.6308,-4.6308,-4.6308,-4.6308,-4.6308,-4.6269,-4.6133,-4.6133,-4.5762,-4.4902,-4.4714,-4.43,-4.3472,-4.3208,-4.2695,-4.1859,-4.1714,-4.1297,-4.0534,-4.0512,-4.0496,-4.0496,-4.0496,-4.0496,-4.0496,-4.0496,-4.0496,0.0,0.0,0.0,0.0,0.0,0.0,0.0,0.0,-3.9819,-3.9819,-4.0053,-4.033,-4.0473,-4.0545,-4.0749,-4.1251,-4.1332,-4.1654,-4.2538,-4.2695,-4.3036,-4.3915,-4.4079,-4.4443,-4.5246,-4.5318,-4.5439,-4.5718,-4.5731,-4.5731,-4.5731,-4.5731,-4.5731,-4.5731,-4.5731,-4.5731,-4.5731,-4.5731,-4.5731,-4.5731,-4.5731,-4.5731,-4.5731,-4.5807,-4.5906,-4.5992,-4.6045,-4.6117,-4.6198,-4.6198,-4.6226,-4.6308,-4.6308,-4.6308,-4.6308,-4.6308,-4.6308,-4.6308,-4.6308,-4.6308,-4.6308,-4.6308,-4.6308,-4.6308,-4.6308,-4.6308,-4.6308,-4.6308,-4.6308,-4.6308,-4.6308,-4.6308,-4.6308,-4.6308,-4.6308,-4.6308,-4.6308,-4.6308,-4.6308,-4.6308,-4.6308,-4.6308,-4.6308,-4.6308,-4.6308,-4.6308,-4.6308,-4.6308,-4.6308,-4.6308,-4.6268,-4.6199,-4.6198,-4.5994,-4.5533,-4.5442,-4.5048,-4.4165,-4.3995,-4.3524,-4.264,-4.2556,-4.2354,-4.195,-4.0997,-4.0496,-4.0496,-4.0496,-4.0496,-4.0496,-4.0496,-4.0496,0.0,0.0,0.0,0.0,0.0,0.0,0.0,0.0,-3.9462,0.0,-3.9742,-4.0119,-4.0605,-4.0765,-4.1046,-4.1692,-4.1981,-4.2431,-4.3278,-4.3443,-4.3807,-4.4684,-4.4872,-4.5148,-4.5703,-4.5747,-4.5708,-4.5603,-4.5594,-4.5594,-4.5594,-4.5594,-4.5594,-4.5594,-4.5594,-4.5594,-4.5594,-4.5594,-4.5594,-4.5594,-4.5594,-4.5594,-4.5594,-4.57,-4.5783,-4.5825,-4.5872,-4.5967,-4.6045,-4.6045,-4.6113,-4.6201,-4.6245,-4.6247,-4.6248,-4.6289,-4.6308,-4.6308,-4.6308,-4.6308,-4.6308,-4.6308,-4.6308,-4.6308,-4.6308,-4.6308,-4.6308,-4.6308,-4.6308,-4.6308,-4.6308,-4.6308,-4.6308,-4.6308,-4.6308,-4.6308,-4.6308,-4.6308,-4.6308,-4.6308,-4.6308,-4.6308,-4.6308,-4.6308,-4.6308,-4.6308,-4.6308,-4.6289,-4.6248,-4.6247,-4.62,-4.6053,-4.6045,-4.6001,-4.5907,-4.5872,-4.5578,-4.486,-4.4795,-4.4375,-4.344,-4.3393,-4.3316,-4.3104,-4.1816,-4.1054,-4.0843,-4.0612,-4.0496,-4.0496,-4.0496,-4.0496,0.0,0.0,0.0,0.0,0.0,0.0,0.0,0.0,-3.9139,-3.9139,-3.9389,-3.997,-4.1053,-4.1519,-4.175,-4.1788,-4.2489,-4.3316,-4.4124,-4.4229,-4.4564,-4.5439,-4.5543,-4.5563,-4.5612,-4.5612,-4.5603,-4.5594,-4.5594,-4.5594,-4.5594,-4.5594,-4.5594,-4.5594,-4.5594,-4.5594,-4.5594,-4.5594,-4.5594,-4.5594,-4.5594,-4.5594,-4.5594,-4.5603,-4.562,-4.5635,-4.5809,-4.5903,-4.5907,-4.5907,-4.5912,-4.5928,-4.605,-4.6113,-4.6138,-4.6248,-4.6308,-4.6308,-4.6308,-4.6308,-4.6308,-4.6308,-4.6308,-4.6308,-4.6308,-4.6308,-4.6308,-4.6308,-4.6308,-4.6308,-4.6308,-4.6308,-4.6308,-4.6308,-4.6308,-4.6308,-4.6308,-4.6308,-4.6308,-4.6308,-4.6308,-4.6308,-4.6308,-4.6308,-4.6308,-4.6308,-4.6308,-4.6248,-4.614,-4.6113,-4.605,-4.592,-4.5907,-4.5907,-4.5899,-4.5842,-4.577,-4.5745,-4.5611,-4.5141,-4.4259,-4.4239,-4.3874,-4.3104,-4.3008,-4.2566,-4.1731,-4.0893,-4.0496,-4.0496,-4.0496,-4.0496,0.0,0.0,0.0,0.0,0.0,0.0,0.0,-3.8538,-3.8992,-3.9508,-3.9849,-4.0338,-4.1311,-4.1497,-4.1903,-4.3195,-4.3662,-4.4162,-4.5017,-4.5133,-4.5248,-4.5556,-4.5594,-4.5594,-4.5594,-4.5594,-4.5594,-4.5594,-4.5594,-4.5594,-4.5594,-4.5594,-4.5594,-4.5594,-4.5594,-4.5594,-4.5594,-4.5594,-4.5594,-4.5594,-4.5594,-4.5594,-4.5594,-4.5594,-4.5594,-4.5603,-4.5681,-4.5751,-4.585,-4.585,-4.5866,-4.5903,-4.5944,-4.5978,-4.5988,-4.6119,-4.6174,-4.6177,-4.6268,-4.6308,-4.6308,-4.6308,-4.6308,-4.6308,-4.6308,-4.6308,-4.6308,-4.6308,-4.6308,-4.6308,-4.6308,-4.6308,-4.6308,-4.6308,-4.6226,-4.6174,-4.6174,-4.6246,-4.6308,-4.6308,-4.6308,-4.6308,-4.6308,-4.6225,-4.6174,-4.6174,-4.6108,-4.603,-4.5981,-4.5978,-4.5935,-4.5847,-4.585,-4.5808,-4.5715,-4.5692,-4.5673,-4.5673,-4.5637,-4.546,-4.5152,-4.5133,-4.4998,-4.471,-4.4162,-4.3451,-4.2624,-4.1758,-4.1335,-4.1316,-4.0766,-4.0496,0.0,0.0,0.0,0.0,0.0,0.0,0.0,0.0,-3.8847,-4.0054,-4.0434,-4.0863,-4.1827,-4.1895,-4.2305,-4.3877,-4.4475,-4.494,-4.5518,-4.5594,-4.5594,-4.5594,-4.5594,-4.5594,-4.5594,-4.5594,-4.5594,-4.5594,-4.5594,-4.5594,-4.5594,-4.5594,-4.5594,-4.5594,-4.5594,-4.5594,-4.5594,-4.5594,-4.5594,-4.5594,-4.5594,-4.5594,-4.5594,-4.5594,-4.5594,-4.5594,-4.5594,-4.566,-4.5725,-4.5725,-4.5764,-4.5805,-4.5855,-4.5876,-4.5872,-4.5985,-4.6036,-4.6042,-4.6122,-4.6171,-4.6171,-4.6171,-4.6171,-4.6171,-4.6171,-4.6171,-4.6171,-4.6171,-4.6171,-4.6171,-4.6171,-4.6171,-4.6171,-4.6171,-4.6108,-4.6036,-4.6036,-4.6144,-4.6223,-4.6174,-4.6171,-4.6171,-4.6171,-4.6087,-4.6036,-4.6036,-4.5967,-4.5885,-4.5862,-4.5876,-4.5822,-4.5747,-4.5725,-4.5692,-4.5603,-4.5594,-4.5594,-4.5594,-4.5594,-4.5594,-4.5594,-4.5594,-4.5594,-4.5594,-4.5037,-4.4416,-4.377,-4.2736,-4.2239,-4.222,-4.1643,-4.1168,0.0,0.0,0.0,0.0,0.0,0.0,-3.7456,0.0,-3.8684,-4.0676,-4.1081,-4.1464,-4.2601,-4.282,-4.3043,-4.3707,-4.4806,-4.5568,-4.5568,-4.5577,-4.5586,-4.5586,-4.5586,-4.5594,-4.5594,-4.5594,-4.5594,-4.5594,-4.5594,-4.5594,-4.5594,-4.5594,-4.5594,-4.5594,-4.5594,-4.5594,-4.5594,-4.5594,-4.5594,-4.5594,-4.5594,-4.5594,-4.5594,-4.5594,-4.5594,-4.5594,-4.5594,-4.5594,-4.5594,-4.5594,-4.5594,-4.5612,-4.574,-4.579,-4.5796,-4.5867,-4.5894,-4.5894,-4.5899,-4.5899,-4.5899,-4.5899,-4.5899,-4.5899,-4.5899,-4.5899,-4.5899,-4.5899,-4.5899,-4.5899,-4.5899,-4.5899,-4.5894,-4.5899,-4.5899,-4.5894,-4.5894,-4.5995,-4.6045,-4.592,-4.5899,-4.5899,-4.5899,-4.5899,-4.5894,-4.5894,-4.589,-4.5867,-4.5796,-4.579,-4.574,-4.562,-4.5594,-4.5594,-4.5594,-4.5594,-4.5594,-4.5594,-4.5594,-4.5594,-4.5594,-4.5594,-4.5605,-4.5586,-4.5586,-4.5419,-4.5085,-4.3761,-4.3126,-4.3107,-4.3088,-4.2428,-3.3469,0.0,0.0,0.0,0.0,0.0,-3.5907,0.0,-3.8632,-4.0194,-4.0941,-4.1722,-4.3065,-4.35,-4.3737,-4.3919,-4.4474,-4.4884,-4.4884,-4.5085,-4.5232,-4.5232,-4.5448,-4.5594,-4.5594,-4.5594,-4.5594,-4.5594,-4.5594,-4.5594,-4.5594,-4.5594,-4.5594,-4.5594,-4.5594,-4.5594,-4.5594,-4.5594,-4.5594,-4.5594,-4.5594,-4.5594,-4.5594,-4.5594,-4.5594,-4.5594,-4.5594,-4.5594,-4.5594,-4.5594,-4.5594,-4.5603,-4.5643,-4.5668,-4.5673,-4.579,-4.5832,-4.5825,-4.5891,-4.5899,-4.5899,-4.5899,-4.5899,-4.5899,-4.5899,-4.5899,-4.5899,-4.5899,-4.5899,-4.5899,-4.5899,-4.5852,-4.5836,-4.59,-4.5871,-4.5832,-4.5832,-4.5861,-4.589,-4.5909,-4.5899,-4.5899,-4.5899,-4.5861,-4.5832,-4.5832,-4.5743,-4.5673,-4.5657,-4.5668,-4.5643,-4.5603,-4.5594,-4.5594,-4.5594,-4.5594,-4.5594,-4.5594,-4.5594,-4.5594,-4.5594,-4.5594,-4.5495,-4.5243,-4.5232,-4.5074,-4.4751,-4.3977,-4.3484,-4.3217,-4.2599,-4.2136,0.0,0.0,0.0,0.0,0.0,0.0,-3.6324,-3.7516,-3.8936,-4.1191,-4.1976,-4.2541,-4.3353,-4.3662,-4.3788,-4.3788,-4.3989,-4.4256,-4.4553,-4.4776,-4.4896,-4.4896,-4.5055,-4.5182,-4.5182,-4.5182,-4.5182,-4.5182,-4.5182,-4.5182,-4.5182,-4.5182,-4.5182,-4.5182,-4.5182,-4.5182,-4.5182,-4.5182,-4.5182,-4.5182,-4.5182,-4.5182,-4.5182,-4.5332,-4.54,-4.54,-4.555,-4.5594,-4.5594,-4.5594,-4.5594,-4.5594,-4.5594,-4.5594,-4.5612,-4.5696,-4.5723,-4.5718,-4.577,-4.5763,-4.5763,-4.5763,-4.5763,-4.5763,-4.5763,-4.5763,-4.5763,-4.5763,-4.5763,-4.5763,-4.5763,-4.575,-4.5733,-4.5777,-4.5743,-4.5723,-4.5723,-4.5723,-4.574,-4.5764,-4.5763,-4.5763,-4.5763,-4.5736,-4.5723,-4.5723,-4.566,-4.5594,-4.5594,-4.5594,-4.5594,-4.5594,-4.5594,-4.5594,-4.5594,-4.5594,-4.5594,-4.5594,-4.5594,-4.555,-4.54,-4.54,-4.5232,-4.4896,-4.4896,-4.472,-4.4346,-4.4196,-4.4018,-4.3812,-4.2808,-4.2334,0.0,0.0,0.0,0.0,-3.3544,0.0,-3.738,-3.8186,-3.9149,-4.2218,-4.2905,-4.2996,-4.3051,-4.3051,-4.3051,-4.3051,-4.3177,-4.3574,-4.4346,-4.4514,-4.4527,-4.4527,-4.4567,-4.4593,-4.4593,-4.4593,-4.4593,-4.4593,-4.4593,-4.4593,-4.4593,-4.4593,-4.4593,-4.4593,-4.4593,-4.4593,-4.4593,-4.4593,-4.4593,-4.4593,-4.4593,-4.4593,-4.4606,-4.4908,-4.5052,-4.5063,-4.5352,-4.5495,-4.5495,-4.5495,-4.5522,-4.5594,-4.5594,-4.5594,-4.5594,-4.5594,-4.5594,-4.5594,-4.5594,-4.5594,-4.5594,-4.5594,-4.5594,-4.5594,-4.5594,-4.5594,-4.5594,-4.5594,-4.5594,-4.5594,-4.5594,-4.5594,-4.5594,-4.5594,-4.5594,-4.5594,-4.5594,-4.5594,-4.5594,-4.5594,-4.5594,-4.5594,-4.5594,-4.5594,-4.5594,-4.5594,-4.5594,-4.5594,-4.5594,-4.5594,-4.5594,-4.5594,-4.5594,-4.5594,-4.5594,-4.5568,-4.5531,-4.5531,-4.5513,-4.5352,-4.5063,-4.5052,-4.4884,-4.454,-4.4501,-4.4308,-4.394,-4.4308,-4.4474,-4.4455,-4.337,-4.2873,0.0,0.0,-3.3499,-3.3499,-3.3919,0.0,-3.5125,-3.6141,-3.7278,-3.8443,-3.9142,-3.9712,-4.0191,-4.0284,-4.0284,-4.0284,-4.1182,-4.2308,-4.354,-4.3943,-4.4117,-4.4117,-4.4387,-4.4593,-4.4593,-4.4593,-4.4593,-4.4593,-4.4593,-4.4593,-4.4593,-4.4593,-4.4593,-4.4593,-4.4593,-4.4593,-4.4593,-4.4593,-4.4593,-4.4593,-4.4593,-4.4593,-4.4593,-4.4657,-4.4714,-4.4695,-4.4757,-4.4812,-4.4812,-4.4812,-4.5118,-4.5594,-4.5594,-4.5594,-4.5594,-4.5594,-4.5594,-4.5594,-4.5594,-4.5594,-4.5594,-4.5594,-4.5594,-4.5594,-4.5594,-4.5594,-4.5594,-4.5594,-4.5594,-4.5594,-4.5594,-4.5594,-4.5594,-4.5594,-4.5594,-4.5594,-4.5594,-4.5594,-4.5594,-4.5594,-4.5594,-4.5594,-4.5594,-4.5594,-4.5594,-4.5594,-4.5594,-4.5594,-4.5594,-4.5594,-4.5594,-4.5594,-4.5594,-4.5594,-4.5594,-4.5352,-4.5201,-4.5201,-4.4943,-4.4776,-4.4695,-4.4714,-4.4508,-4.4117,-4.3852,-4.3679,-4.3597,-4.3679,-4.3712,-4.3712,-4.3463,-4.3358,-3.425,-3.4502,-3.4502,-3.4502,-3.4741,0.0,0.0,-3.6529,-3.7322,-3.8303,-3.8778,-3.9142,-3.9446,-3.9495,-3.9495,-3.9495,-4.0642,-4.1635,-4.1991,-4.3031,-4.3758,-4.3758,-4.3931,-4.405,-4.405,-4.405,-4.405,-4.405,-4.405,-4.405,-4.405,-4.405,-4.405,-4.405,-4.405,-4.405,-4.405,-4.405,-4.405,-4.405,-4.405,-4.405,-4.405,-4.4223,-4.429,-4.4304,-4.4514,-4.4593,-4.4593,-4.4593,-4.4793,-4.5107,-4.5107,-4.5192,-4.5342,-4.5342,-4.5467,-4.5594,-4.5594,-4.5594,-4.5594,-4.5594,-4.5594,-4.5594,-4.5594,-4.5594,-4.5594,-4.5594,-4.5594,-4.5594,-4.5594,-4.5594,-4.5594,-4.5594,-4.5594,-4.5594,-4.5594,-4.5594,-4.5594,-4.5594,-4.5594,-4.5594,-4.5594,-4.5594,-4.5594,-4.5594,-4.5594,-4.5594,-4.5594,-4.5594,-4.5594,-4.5594,-4.5448,-4.5342,-4.5342,-4.5033,-4.4849,-4.4849,-4.4682,-4.4514,-4.4304,-4.429,-4.4136,-4.3775,-4.358,-4.3515,-4.3515,-4.3515,-4.3515,-4.3515,-4.3515,-4.3515,-3.4658,-3.492,-3.492,-3.492,-3.492,-3.524,0.0,0.0,0.0,-3.7959,-3.8327,-3.844,-3.844,-3.8596,-3.8685,-3.8562,-3.9761,-4.0498,-3.9887,-4.1502,-4.2849,-4.3142,-4.3356,-4.3444,-4.3357,-4.3357,-4.3392,-4.3479,-4.341,-4.3392,-4.3479,-4.3515,-4.3515,-4.3515,-4.3515,-4.3515,-4.3515,-4.3515,-4.3515,-4.3515,-4.3515,-4.3515,-4.3515,-4.3772,-4.3893,-4.3909,-4.4252,-4.4392,-4.4392,-4.4392,-4.4392,-4.4406,-4.454,-4.4776,-4.4988,-4.4988,-4.5222,-4.5504,-4.5504,-4.555,-4.5594,-4.5594,-4.5594,-4.5594,-4.5594,-4.5594,-4.5594,-4.5594,-4.5594,-4.5594,-4.5594,-4.5594,-4.5594,-4.5594,-4.5594,-4.5594,-4.5594,-4.5594,-4.5577,-4.5513,-4.5504,-4.5522,-4.5586,-4.5594,-4.5577,-4.5513,-4.5504,-4.5485,-4.5419,-4.541,-4.541,-4.541,-4.518,-4.4988,-4.4988,-4.4682,-4.4487,-4.4487,-4.4419,-4.4237,-4.3927,-4.3893,-4.3772,-4.3515,-4.3515,-4.3444,-4.3357,-4.3357,-4.3357,-4.3357,-4.3357,-4.3357,-3.2678,-3.2925,-3.2925,-3.2925,-3.2925,-3.2982,-3.3101,0.0,-3.3212,-3.3362,0.0,-3.4633,-3.4633,0.0,0.0,-3.5171,-3.6677,-3.7723,-3.7053,-3.8706,-4.0464,-4.1842,-4.2866,-4.3303,-4.2845,-4.2788,-4.2976,-4.3462,-4.305,-4.2995,-4.3462,-4.3515,-4.3515,-4.3515,-4.3515,-4.3515,-4.3515,-4.3515,-4.3515,-4.3515,-4.3515,-4.3515,-4.3515,-4.3548,-4.3565,-4.3565,-4.3597,-4.3631,-4.3631,-4.3631,-4.3631,-4.3679,-4.4337,-4.4618,-4.4644,-4.4644,-4.4872,-4.5169,-4.5169,-4.5342,-4.5594,-4.5594,-4.5594,-4.5594,-4.5594,-4.5594,-4.5594,-4.5594,-4.5594,-4.5594,-4.5594,-4.5594,-4.5594,-4.5594,-4.5594,-4.5594,-4.5594,-4.5594,-4.5513,-4.5211,-4.5169,-4.5243,-4.5559,-4.5594,-4.5504,-4.5201,-4.5169,-4.5052,-4.4745,-4.4707,-4.4707,-4.4707,-4.467,-4.4644,-4.4644,-4.4308,-4.4058,-4.4058,-4.3788,-4.3597,-4.3565,-4.3565,-4.3548,-4.3515,-4.3515,-4.3268,-4.2788,-4.2788,-4.2788,-4.2788,-4.2788,-4.2788,-3.2357,-3.2593,-3.2593,-3.2593,-3.2593,-3.2593,-3.2593,-3.2593,-3.2593,-3.2593,0.0,0.0,0.0,0.0,0.0,0.0,-3.6457,-3.7281,-3.6654,-3.8268,-3.9727,-4.0382,-4.0892,-4.1261,-4.147,-4.147,-4.1774,-4.2465,-4.1875,-4.1795,-4.2465,-4.2865,-4.3032,-4.3032,-4.3339,-4.3515,-4.3515,-4.3515,-4.3515,-4.3515,-4.3515,-4.3515,-4.3515,-4.3515,-4.3515,-4.3515,-4.3515,-4.3515,-4.3515,-4.3515,-4.3515,-4.3531,-4.3839,-4.4095,-4.4247,-4.4247,-4.4482,-4.4812,-4.4812,-4.4908,-4.5044,-4.5243,-4.5438,-4.5594,-4.5594,-4.5594,-4.5594,-4.5594,-4.5594,-4.5594,-4.5594,-4.5594,-4.5594,-4.5594,-4.5448,-4.5312,-4.5312,-4.515,-4.4977,-4.4849,-4.4812,-4.4842,-4.5,-4.5022,-4.4977,-4.4837,-4.4812,-4.4763,-4.4606,-4.4593,-4.4593,-4.4593,-4.4392,-4.4247,-4.4247,-4.3912,-4.371,-4.371,-4.358,-4.3515,-4.3515,-4.3196,-4.3032,-4.3032,-4.2696,-4.2404,-4.2183,-4.2183,-4.2,-4.1664,-4.2,-4.2183,-3.1101,-3.1359,-3.1446,-3.1742,-3.1829,-3.1829,-3.1829,-3.1829,-3.1829,-3.1829,-3.2046,0.0,0.0,0.0,-3.3882,-3.4699,0.0,-3.6122,-3.6045,-3.7173,-3.8242,-3.8942,-3.9158,-3.9529,-4.0236,-4.0158,-4.0463,-4.1407,-4.081,-4.0787,-4.175,-4.2221,-4.246,-4.246,-4.2828,-4.3032,-4.3032,-4.3032,-4.3032,-4.3032,-4.3032,-4.3032,-4.3032,-4.3032,-4.3032,-4.3032,-4.3032,-4.3032,-4.3032,-4.3032,-4.3142,-4.3268,-4.3268,-4.3526,-4.3865,-4.3865,-4.4106,-4.4447,-4.4447,-4.4514,-4.4631,-4.4884,-4.5129,-4.5332,-4.5332,-4.5332,-4.5332,-4.5332,-4.5332,-4.5332,-4.5332,-4.5332,-4.5332,-4.5332,-4.514,-4.4954,-4.4954,-4.4757,-4.4567,-4.446,-4.4447,-4.4406,-4.4308,-4.446,-4.4553,-4.446,-4.4447,-4.4406,-4.4308,-4.4294,-4.4294,-4.4294,-4.405,-4.3865,-4.3865,-4.3629,-4.3427,-4.3286,-4.3142,-4.3032,-4.3032,-4.2656,-4.246,-4.246,-4.2021,-4.1707,-4.1556,-4.1556,-4.1246,-4.0703,-4.1268,-4.1556,-2.7964,-2.8243,-2.8493,-2.9599,-2.9908,-2.9908,-2.9908,-2.9908,-2.9908,-2.9908,-3.062,-3.1254,-3.1278,-3.2033,-3.2779,0.0,0.0,0.0,0.0,-3.435,-3.5103,-3.7571,-3.8302,-3.888,-3.9487,-3.902,-3.9218,-4.0545,-4.0127,-4.0405,-4.1729,-4.1832,-4.1832,-4.1832,-4.1853,-4.1835,-4.1835,-4.1835,-4.1835,-4.1835,-4.1835,-4.1835,-4.1835,-4.1835,-4.1835,-4.1835,-4.1835,-4.1835,-4.1835,-4.1835,-4.2203,-4.2731,-4.2731,-4.305,-4.3513,-4.3513,-4.3726,-4.4031,-4.4031,-4.4261,-4.4593,-4.4606,-4.4618,-4.4631,-4.4631,-4.4631,-4.4631,-4.4631,-4.4631,-4.4631,-4.4631,-4.4631,-4.4631,-4.4631,-4.4618,-4.4624,-4.4624,-4.4624,-4.4487,-4.4087,-4.4031,-4.3927,-4.3597,-4.4125,-4.4474,-4.4073,-4.4031,-4.3912,-4.3582,-4.3531,-4.3531,-4.3531,-4.3513,-4.3513,-4.3513,-4.3515,-4.3268,-4.2769,-4.2183,-4.1835,-4.1835,-4.1853,-4.1832,-4.1832,-4.181,-4.1512,-4.0926,-4.0926,-4.0655,-4.0146,-4.0679,-4.0926,-2.6924,-2.7046,-2.729,-2.8398,-2.8688,-2.8858,-2.9624,-2.9792,-2.9792,-2.9792,-3.0037,-3.0444,-3.1068,-3.1462,0.0,0.0,0.0,0.0,0.0,-3.3149,-3.3372,-3.4268,-3.6091,-3.7356,-3.7553,-3.7874,-3.8466,-3.9393,-3.9304,-3.9622,-4.0601,-4.1013,-4.1183,-4.1183,-4.1599,-4.181,-4.181,-4.181,-4.181,-4.181,-4.181,-4.181,-4.181,-4.181,-4.181,-4.181,-4.181,-4.181,-4.181,-4.181,-4.2162,-4.2711,-4.2711,-4.3032,-4.3515,-4.3515,-4.3563,-4.3679,-4.3679,-4.3896,-4.4204,-4.4204,-4.4373,-4.4593,-4.4593,-4.4593,-4.4593,-4.4593,-4.4593,-4.4593,-4.4593,-4.4593,-4.4593,-4.4593,-4.4406,-4.4204,-4.4204,-4.4035,-4.3839,-4.3712,-4.3679,-4.3629,-4.3513,-4.3712,-4.3839,-4.3695,-4.3679,-4.3629,-4.3513,-4.3515,-4.3515,-4.3515,-4.3515,-4.3357,-4.2995,-4.2599,-4.2286,-4.2121,-4.1916,-4.181,-4.181,-4.1424,-4.1183,-4.1183,-4.0844,-4.057,-4.0368,-4.0368,-4.0286,-4.0096,-4.0286,-4.0368,-2.5808,-2.5891,-2.6171,-2.7279,-2.7522,-2.7735,-2.8462,-2.8633,-2.8633,-2.8633,-2.8633,-2.8806,-2.9423,-2.9859,-3.0417,0.0,0.0,0.0,0.0,-3.2393,-3.2593,-3.2593,-3.4426,-3.579,-3.6074,-3.663,-3.7515,-3.8799,-3.8663,-3.8978,-4.0045,-4.0441,-4.0625,-4.0625,-4.1007,-4.1213,-4.1213,-4.1213,-4.1213,-4.1213,-4.1213,-4.1213,-4.1213,-4.1213,-4.1213,-4.1213,-4.1213,-4.1213,-4.1213,-4.1213,-4.153,-4.2059,-4.2059,-4.2404,-4.294,-4.3339,-4.3515,-4.3515,-4.3515,-4.3646,-4.3836,-4.3836,-4.4004,-4.4213,-4.4213,-4.4213,-4.4213,-4.4213,-4.4213,-4.4213,-4.4213,-4.4213,-4.4213,-4.4213,-4.402,-4.3836,-4.3836,-4.3646,-4.3515,-4.3515,-4.3515,-4.3444,-4.325,-4.3214,-4.3268,-4.3462,-4.3515,-4.3515,-4.3515,-4.3321,-4.3214,-4.3214,-4.3032,-4.2771,-4.2402,-4.1832,-4.149,-4.149,-4.1308,-4.1213,-4.1213,-4.0821,-4.0745,-4.0996,-4.0398,-4.0087,-4.0107,-3.9822,-3.9532,-3.9279,-3.9279,-3.9279]},{"header":{"parameterUnit":"m.s-1","parameterCategory":1,"la1":30.6,"la2":29.2853,"lo1":-89.7004,"lo2":-87.6739,"dy":0.0162,"dx":0.0183,"nx":112,"ny":82,"refTime":"2023-08-20T06:00:00:Z","depth":0,"parameterNumber":3,"parameterNumberName":"V-component_of_WINDS"},"data":[0.0,0.0,0.0,0.0,0.0,0.0,0.0,0.0,0.0,0.0,0.0,0.0,0.0,0.0,0.0,0.0,0.0,0.0,0.0,0.0,0.0,0.0,0.0,0.0,0.0,0.0,0.0,0.0,0.0,0.0,0.0,0.0,0.0,0.0,0.0,0.0,0.0,0.0,0.0,0.0,0.0,0.0,0.0,0.0,0.0,0.0,0.0,0.0,0.0,0.0,0.0,0.0,0.0,0.0,0.0,0.0,0.0,0.0,0.0,0.0,0.0,0.0,0.0,0.0,0.0,0.0,0.0,0.0,0.0,0.0,0.0,0.0,0.0,0.0,0.0,0.0,0.0,0.0,0.0,0.0,0.0,0.0,0.0,0.0,0.0,0.0,0.0,0.0,0.0,0.0,-1.4243,-1.4353,-1.4991,-1.541,-1.541,-1.541,-1.4717,-1.31,0.0,0.0,0.0,0.0,0.0,0.0,0.0,0.0,0.0,0.0,0.0,0.0,0.0,0.0,0.0,0.0,0.0,0.0,0.0,0.0,0.0,0.0,0.0,0.0,0.0,0.0,0.0,0.0,0.0,0.0,0.0,0.0,0.0,0.0,0.0,0.0,0.0,0.0,0.0,0.0,0.0,0.0,0.0,0.0,0.0,0.0,0.0,0.0,0.0,0.0,0.0,0.0,0.0,0.0,0.0,0.0,0.0,0.0,0.0,0.0,0.0,0.0,0.0,0.0,0.0,0.0,0.0,0.0,0.0,0.0,0.0,0.0,0.0,0.0,0.0,0.0,0.0,0.0,0.0,0.0,0.0,0.0,0.0,0.0,0.0,0.0,0.0,0.0,0.0,0.0,0.0,0.0,0.0,0.0,0.0,0.0,0.0,0.0,0.0,0.0,0.0,0.0,0.0,0.0,-1.4451,-1.5138,-1.5323,-1.541,-1.541,-1.541,-1.4717,-1.31,0.0,0.0,0.0,0.0,0.0,0.0,0.0,0.0,0.0,0.0,0.0,0.0,0.0,0.0,0.0,0.0,0.0,0.0,0.0,0.0,0.0,0.0,0.0,0.0,0.0,0.0,0.0,0.0,0.0,0.0,0.0,0.0,0.0,0.0,0.0,0.0,0.0,0.0,0.0,0.0,0.0,0.0,0.0,0.0,0.0,0.0,0.0,0.0,0.0,0.0,0.0,0.0,0.0,0.0,0.0,0.0,0.0,0.0,0.0,0.0,0.0,0.0,0.0,0.0,0.0,0.0,0.0,0.0,0.0,0.0,0.0,0.0,0.0,0.0,0.0,0.0,0.0,0.0,0.0,0.0,0.0,0.0,0.0,0.0,0.0,0.0,0.0,0.0,0.0,0.0,0.0,0.0,0.0,0.0,0.0,0.0,0.0,0.0,0.0,0.0,0.0,0.0,0.0,-1.5079,-1.4991,-1.5352,-1.541,-1.541,-1.541,-1.541,-1.4903,-1.3726,-1.3252,0.0,0.0,0.0,0.0,0.0,0.0,0.0,0.0,0.0,0.0,0.0,0.0,0.0,0.0,0.0,0.0,0.0,0.0,0.0,0.0,0.0,0.0,0.0,0.0,0.0,0.0,0.0,0.0,0.0,0.0,0.0,0.0,0.0,0.0,0.0,0.0,0.0,0.0,0.0,0.0,0.0,0.0,0.0,0.0,0.0,0.0,0.0,0.0,0.0,0.0,0.0,0.0,0.0,0.0,0.0,0.0,0.0,0.0,0.0,0.0,0.0,0.0,0.0,0.0,0.0,0.0,0.0,0.0,0.0,0.0,0.0,0.0,0.0,0.0,0.0,0.0,0.0,0.0,0.0,0.0,0.0,0.0,0.0,0.0,0.0,0.0,0.0,0.0,0.0,0.0,0.0,0.0,0.0,0.0,0.0,0.0,0.0,0.0,0.0,0.0,0.0,0.0,-1.5497,-1.5468,-1.5642,-1.5497,-1.541,-1.541,-1.541,-1.505,-1.4234,-1.3425,0.0,0.0,0.0,0.0,0.0,0.0,0.0,0.0,0.0,0.0,0.0,0.0,0.0,0.0,0.0,0.0,0.0,0.0,0.0,0.0,0.0,0.0,0.0,0.0,0.0,0.0,0.0,0.0,0.0,0.0,0.0,0.0,0.0,0.0,0.0,0.0,0.0,0.0,0.0,0.0,0.0,0.0,0.0,0.0,0.0,0.0,0.0,0.0,0.0,0.0,0.0,0.0,0.0,0.0,0.0,0.0,0.0,0.0,0.0,0.0,0.0,0.0,0.0,0.0,0.0,0.0,0.0,0.0,0.0,0.0,0.0,0.0,0.0,0.0,0.0,0.0,0.0,0.0,0.0,0.0,0.0,0.0,0.0,0.0,0.0,0.0,0.0,0.0,0.0,0.0,0.0,0.0,0.0,0.0,0.0,0.0,0.0,0.0,0.0,0.0,0.0,0.0,-1.5806,-1.5661,-1.635,-1.5806,-1.541,-1.541,-1.541,-1.505,-1.4234,-1.3425,0.0,0.0,0.0,0.0,0.0,0.0,0.0,0.0,0.0,0.0,0.0,0.0,0.0,0.0,0.0,0.0,0.0,0.0,0.0,0.0,0.0,0.0,0.0,0.0,0.0,0.0,0.0,0.0,0.0,0.0,0.0,0.0,0.0,0.0,0.0,0.0,0.0,0.0,0.0,0.0,0.0,0.0,0.0,0.0,0.0,0.0,0.0,0.0,0.0,0.0,0.0,0.0,0.0,0.0,0.0,0.0,0.0,0.0,0.0,0.0,0.0,0.0,0.0,0.0,0.0,0.0,0.0,0.0,0.0,0.0,0.0,0.0,0.0,0.0,0.0,0.0,0.0,0.0,0.0,0.0,0.0,0.0,0.0,0.0,0.0,0.0,0.0,0.0,0.0,0.0,0.0,0.0,0.0,0.0,0.0,0.0,0.0,0.0,0.0,0.0,0.0,0.0,-1.5584,-1.5497,-1.5777,-1.5584,-1.541,-1.541,-1.541,-1.5255,-1.4962,0.0,0.0,0.0,0.0,0.0,0.0,0.0,0.0,0.0,0.0,0.0,0.0,0.0,0.0,0.0,0.0,0.0,0.0,0.0,0.0,0.0,0.0,0.0,0.0,0.0,0.0,0.0,0.0,0.0,0.0,0.0,0.0,0.0,0.0,0.0,0.0,0.0,0.0,0.0,0.0,0.0,0.0,0.0,0.0,0.0,0.0,0.0,0.0,0.0,0.0,0.0,0.0,0.0,0.0,0.0,0.0,0.0,0.0,0.0,0.0,0.0,0.0,0.0,0.0,0.0,0.0,0.0,0.0,0.0,0.0,0.0,0.0,0.0,0.0,0.0,0.0,0.0,0.0,0.0,0.0,0.0,0.0,0.0,0.0,0.0,0.0,0.0,0.0,0.0,0.0,0.0,0.0,0.0,0.0,0.0,0.0,0.0,0.0,0.0,0.0,0.0,0.0,-1.5748,-1.5748,-1.5748,-1.5748,-1.5555,-1.541,-1.541,-1.541,-1.541,-1.541,0.0,0.0,0.0,0.0,0.0,0.0,0.0,0.0,0.0,0.0,0.0,0.0,0.0,0.0,0.0,0.0,0.0,0.0,0.0,0.0,0.0,0.0,0.0,0.0,0.0,0.0,0.0,0.0,0.0,0.0,0.0,0.0,0.0,0.0,0.0,0.0,0.0,0.0,0.0,0.0,0.0,0.0,0.0,0.0,0.0,0.0,0.0,0.0,0.0,0.0,0.0,0.0,0.0,0.0,0.0,0.0,0.0,0.0,0.0,0.0,0.0,0.0,0.0,0.0,0.0,0.0,0.0,0.0,0.0,0.0,0.0,0.0,0.0,0.0,0.0,0.0,0.0,0.0,0.0,0.0,0.0,0.0,0.0,0.0,0.0,0.0,0.0,0.0,0.0,0.0,0.0,0.0,0.0,0.0,0.0,0.0,0.0,0.0,0.0,0.0,0.0,0.0,-1.6492,-1.6492,-1.6492,-1.6492,-1.5835,-1.541,-1.541,-1.541,-1.541,0.0,0.0,0.0,0.0,0.0,0.0,0.0,0.0,0.0,0.0,0.0,0.0,0.0,0.0,0.0,0.0,0.0,0.0,0.0,0.0,0.0,0.0,0.0,0.0,0.0,0.0,0.0,0.0,0.0,0.0,0.0,0.0,0.0,0.0,0.0,0.0,0.0,0.0,0.0,0.0,0.0,0.0,0.0,0.0,0.0,0.0,0.0,0.0,0.0,0.0,0.0,0.0,0.0,0.0,0.0,0.0,0.0,0.0,0.0,0.0,0.0,0.0,0.0,0.0,0.0,0.0,0.0,0.0,0.0,0.0,0.0,0.0,0.0,0.0,0.0,0.0,0.0,0.0,0.0,0.0,0.0,0.0,0.0,0.0,0.0,0.0,0.0,0.0,0.0,0.0,0.0,0.0,0.0,0.0,0.0,0.0,0.0,0.0,0.0,0.0,0.0,0.0,0.0,-1.5719,-1.5719,-1.5719,-1.5719,-1.5526,-1.541,-1.541,-1.541,-1.541,-1.541,0.0,0.0,0.0,0.0,0.0,0.0,0.0,0.0,0.0,0.0,0.0,0.0,0.0,0.0,0.0,0.0,0.0,0.0,0.0,0.0,0.0,0.0,0.0,0.0,0.0,0.0,0.0,0.0,0.0,0.0,0.0,0.0,0.0,0.0,0.0,0.0,0.0,0.0,0.0,0.0,0.0,0.0,0.0,0.0,0.0,0.0,0.0,0.0,0.0,0.0,0.0,0.0,0.0,0.0,0.0,0.0,0.0,0.0,0.0,0.0,0.0,0.0,0.0,0.0,0.0,0.0,0.0,0.0,0.0,0.0,0.0,0.0,0.0,0.0,0.0,0.0,0.0,0.0,0.0,0.0,0.0,0.0,0.0,0.0,0.0,0.0,0.0,0.0,0.0,0.0,0.0,0.0,0.0,0.0,0.0,0.0,0.0,0.0,0.0,0.0,0.0,0.0,-1.5439,-1.5671,-1.5719,-1.5439,-1.541,-1.541,-1.541,-1.541,-1.541,-1.541,0.0,0.0,0.0,0.0,0.0,0.0,0.0,0.0,0.0,0.0,0.0,0.0,0.0,0.0,0.0,0.0,0.0,0.0,0.0,0.0,0.0,0.0,0.0,0.0,0.0,0.0,0.0,0.0,0.0,0.0,0.0,0.0,0.0,0.0,0.0,0.0,0.0,0.0,0.0,0.0,0.0,0.0,0.0,0.0,0.0,0.0,0.0,0.0,0.0,0.0,0.0,0.0,0.0,0.0,0.0,0.0,0.0,0.0,0.0,0.0,0.0,0.0,0.0,0.0,0.0,0.0,0.0,0.0,0.0,0.0,0.0,0.0,0.0,0.0,0.0,0.0,0.0,0.0,0.0,0.0,0.0,0.0,0.0,0.0,0.0,0.0,0.0,0.0,0.0,0.0,0.0,0.0,0.0,0.0,0.0,0.0,0.0,0.0,0.0,0.0,0.0,0.0,-1.5497,-1.5979,-1.6151,-1.5468,-1.541,-1.541,-1.541,-1.541,-1.541,-1.541,0.0,0.0,0.0,0.0,0.0,0.0,0.0,0.0,0.0,0.0,0.0,0.0,0.0,0.0,0.0,0.0,0.0,0.0,0.0,0.0,0.0,0.0,0.0,0.0,0.0,0.0,0.0,0.0,0.0,0.0,0.0,0.0,0.0,0.0,0.0,0.0,0.0,0.0,0.0,0.0,0.0,0.0,0.0,0.0,0.0,0.0,0.0,0.0,0.0,0.0,0.0,0.0,0.0,0.0,0.0,0.0,0.0,0.0,0.0,0.0,-0.8297,-0.6981,0.0,0.0,0.0,0.0,0.0,0.0,0.0,0.0,0.0,0.0,0.0,0.0,0.0,0.0,0.0,0.0,0.0,0.0,0.0,0.0,0.0,0.0,0.0,0.0,0.0,0.0,0.0,0.0,0.0,0.0,0.0,0.0,0.0,0.0,0.0,0.0,0.0,0.0,0.0,0.0,-1.541,-1.5555,-1.5584,-1.541,-1.541,-1.541,-1.541,-1.541,-1.541,-1.541,-1.541,0.0,0.0,0.0,0.0,0.0,0.0,0.0,0.0,0.0,0.0,0.0,0.0,0.0,0.0,0.0,0.0,0.0,0.0,0.0,0.0,0.0,0.0,0.0,0.0,0.0,0.0,0.0,0.0,0.0,0.0,0.0,0.0,0.0,0.0,0.0,0.0,0.0,0.0,0.0,0.0,0.0,0.0,0.0,0.0,0.0,0.0,0.0,0.0,0.0,0.0,0.0,0.0,0.0,0.0,0.0,0.0,0.0,0.0,0.0,-0.8463,-0.7567,0.0,0.0,0.0,0.0,0.0,0.0,0.0,0.0,0.0,0.0,0.0,0.0,0.0,0.0,0.0,0.0,0.0,0.0,0.0,0.0,0.0,0.0,0.0,0.0,0.0,0.0,0.0,0.0,0.0,0.0,0.0,0.0,0.0,0.0,0.0,0.0,0.0,0.0,0.0,0.0,-1.541,-1.5596,-1.5723,-1.5723,-1.5918,-1.6015,-1.6015,-1.6015,-1.5957,-1.5732,-1.5723,0.0,0.0,0.0,0.0,0.0,0.0,0.0,0.0,0.0,0.0,0.0,0.0,0.0,0.0,0.0,0.0,0.0,0.0,0.0,0.0,0.0,0.0,0.0,0.0,0.0,0.0,0.0,0.0,0.0,0.0,0.0,0.0,0.0,0.0,0.0,0.0,0.0,0.0,0.0,0.0,0.0,0.0,0.0,0.0,0.0,0.0,0.0,0.0,0.0,0.0,0.0,0.0,0.0,-1.2543,-1.2228,-1.2166,-1.049,-1.0129,-1.0706,-0.9122,-0.8775,-0.9177,-0.773,0.0,0.0,0.0,0.0,0.0,0.0,0.0,0.0,0.0,0.0,0.0,0.0,0.0,0.0,0.0,0.0,0.0,0.0,0.0,0.0,0.0,0.0,-1.1774,-1.1973,-1.3144,-1.4055,-1.3515,0.0,0.0,0.0,0.0,0.0,0.0,0.0,0.0,0.0,0.0,0.0,-1.5527,-1.5908,-1.6212,-1.6212,-1.6514,-1.6697,-1.6697,-1.6697,-1.6541,-1.6232,-1.6212,-1.6016,0.0,0.0,0.0,0.0,0.0,0.0,0.0,0.0,0.0,0.0,0.0,0.0,0.0,0.0,0.0,0.0,0.0,0.0,0.0,0.0,0.0,0.0,0.0,0.0,0.0,0.0,0.0,0.0,0.0,0.0,0.0,0.0,-1.2856,-1.2856,0.0,0.0,0.0,0.0,0.0,0.0,0.0,0.0,0.0,0.0,0.0,0.0,0.0,-1.2879,-1.3009,-1.3696,-1.4025,-1.4025,-1.3936,-1.3876,-1.3846,-1.222,-1.1524,-1.1586,-1.0667,0.0,-0.9274,-0.9043,0.0,0.0,0.0,0.0,0.0,0.0,0.0,0.0,0.0,0.0,0.0,0.0,0.0,0.0,0.0,0.0,0.0,0.0,0.0,0.0,0.0,0.0,-1.1973,-1.2665,-1.3545,-1.4362,-1.4962,-1.4004,-1.3221,-1.3914,-1.3394,-1.3092,0.0,0.0,0.0,0.0,0.0,0.0,-1.6007,-1.6367,-1.6609,-1.6609,-1.6668,-1.6697,-1.6697,-1.6697,-1.6677,-1.6619,-1.6609,-1.6445,-1.6026,-1.6007,0.0,0.0,0.0,0.0,0.0,0.0,0.0,0.0,0.0,0.0,0.0,0.0,0.0,0.0,0.0,0.0,0.0,0.0,0.0,0.0,0.0,0.0,0.0,0.0,0.0,0.0,0.0,0.0,0.0,-1.2481,-1.2826,-1.2389,-1.202,-1.1878,0.0,0.0,0.0,0.0,0.0,0.0,0.0,0.0,0.0,-1.3666,-1.3666,-1.3876,-1.4332,-1.4688,-1.4658,-1.4174,-1.3726,-1.3304,-1.281,-1.1655,-1.1139,-1.1108,-1.0744,-1.0364,-0.9983,-0.9498,-0.8844,-0.8124,0.0,0.0,0.0,0.0,-0.7437,-0.7567,-0.842,-0.8748,-0.8748,-0.8748,0.0,0.0,0.0,0.0,0.0,0.0,0.0,-0.8812,-0.9204,-1.0553,-1.1989,-1.2826,-1.3606,-1.4421,-1.5235,-1.4844,-1.4332,-1.4213,-1.3545,-1.31,-1.3455,-1.4121,0.0,0.0,0.0,-1.6436,-1.6436,-1.6826,-1.71,-1.71,-1.7314,-1.7418,-1.7418,-1.7418,-1.7321,-1.7109,-1.71,-1.6894,-1.6465,-1.6436,-1.623,0.0,0.0,0.0,0.0,0.0,0.0,0.0,0.0,0.0,0.0,0.0,0.0,0.0,0.0,0.0,0.0,0.0,0.0,0.0,0.0,0.0,0.0,0.0,0.0,0.0,0.0,0.0,0.0,-1.2657,-1.3033,-1.229,-1.2344,-1.2523,0.0,0.0,0.0,0.0,0.0,0.0,-1.3939,-1.3939,-1.4215,-1.4823,-1.4823,-1.5004,-1.5365,-1.5365,-1.4935,-1.4114,-1.332,-1.2602,-1.1994,-1.1187,-1.0814,-1.0814,-1.0814,-1.0814,-1.0736,-0.9944,-0.9498,-0.9236,-0.8581,-0.8188,-0.8027,-0.8253,-0.8318,-0.8452,-0.9332,-0.9626,-0.9626,-0.9626,-0.9498,-0.9172,-0.8517,0.0,0.0,0.0,0.0,-0.9338,-0.9562,-1.0566,-1.171,-1.2512,-1.3189,-1.3926,-1.4717,-1.499,-1.4969,-1.4577,-1.4114,-1.3783,-1.3783,-1.4669,0.0,-1.5346,-1.6224,-1.6863,-1.6863,-1.7275,-1.7539,-1.7539,-1.7822,-1.8008,-1.8008,-1.8008,-1.7881,-1.7568,-1.7539,-1.7353,-1.6882,-1.6863,-1.6689,-1.6271,0.0,0.0,0.0,0.0,0.0,0.0,0.0,0.0,0.0,0.0,0.0,0.0,0.0,0.0,0.0,0.0,0.0,0.0,0.0,0.0,0.0,0.0,0.0,0.0,0.0,0.0,0.0,0.0,0.0,-1.3376,-1.376,0.0,0.0,0.0,0.0,-1.5355,-1.6081,-1.6502,-1.6502,-1.6502,-1.6534,-1.6575,-1.6566,-1.6167,-1.529,-1.529,-1.4839,-1.3901,-1.3089,-1.2703,-1.2635,-1.175,-1.1349,-1.1349,-1.1349,-1.1349,-1.1302,-1.0749,-1.0047,-0.9306,-0.9242,-0.8716,-0.8091,-0.8947,-0.9242,-0.937,-1.0238,-1.053,-1.053,-1.053,-0.9977,-0.9306,-0.9236,-0.8651,0.0,0.0,-0.9274,-0.9498,-1.0333,-1.0593,-1.0863,-1.1679,-1.2098,-1.2517,-1.3314,-1.3849,-1.4405,-1.5173,-1.5683,-1.5934,-1.5934,0.0,-1.6604,-1.6604,-1.7038,-1.7344,-1.7344,-1.7715,-1.7978,-1.7978,-1.7998,-1.8008,-1.8008,-1.8008,-1.7998,-1.7978,-1.7978,-1.7793,-1.7373,-1.7344,-1.7148,-1.6677,-1.6279,0.0,0.0,0.0,0.0,0.0,0.0,0.0,0.0,0.0,0.0,0.0,0.0,0.0,0.0,0.0,0.0,0.0,0.0,0.0,0.0,0.0,0.0,0.0,0.0,0.0,0.0,0.0,0.0,-1.4045,-1.4609,0.0,-1.5371,-1.5348,-1.5679,-1.6636,-1.6725,-1.6697,-1.6697,-1.6697,-1.6434,-1.5822,-1.579,-1.5362,-1.441,-1.441,-1.395,-1.3109,-1.2848,-1.241,-1.1833,-1.1526,-1.1389,-1.1389,-1.1389,-1.1389,-1.1375,-1.1202,-1.0916,-1.0642,-1.0642,-1.0468,-1.0227,-1.0535,-1.0642,-1.0708,-1.1016,-1.1116,-1.1116,-1.1116,-1.0916,-1.0642,-1.0642,-1.0434,-1.026,-1.0575,-1.0642,-1.0708,-1.1016,-1.1116,-1.1342,-1.2193,-1.2446,-1.2752,-1.3533,-1.4317,-1.4789,-1.4478,-1.5111,-1.5726,-1.5726,-1.6517,-1.6976,-1.6417,-1.7149,-1.7793,-1.7793,-1.792,-1.8008,-1.8008,-1.8008,-1.8008,-1.8008,-1.8008,-1.8008,-1.8008,-1.8008,-1.7939,-1.7793,-1.7793,-1.7588,-1.7158,-1.6992,-1.6777,0.0,0.0,0.0,0.0,0.0,0.0,0.0,0.0,0.0,0.0,0.0,0.0,0.0,0.0,0.0,0.0,0.0,0.0,0.0,0.0,0.0,0.0,0.0,0.0,0.0,-1.3951,-1.4568,-1.4455,-1.5044,-1.5658,-1.6217,-1.6191,-1.6407,-1.7064,-1.6835,-1.6543,-1.6215,-1.6182,-1.59,-1.5284,-1.5284,-1.4816,-1.3842,-1.3842,-1.3405,-1.2563,-1.2563,-1.2277,-1.1688,-1.1688,-1.1688,-1.1688,-1.1688,-1.1688,-1.1688,-1.1323,-1.1211,-1.1198,-1.1365,-1.1389,-1.1389,-1.1389,-1.1183,-1.0895,-1.0895,-1.0895,-1.0964,-1.1286,-1.1389,-1.1389,-1.1389,-1.1389,-1.1389,-1.1389,-1.1389,-1.1389,-1.1389,-1.1389,-1.156,-1.2105,-1.2361,-1.257,-1.3093,-1.4017,-1.458,-1.3944,-1.4805,-1.564,-1.564,-1.6468,-1.7059,-1.6762,-1.7465,-1.8008,-1.8008,-1.8008,-1.8008,-1.8008,-1.8008,-1.8008,-1.8008,-1.8008,-1.8008,-1.8008,-1.8008,-1.8008,-1.8008,-1.8008,-1.7881,-1.7598,-1.7461,-1.7168,-1.6697,0.0,0.0,0.0,0.0,0.0,0.0,0.0,0.0,0.0,0.0,0.0,0.0,0.0,0.0,0.0,0.0,0.0,0.0,0.0,0.0,0.0,0.0,0.0,-1.4296,-1.423,-1.4297,-1.4722,-1.512,-1.5695,-1.652,-1.7072,-1.7149,-1.6609,-1.6567,-1.614,-1.5234,-1.5199,-1.5199,-1.5163,-1.5163,-1.4665,-1.3673,-1.3673,-1.32,-1.2305,-1.2305,-1.2305,-1.2305,-1.2305,-1.2305,-1.2305,-1.2305,-1.2305,-1.2224,-1.1199,-1.0783,-1.0847,-1.1208,-1.1347,-1.1381,-1.1381,-1.0748,-0.9939,-0.9904,-0.9863,-1.0043,-1.103,-1.1347,-1.1347,-1.1381,-1.1381,-1.1388,-1.1422,-1.1415,-1.1415,-1.1415,-1.1415,-1.1415,-1.1415,-1.167,-1.1919,-1.1919,-1.2849,-1.3709,-1.3673,-1.4831,-1.5847,-1.5914,-1.6271,-1.6888,-1.7862,-1.7974,0.0,-1.8008,-1.8008,-1.8008,-1.8008,-1.8008,-1.8008,-1.8008,-1.8008,-1.8008,-1.8008,-1.8008,-1.8008,-1.8008,-1.8008,-1.8008,-1.8008,-1.7607,-1.7187,-1.6726,0.0,0.0,0.0,0.0,0.0,0.0,0.0,0.0,0.0,0.0,0.0,0.0,0.0,0.0,0.0,0.0,0.0,0.0,0.0,0.0,0.0,-1.3529,-1.3976,-1.4503,-1.5068,-1.5585,-1.6007,-1.6776,-1.7075,-1.6644,-1.6718,-1.6493,-1.5649,-1.5587,-1.5473,-1.5199,-1.5199,-1.4879,-1.4135,-1.4099,-1.3629,-1.2696,-1.2666,-1.2556,-1.2305,-1.2305,-1.2305,-1.2305,-1.2305,-1.2305,-1.2305,-1.2305,-1.2305,-1.2224,-1.1199,-1.0783,-1.0734,-1.012,-1.0327,-1.0943,-1.0943,-1.0797,-1.0462,-0.9738,-0.9479,-0.9516,-0.978,-0.9885,-0.9996,-1.0724,-1.0943,-1.1131,-1.1834,-1.2058,-1.2058,-1.2058,-1.2058,-1.2058,-1.2058,-1.2124,-1.2184,-1.2184,-1.3005,-1.3491,-1.2806,-1.3555,-1.476,-1.6155,-1.5931,-1.6123,-1.7759,-1.7432,-1.7217,-1.7906,-1.8008,-1.8008,-1.8008,-1.8008,-1.8008,-1.8008,-1.8008,-1.8008,-1.8008,-1.8008,-1.8008,-1.8008,-1.8008,-1.8008,-1.8008,-1.79,-1.7627,0.0,0.0,0.0,0.0,0.0,0.0,0.0,0.0,0.0,0.0,0.0,0.0,0.0,0.0,0.0,0.0,0.0,0.0,0.0,0.0,0.0,0.0,-1.3582,-1.385,-1.421,-1.4659,-1.5229,-1.5939,-1.6114,-1.6158,-1.6044,-1.6,-1.5614,-1.4629,-1.4557,-1.4414,-1.4019,-1.3983,-1.3738,-1.3127,-1.3091,-1.2842,-1.2305,-1.2305,-1.2305,-1.2305,-1.2305,-1.2305,-1.2305,-1.2305,-1.2305,-1.2305,-1.2305,-1.2305,-1.2187,-1.0757,-1.0153,-1.0115,0.0,0.0,0.0,0.0,-0.955,-0.9475,-0.8879,-0.8656,-0.8732,-0.915,-0.9296,-0.941,-1.0008,-1.049,-1.0938,-1.1502,-1.1959,-1.2305,-1.2305,-1.2305,-1.2305,-1.2305,-1.2305,-1.2305,-1.2305,-1.2739,-1.2952,-1.2409,-1.2732,0.0,-1.5119,-1.4942,-1.5234,-1.7148,-1.6957,-1.6957,-1.7862,-1.7647,-1.7579,-1.7974,-1.7295,-1.7157,-1.794,-1.7647,0.0,0.0,0.0,-1.7251,-1.6837,-1.7182,0.0,0.0,0.0,-1.7309,-1.7072,-1.6668,0.0,0.0,-1.5364,-1.5514,0.0,0.0,0.0,0.0,0.0,0.0,0.0,0.0,0.0,0.0,0.0,0.0,0.0,0.0,0.0,0.0,-1.3528,-1.3528,-1.3528,-1.3528,-1.3918,-1.4914,-1.435,-1.4171,-1.495,-1.5021,-1.4629,-1.3637,-1.3528,-1.3164,-1.2335,-1.2305,0.0,0.0,0.0,-1.2305,-1.2305,-1.2305,-1.2305,-1.2305,-1.2305,-1.2305,-1.2305,-1.2305,-1.2224,-1.2114,-1.2114,-1.2077,-1.1811,-0.9895,-0.9069,-0.896,-0.9074,-0.915,-0.9031,-0.8122,-0.7783,-0.7783,-0.7668,0.0,0.0,-0.8656,-0.8955,-0.8993,-0.9107,-0.982,-1.0634,-1.0783,-1.1502,-1.2305,-1.2305,-1.2305,-1.2305,-1.2305,-1.2305,-1.2305,-1.2305,-1.2305,-1.2305,-1.2305,-1.2305,-1.2556,-1.3382,-1.3528,-1.4199,-1.614,-1.6349,-1.6602,-1.7545,-1.6966,-1.6749,-1.7613,-1.6193,0.0,-1.7545,-1.6922,-1.6428,-1.6428,-1.6428,-1.6079,-1.5234,-1.6,-1.6428,-1.6428,-1.6428,-1.6428,-1.6428,-1.5623,-1.4998,-1.4599,-1.5853,-1.6418,0.0,0.0,0.0,0.0,0.0,0.0,0.0,0.0,0.0,0.0,0.0,0.0,0.0,0.0,0.0,-1.2556,-1.2556,-1.2556,-1.2556,-1.2556,-1.2915,-1.3882,-1.4522,-1.4665,-1.4063,-1.3991,-1.36,-1.2622,-1.2556,-1.2482,-1.2305,-1.2305,-1.2305,-1.2305,-1.2305,-1.2305,-1.2305,-1.2305,-1.2305,-1.2305,-1.2305,0.0,-1.2305,-1.2305,-1.1848,-1.1087,-1.1087,-1.0645,-0.9787,-0.858,-0.7629,-0.6945,-0.7783,-0.8084,-0.8046,-0.7859,-0.7783,-0.7668,-0.6872,-0.6606,-0.6602,-0.6834,-0.6872,-0.7022,-0.7859,-0.8803,0.0,-1.0565,-1.1502,-1.2305,-1.2305,-1.2305,-1.2305,-1.2305,-1.2305,-1.2305,-1.2305,-1.2305,-1.2305,-1.2305,-1.2305,-1.2378,-1.2556,-1.2556,-1.323,-1.5199,-1.4772,-1.4629,-1.5623,-1.5587,-1.5552,-1.5728,-1.5411,-1.534,-1.5693,-1.5587,-1.5473,-1.5473,-1.5473,-1.5376,-1.5199,-1.5376,-1.5473,-1.5473,-1.5473,-1.5473,-1.5473,-1.5305,-1.5165,-1.5047,-1.4959,-1.4764,0.0,0.0,0.0,0.0,0.0,0.0,0.0,0.0,0.0,0.0,0.0,-1.1545,0.0,0.0,-1.2305,-1.2305,-1.2305,-1.2305,-1.2305,-1.2305,-1.2482,-1.2952,-1.3448,-1.3557,-1.3062,-1.2989,-1.2806,-1.2335,-1.2305,-1.2305,-1.2305,-1.2305,-1.2305,-1.2305,-1.1805,-1.1545,-1.1545,-1.1062,-1.0801,-1.0801,-1.1316,-1.1285,-1.0838,-1.1323,-1.1013,-1.004,-1.004,-0.9744,-0.9221,-0.8199,-0.7215,-0.6338,-0.6872,-0.7061,-0.7061,-0.7061,-0.7061,-0.6984,-0.649,-0.63,-0.63,-0.63,-0.63,-0.6374,-0.6911,-0.8084,-0.9296,-0.9286,-1.0752,-1.2187,-1.1694,-1.1922,-1.2305,-1.2305,-1.2305,-1.2305,-1.2305,-1.2305,-1.2305,-1.2305,-1.2305,-1.2305,-1.2305,-1.2305,-1.2806,-1.4243,-1.4027,-1.4063,-1.5057,-1.4772,-1.4629,-1.5163,-1.4343,-1.4127,-1.5128,-1.4736,-1.445,-1.445,-1.4019,-1.373,-1.373,-1.4207,-1.445,-1.445,-1.445,-1.445,-1.445,-1.3983,-1.373,-1.373,-1.3494,-1.3816,0.0,0.0,0.0,0.0,0.0,0.0,0.0,0.0,-1.207,-1.1279,-1.1731,-1.2305,-1.2305,-1.2305,-1.2305,-1.2305,-1.2305,-1.2305,-1.2305,-1.2305,-1.2305,-1.2305,-1.2305,-1.2305,-1.2305,-1.2305,-1.2305,-1.2305,-1.2305,-1.2305,-1.2305,-1.2114,-1.1996,-1.1996,-1.1013,-1.0527,-1.0527,-0.9707,-0.9296,-0.9296,-1.0115,-1.0078,-0.9334,-1.0153,-0.9965,-0.8993,-0.8803,-0.8732,-0.8656,-0.7859,-0.7022,-0.63,-0.63,-0.63,-0.63,-0.63,-0.63,-0.63,-0.63,-0.63,-0.63,-0.63,-0.63,-0.63,-0.63,-0.7553,-0.8841,-0.8012,-0.9814,-1.1811,-1.1013,-1.1545,-1.2305,-1.2305,-1.2305,-1.2305,-1.2305,-1.2305,-1.2305,-1.2305,-1.2351,-1.2385,-1.2385,-1.2438,-1.2692,-1.3331,-1.347,-1.3835,-1.4624,-1.407,-1.3903,-1.4727,-1.3424,-1.3098,-1.4691,-1.4018,-1.3514,-1.3514,-1.273,-1.2305,-1.2305,-1.3025,-1.3419,-1.3419,-1.3419,-1.3419,-1.3419,-1.2659,-1.2305,-1.2305,-1.2305,-1.3127,-1.1589,-1.204,-1.1966,-1.1966,-1.2114,-1.2224,0.0,0.0,-1.2268,-1.215,-1.2224,-1.2305,-1.2305,-1.2305,-1.2305,-1.2305,-1.2305,-1.2305,-1.2305,-1.2305,-1.2305,-1.2305,-1.2305,-1.2305,-1.2305,-1.2305,-1.2305,-1.2305,-1.2305,-1.2305,-1.2305,-1.1465,-1.0975,-1.0975,-1.0008,-0.9485,-0.9485,-0.9372,-0.9296,-0.9296,-0.941,-0.941,-0.9296,-0.941,-0.8917,-0.7936,-0.7022,-0.6644,-0.6641,-0.6528,-0.6412,-0.63,-0.63,-0.63,-0.63,-0.63,-0.63,-0.63,-0.63,-0.63,-0.63,-0.63,-0.63,-0.63,-0.63,-0.7099,-0.7936,-0.7821,-0.9324,-1.0932,-1.082,-1.1545,-1.2305,-1.2305,-1.2305,-1.2305,-1.2305,-1.2305,-1.2305,-1.2305,-1.2556,-1.2737,-1.2737,-1.2926,-1.2965,-1.2526,-1.2713,-1.2958,-1.3072,-1.3165,-1.3302,-1.3413,-1.3224,-1.3185,-1.3413,-1.3115,-1.2882,-1.2882,-1.252,-1.2305,-1.2305,-1.2409,-1.2445,-1.2445,-1.2445,-1.2445,-1.2445,-1.2342,-1.2305,-1.2305,-1.2305,-1.2409,-1.1056,-1.1848,0.0,0.0,-1.2305,-1.2305,-1.2305,-1.2305,-1.2305,-1.2305,-1.2305,-1.2305,-1.2305,-1.2305,-1.2305,0.0,-1.2305,-1.2305,-1.2305,-1.2305,-1.2305,-1.2305,-1.2305,-1.2305,-1.2305,-1.2305,-1.207,-1.1465,-1.1428,-1.1168,-1.0571,-1.0158,-0.9933,-0.9933,-0.8955,-0.8428,-0.8428,-0.7859,-0.7557,-0.7553,-0.8161,-0.8122,-0.7591,-0.8161,-0.7897,-0.6911,-0.649,-0.63,-0.63,-0.63,-0.63,-0.63,-0.63,-0.63,-0.63,-0.63,-0.63,-0.63,-0.63,-0.63,-0.63,-0.63,-0.63,-0.63,-0.63,-0.6984,-0.7783,-0.7783,-0.9248,-1.0783,-1.0783,-1.1545,-1.2305,-1.2305,-1.2305,-1.2351,-1.2563,-1.2596,-1.265,-1.2799,-1.2933,-1.3019,-1.3019,-1.3126,-1.3126,-1.2866,-1.2939,-1.3019,-1.3019,-1.3126,-1.3213,-1.3213,-1.3213,-1.3213,-1.3213,-1.3093,-1.3019,-1.3019,-1.2764,-1.2596,-1.2596,-1.2392,-1.2305,-1.2305,-1.2305,-1.2305,-1.2305,-1.2305,-1.2305,-1.2305,-1.2305,-1.2305,-1.0527,0.0,0.0,-1.2224,-1.2305,-1.2305,-1.2305,-1.2305,-1.2305,-1.2305,-1.2305,-1.2305,-1.2305,-1.2305,-1.2305,-1.2305,-1.2305,-1.2331,-1.2412,-1.2425,-1.2458,-1.2545,-1.2275,-1.208,-1.208,-1.1976,-1.1583,-1.0864,-1.0527,-1.0078,-0.9334,-0.9031,-0.8879,-0.8879,-0.7897,-0.7403,-0.7403,-0.6679,-0.63,-0.63,-0.7022,-0.7022,-0.6338,-0.7061,-0.6984,-0.63,-0.63,-0.63,-0.63,-0.63,-0.63,-0.63,-0.63,-0.63,-0.63,-0.63,-0.63,-0.63,-0.63,-0.63,-0.63,-0.63,-0.63,-0.63,-0.63,-0.6795,-0.7403,-0.7403,-0.8875,-1.0517,-1.0517,-1.1527,-1.2552,-1.2552,-1.2552,-1.2612,-1.2864,-1.2911,-1.2985,-1.3166,-1.3273,-1.3327,-1.3327,-1.3394,-1.3454,-1.3454,-1.3454,-1.342,-1.33,-1.34,-1.3454,-1.3454,-1.3454,-1.3454,-1.3454,-1.338,-1.3327,-1.3327,-1.3046,-1.2878,-1.279,-1.2576,-1.2385,-1.2305,-1.2305,-1.2305,-1.2305,-1.2305,-1.2305,-1.2305,-1.2305,-1.2305,-1.0527,0.0,-1.1087,-1.207,-1.2305,-1.2305,-1.2305,-1.2305,-1.2305,-1.2305,-1.2305,-1.2305,-1.2305,-1.2305,-1.2305,-1.2305,-1.2305,-1.2405,-1.273,-1.277,-1.2884,-1.3146,-1.2196,-1.1501,0.0,-1.1121,-1.082,-1.0783,-0.9895,-0.9334,-0.9296,-0.8389,-0.7859,-0.7859,-0.6872,-0.6338,-0.6338,-0.63,-0.63,-0.63,-0.6338,-0.6338,-0.63,-0.6338,-0.6338,-0.63,-0.63,-0.63,-0.63,-0.63,-0.63,-0.63,-0.63,-0.63,-0.63,-0.63,-0.63,-0.63,-0.63,-0.63,-0.63,-0.63,-0.63,-0.63,-0.63,-0.6338,-0.6338,-0.6338,-0.7987,-0.9732,-0.9732,-1.1449,-1.318,-1.318,-1.318,-1.3186,-1.32,-1.32,-1.32,-1.3206,-1.34,-1.3586,-1.3586,-1.3868,-1.4062,-1.4062,-1.4062,-1.3961,-1.3626,-1.3881,-1.4062,-1.4062,-1.4062,-1.4062,-1.4062,-1.3753,-1.3586,-1.3586,-1.336,-1.306,-1.2797,-1.2777,-1.2636,-1.2311,-1.2305,-1.2305,-1.2305,-1.2305,-1.2305,-1.2305,-1.2305,-1.2305,-0.9707,0.0,-0.9895,-1.0233,-1.0314,-1.0314,-1.0314,-1.0314,-1.0314,-1.0314,-1.0394,-1.0423,-1.0423,-1.1182,-1.178,-1.178,-1.2421,-1.2939,-1.3039,-1.2406,-1.1952,-1.2049,-1.1043,0.0,0.0,0.0,0.0,-0.9126,-0.8777,-0.8262,-0.7628,-0.727,-0.7071,-0.7071,-0.6752,-0.6505,-0.6443,-0.6443,-0.6395,-0.63,-0.63,-0.63,-0.63,-0.63,-0.63,-0.6306,-0.6399,-0.6443,-0.645,-0.6512,-0.6552,-0.6552,-0.6552,-0.6552,-0.6552,-0.6552,-0.6552,-0.6539,-0.6477,-0.6443,-0.6457,-0.6519,-0.6552,-0.6552,-0.6552,-0.6552,-0.6873,-0.8298,-0.9258,-1.0152,-1.1651,-1.2607,-1.3213,-1.3213,-1.3213,-1.3267,-1.3413,-1.346,-1.3513,-1.3754,-1.3868,-1.3941,-1.3941,-1.4021,-1.4088,-1.4088,-1.4088,-1.4048,-1.3948,-1.4021,-1.4088,-1.4088,-1.4088,-1.4088,-1.4088,-1.3995,-1.3941,-1.3941,-1.362,-1.3407,-1.3347,-1.2998,-1.2737,-1.2636,-1.2405,-1.2305,-1.2305,-1.2305,-1.2305,-1.2305,-1.2305,-1.2305,-0.8656,-0.8765,-0.8841,-0.9221,-0.9296,-0.9296,-0.9296,-0.9357,-0.9374,-0.9374,-0.9467,-0.9572,-0.9572,-1.0612,-1.1364,-1.0917,-1.1816,-1.2464,-1.2156,-1.1508,-1.1078,-1.1166,-1.0144,-0.9401,0.0,0.0,0.0,-0.8217,-0.7881,-0.7394,-0.674,-0.6702,-0.6702,-0.6702,-0.6702,-0.6654,-0.6556,-0.6552,-0.6508,-0.6457,-0.6457,-0.6457,-0.6457,-0.6457,-0.6457,-0.6463,-0.6515,-0.6552,-0.6563,-0.6661,-0.6702,-0.6702,-0.6702,-0.6702,-0.6702,-0.6702,-0.6702,-0.6685,-0.6586,-0.6552,-0.6569,-0.6668,-0.6702,-0.6702,-0.6702,-0.6985,-0.7593,-0.8968,-0.9999,-1.1009,-1.2457,-1.3151,-1.3527,-1.3527,-1.3527,-1.3574,-1.372,-1.376,-1.3854,-1.4048,-1.4088,-1.4088,-1.4088,-1.4088,-1.4088,-1.4088,-1.4088,-1.4088,-1.4088,-1.4088,-1.4088,-1.4088,-1.4088,-1.4088,-1.4088,-1.4088,-1.4088,-1.4088,-1.3908,-1.3713,-1.3606,-1.3273,-1.3058,-1.2951,-1.265,-1.2496,-1.2496,-1.2351,-1.2114,-1.1768,-1.215,-1.2114,-0.748,-0.7706,-0.7936,-0.8917,-0.9155,-0.916,-0.916,-0.9246,-0.9355,-0.9355,-0.9447,-0.9562,0.0,0.0,-1.1077,-0.9943,-1.0754,-1.1242,-1.0434,-1.0218,-1.0251,0.0,0.0,0.0,0.0,0.0,0.0,-0.8098,-0.7255,-0.6722,-0.6722,-0.6722,-0.6722,-0.6722,-0.6722,-0.6719,-0.6712,-0.6705,-0.6702,-0.6702,-0.6702,-0.6702,-0.6702,-0.6702,-0.6702,-0.6702,-0.6709,-0.6712,-0.6712,-0.6719,-0.6722,-0.6722,-0.6722,-0.6722,-0.6722,-0.6722,-0.6722,-0.6722,-0.6722,-0.6719,-0.6712,-0.6719,-0.6722,-0.6722,-0.6722,-0.7454,-0.8345,-0.839,-1.0172,-1.2023,-1.2106,-1.3104,-1.4088,-1.4088,-1.4088,-1.4088,-1.4088,-1.4088,-1.4088,-1.4088,-1.4088,-1.4088,-1.4088,-1.4088,-1.4088,-1.4088,-1.4088,-1.4088,-1.4088,-1.4088,-1.4088,-1.4088,-1.4088,-1.4088,-1.4088,-1.4088,-1.4088,-1.4088,-1.4088,-1.3961,-1.3633,-1.3613,-1.3473,-1.324,-1.2887,-1.2759,-1.2784,-1.2384,-1.1706,-1.082,-1.1768,-1.1694,-0.6606,-0.6679,-0.6756,-0.6984,-0.7153,-0.7198,-0.7198,-0.7331,-0.7408,-0.7408,-0.7503,-0.762,0.0,0.0,0.0,-1.0439,-1.1328,0.0,-1.1793,-1.0315,0.0,-0.9314,0.0,-0.7577,-0.7577,-0.7272,0.0,-0.7375,-0.7154,-0.6984,-0.6984,-0.6984,-0.6984,-0.6984,-0.6984,-0.6933,-0.6871,-0.6756,-0.6702,-0.6702,-0.6702,-0.6702,-0.6702,-0.6702,-0.6702,-0.6709,-0.682,-0.6829,-0.6836,-0.6943,-0.6984,-0.6984,-0.6984,-0.6984,-0.6984,-0.6984,-0.6984,-0.6984,-0.6984,-0.6916,-0.6846,-0.695,-0.6984,-0.6984,-0.6984,-0.7198,-0.7624,-0.8527,-0.9847,-1.1171,-1.2022,-1.3153,-1.4088,-1.4088,-1.4088,-1.4088,-1.4088,-1.4088,-1.4088,-1.4088,-1.4088,-1.4088,-1.4088,-1.4088,-1.4088,-1.4088,-1.4088,-1.4088,-1.4088,-1.4088,-1.4088,-1.4088,-1.4088,-1.4088,-1.4088,-1.4088,-1.4088,-1.4088,-1.4088,-1.4055,-1.3975,-1.372,-1.3567,-1.3493,-1.2418,-1.2167,-1.2784,-1.1074,-1.0438,-1.082,-1.105,-1.105,-0.63,-0.63,-0.6313,-0.6378,-0.6453,-0.6528,-0.6556,-0.6692,-0.68,-0.68,-0.6876,0.0,-0.6977,-0.8983,0.0,0.0,0.0,0.0,-1.0168,-0.8921,-0.8105,0.0,-0.7489,0.0,-0.7095,-0.7095,-0.7095,-0.7095,-0.7095,-0.7095,-0.7095,-0.7095,-0.7095,-0.7095,-0.7095,-0.6835,-0.6234,-0.5634,-0.5339,-0.5339,-0.5858,-0.6117,-0.6163,-0.6636,-0.6895,-0.6898,-0.694,-0.6977,-0.6984,-0.7061,-0.7095,-0.7095,-0.7095,-0.7095,-0.7095,-0.7095,-0.7095,-0.7095,-0.7095,-0.7045,-0.6991,-0.7068,-0.7095,-0.7095,-0.7095,-0.7492,-0.8145,-0.9318,-1.0481,-1.1601,-1.2808,-1.3597,-1.4088,-1.4088,-1.4088,-1.4088,-1.4088,-1.4088,-1.4088,-1.4088,-1.4088,-1.4088,-1.4088,-1.4088,-1.4088,-1.4088,-1.4088,-1.4088,-1.4088,-1.4088,-1.4088,-1.4088,-1.4088,-1.4088,-1.4088,-1.4088,-1.4088,-1.4088,-1.4088,-1.4088,-1.4088,-1.3407,-1.3012,-1.3012,-1.1658,-1.1173,-1.1677,-1.0218,-0.9505,-0.9571,-0.997,-0.989,-0.63,-0.6313,-0.6358,-0.648,-0.6542,-0.6566,-0.6702,-0.6848,-0.6913,-0.6913,0.0,-0.7095,-0.7095,-0.8877,-0.9701,-0.7661,0.0,-0.9657,-0.7617,-0.7183,-0.7095,-0.7095,-0.7095,-0.7095,-0.7095,-0.7095,-0.7095,-0.7095,-0.7095,-0.7095,-0.7095,-0.7095,-0.7051,-0.6874,-0.6874,-0.6337,-0.5179,-0.4105,-0.3659,-0.3838,-0.491,-0.5492,-0.5669,-0.665,-0.7095,-0.7095,-0.7095,-0.7095,-0.7095,-0.7095,-0.7095,-0.7095,-0.7095,-0.7095,-0.7095,-0.7095,-0.7095,-0.7095,-0.7095,-0.7095,-0.7095,-0.7095,-0.7095,-0.7095,-0.7095,-0.7929,-0.9104,-1.0096,-1.1295,-1.2547,-1.3597,-1.3997,-1.4088,-1.4088,-1.4088,-1.4088,-1.4088,-1.4088,-1.4088,-1.4088,-1.4088,-1.4088,-1.4088,-1.4088,-1.4088,-1.4088,-1.4088,-1.4039,-1.3864,-1.3997,-1.4088,-1.4088,-1.4088,-1.4088,-1.4088,-1.4088,-1.4088,-1.4088,-1.3955,-1.3864,-1.3864,-1.2723,-1.2072,-1.2072,-1.072,-1.006,-1.0198,-0.9489,-0.8762,-0.8001,-0.8774,-0.8641,-0.63,-0.6385,-0.648,-0.6508,-0.6661,-0.6858,-0.6839,-0.6957,0.0,0.0,-0.7078,-0.7095,-0.7095,-0.8233,-0.9061,-0.8671,0.0,0.0,0.0,0.0,-0.7095,0.0,-0.7095,-0.7095,-0.7095,-0.7095,0.0,-0.7095,-0.7095,-0.7095,-0.7095,-0.7095,-0.665,-0.5714,-0.5716,-0.5132,-0.3927,-0.3703,-0.4105,-0.509,-0.5314,-0.5894,-0.6827,-0.7007,-0.7095,-0.7095,-0.7095,-0.7095,-0.7095,-0.7095,-0.7095,-0.7095,-0.7095,-0.7095,-0.7095,-0.7095,-0.7095,-0.7095,-0.7095,-0.7095,-0.7095,-0.7095,-0.7095,-0.7095,-0.7095,-0.7929,-0.8934,-0.9148,-1.0697,-1.237,-1.2547,-1.3336,-1.4088,-1.4088,-1.4088,-1.4088,-1.4088,-1.4088,-1.4088,-1.4088,-1.4088,-1.4088,-1.4088,-1.4088,-1.4088,-1.4088,-1.4088,-1.373,-1.2723,-1.347,-1.4088,-1.4088,-1.4088,-1.4088,-1.4088,-1.4088,-1.4088,-1.4088,-1.316,-1.2589,-1.2589,-1.1515,-1.0907,-1.0907,-0.9716,-0.949,-1.0198,-0.8295,-0.7578,-0.8005,-0.8168,-0.8074,-0.63,-0.6405,-0.6532,-0.6569,-0.6763,-0.6906,-0.6977,0.0,0.0,0.0,-0.7095,-0.7095,-0.7095,0.0,0.0,0.0,0.0,0.0,0.0,0.0,0.0,0.0,0.0,-0.7095,0.0,-0.7095,-0.7095,-0.7095,-0.7095,-0.7095,-0.7095,-0.7095,-0.6561,-0.5447,-0.4776,-0.3883,-0.2681,-0.2057,-0.2326,-0.353,-0.4152,-0.5087,-0.6248,-0.6827,-0.7095,-0.7095,-0.7095,-0.7095,-0.7095,-0.7095,-0.7095,-0.7095,-0.7095,-0.7095,-0.7095,-0.7095,-0.7095,-0.7095,-0.7095,-0.7095,-0.7095,-0.7095,-0.7095,-0.7228,-0.7841,-0.8452,-0.9148,-1.0351,-1.1466,-1.2456,-1.3075,-1.3688,-1.4088,-1.4088,-1.4088,-1.4088,-1.4088,-1.4088,-1.4088,-1.4088,-1.4088,-1.4088,-1.4088,-1.4088,-1.3913,-1.3252,-1.316,-1.2729,-1.1558,-1.2425,-1.316,-1.316,-1.373,-1.4088,-1.4088,-1.3512,-1.316,-1.316,-1.2072,-1.1423,-1.1423,-1.0308,-0.971,-0.971,-0.858,-0.819,-0.8574,-0.7472,-0.7102,-0.7439,-0.7302,-0.7181,-0.5628,-0.5723,-0.5854,-0.5953,-0.609,-0.6267,-0.6662,-0.6738,0.0,0.0,-0.7095,-0.7007,-0.6782,0.0,-0.6662,0.0,-0.6357,0.0,0.0,0.0,0.0,0.0,0.0,0.0,-0.7095,-0.7095,0.0,-0.7095,-0.6874,-0.6827,-0.7095,-0.6874,-0.6204,-0.5045,-0.3838,-0.2637,-0.1433,-0.0718,-0.0986,-0.2191,-0.3393,-0.4596,-0.5802,-0.6694,-0.7095,-0.7095,-0.7095,-0.7095,-0.7095,-0.7095,-0.7095,-0.7095,-0.7095,-0.7095,-0.7095,-0.7095,-0.7095,-0.7095,-0.7095,-0.7095,-0.7095,-0.7095,-0.7095,-0.7316,-0.854,-0.9061,-0.971,-1.1724,-1.2504,-1.2899,-1.3864,-1.4088,-1.4088,-1.4088,-1.4088,-1.4088,-1.4088,-1.3913,-1.3688,-1.3688,-1.3519,-1.3343,-1.3343,-1.3343,-1.3033,-1.2072,-1.1943,-1.1509,-1.0394,-1.1209,-1.1852,-1.1595,-1.2863,-1.3688,-1.3688,-1.2638,-1.1943,-1.1943,-1.0869,-1.0226,-1.0226,-0.9148,-0.8496,-0.8496,-0.7577,-0.7095,-0.7095,-0.6987,-0.6916,-0.6879,-0.6681,-0.6536,-0.3396,-0.3497,-0.3622,-0.3705,-0.3792,-0.4181,-0.5289,0.0,0.0,-0.6874,-0.7095,-0.6786,-0.5758,-0.5536,-0.522,0.0,0.0,-0.4326,0.0,0.0,0.0,0.0,0.0,0.0,-0.7095,-0.7095,-0.7095,-0.7095,-0.616,-0.6027,-0.7051,-0.6115,-0.5001,-0.3794,-0.2592,-0.1389,-0.018,-0.1121,-0.2236,-0.3436,-0.4641,-0.5847,-0.6962,-0.7051,-0.7095,-0.7095,-0.7095,-0.7095,-0.7095,-0.7095,-0.7095,-0.7095,-0.7095,-0.7095,-0.7095,-0.7095,-0.7095,-0.7095,-0.7095,-0.7095,-0.7095,-0.7095,-0.7095,-0.7316,-0.854,-0.9623,-1.0697,-1.1938,-1.3069,-1.3955,-1.4088,-1.4088,-1.4088,-1.4088,-1.4088,-1.4088,-1.4088,-1.3245,-1.2456,-1.2456,-1.1643,-1.0913,-1.0913,-1.0913,-1.0869,-1.0783,-1.0783,-1.0351,-0.9192,-1.0053,-1.0351,-0.9323,-1.1171,-1.2456,-1.2456,-1.1423,-1.0783,-1.0783,-0.971,-0.9061,-0.9061,-0.7885,-0.7272,-0.7272,-0.7139,-0.7095,-0.7095,-0.7085,-0.7011,-0.6886,-0.6859,-0.6736,-0.3085,-0.318,-0.3297,-0.3373,-0.3495,-0.3745,-0.4221,0.0,-0.4463,-0.4905,-0.4994,-0.4863,-0.4419,-0.3707,-0.3306,-0.357,0.0,0.0,-0.4152,0.0,0.0,0.0,-0.6071,0.0,0.0,0.0,-0.6827,-0.6115,-0.5669,-0.5267,-0.4996,-0.455,-0.3749,-0.2547,-0.2057,-0.121,0.0,-0.121,-0.2413,-0.3614,-0.4821,-0.5983,-0.7095,-0.7095,-0.7095,-0.7095,-0.7095,-0.7095,-0.7095,-0.7095,-0.7095,-0.7095,-0.7095,-0.7095,-0.7095,-0.7095,-0.7095,-0.7095,-0.7095,-0.7095,-0.7095,-0.7095,-0.7095,-0.7445,-0.9357,-1.0226,-1.0999,-1.2863,-1.373,-1.4088,-1.4088,-1.4088,-1.3913,-1.3203,-1.3561,-1.3695,-1.2303,-1.2163,-1.2114,-1.1423,-1.0913,-1.0611,-1.0611,-1.0611,-1.0351,-0.9666,-0.9579,-0.9144,-0.7969,-0.8838,-0.9405,-0.8934,-1.0308,-1.1295,-1.1295,-1.0226,-0.9579,-0.9579,-0.8448,-0.7797,-0.7797,-0.7356,-0.7095,-0.7095,-0.7095,-0.7095,-0.7095,-0.7095,-0.7068,-0.7011,-0.6927,-0.6865,-0.2189,-0.2256,-0.2343,-0.2373,-0.2461,-0.2638,0.0,0.0,-0.317,-0.3525,-0.3614,-0.3481,-0.3126,-0.237,-0.1969,-0.2458,0.0,-0.17,-0.2903,-0.3081,0.0,0.0,0.0,-0.5312,-0.6473,-0.6605,-0.6115,-0.4954,-0.4554,-0.3974,-0.3126,-0.2726,-0.2324,-0.1835,-0.1433,-0.0852,0.0,-0.1567,-0.2769,-0.3614,-0.5176,-0.6337,-0.7095,-0.7095,-0.7095,-0.7095,-0.7095,-0.7095,-0.7095,-0.7095,-0.7095,-0.7095,-0.7095,-0.7095,-0.7095,-0.7095,-0.7095,-0.7095,-0.7095,-0.7095,-0.7095,-0.7095,-0.7095,-0.7489,-0.9488,-1.0308,-1.1085,-1.3434,-1.3822,-1.347,-1.3167,-1.3039,-1.2863,-1.1986,-1.2467,-1.2601,-1.0956,-1.095,-1.1042,-1.0265,-0.9788,-0.957,-0.957,-0.957,-0.927,-0.8496,-0.8364,-0.8061,-0.7228,-0.7841,-0.8364,-0.8364,-0.91,-0.9701,-1.0048,-0.9017,-0.8364,-0.8364,-0.7577,-0.7095,-0.7095,-0.7095,-0.7095,-0.7095,-0.7095,-0.7095,-0.7095,-0.7095,-0.7095,-0.7095,-0.6994,-0.6927,-0.0039,-0.0039,-0.004,-0.0042,-0.0042,-0.0341,0.0,-0.1835,-0.2147,-0.3349,-0.3614,-0.3215,-0.2057,-0.179,-0.1433,-0.0225,-0.0045,0.0,-0.1657,-0.1835,0.0,0.0,0.0,-0.4105,-0.5312,-0.5403,-0.4912,-0.3703,-0.2503,-0.1835,-0.1835,-0.0673,-0.0584,-0.1745,-0.0628,0.0,0.0,-0.237,-0.357,-0.3614,-0.5977,-0.7095,-0.7095,-0.7095,-0.7095,-0.7095,-0.7095,-0.7095,-0.7095,-0.7095,-0.7095,-0.7095,-0.7095,-0.7095,-0.7095,-0.7095,-0.7095,-0.7095,-0.7095,-0.7095,-0.7095,-0.7095,-0.7095,-0.7316,-0.854,-0.9705,-1.1085,-1.3434,-1.3245,-1.2066,-1.0907,-1.0654,-1.0611,-1.0611,-1.0611,-1.0611,-1.0611,-0.971,-0.8934,-0.8934,-0.7973,-0.7139,-0.7139,-0.7139,-0.7139,-0.7139,-0.7139,-0.7095,-0.7095,-0.7095,-0.7139,-0.7139,-0.7139,-0.7621,-0.8803,-0.7797,-0.7139,-0.7139,-0.7095,-0.7095,-0.7095,-0.7095,-0.7095,-0.7095,-0.7095,-0.7095,-0.7095,-0.7095,-0.7095,-0.7095,-0.7095,-0.7018,0.0,0.0,0.0,0.0,0.0,-0.0085,-0.0489,-0.0584,-0.0673,-0.1076,-0.1121,-0.1031,-0.0628,-0.0584,-0.0449,-0.0045,0.0,0.0,0.0,0.0,0.0,-0.3436,-0.4996,-0.5844,0.0,-0.5403,-0.4554,-0.2503,-0.2013,-0.1433,-0.0628,-0.0225,-0.018,-0.0539,-0.018,0.0,0.0,-0.1567,-0.2769,-0.3614,-0.5176,-0.6337,-0.7095,-0.7095,-0.7095,-0.7095,-0.7095,-0.7095,-0.7095,-0.7095,-0.7095,-0.7095,-0.7095,-0.7095,-0.7095,-0.7095,-0.7095,-0.7095,-0.7095,-0.7095,-0.7095,-0.7095,-0.7095,-0.7316,-0.854,-0.9148,-0.9753,-1.1262,-1.1429,-1.1042,-1.0697,-1.0611,-1.0394,-0.9623,-1.0009,-1.0178,-0.8575,-0.858,-0.8671,-0.7841,-0.736,-0.7095,-0.7095,-0.7095,-0.7095,-0.7095,-0.7095,-0.7095,-0.7095,-0.7095,-0.7095,-0.7095,-0.7095,-0.7272,-0.7621,-0.7316,-0.7095,-0.7095,-0.7095,-0.7095,-0.7095,-0.7095,-0.7095,-0.7095,-0.7095,-0.7095,-0.7095,-0.6337,-0.5534,-0.4727,-0.4727,-0.5112,0.0,0.0902,0.0595,0.0623,0.0294,0.0,0.0,0.0,0.0,0.0,0.0,0.0,0.0,0.0,0.0,0.0,0.0,0.0,0.0,0.0,0.0,-0.3436,0.0,0.0,-0.4198,-0.4465,-0.3707,-0.1299,-0.1121,-0.0807,-0.0045,0.0,0.0,0.0,0.0,0.0,0.0,-0.121,-0.2191,-0.2948,-0.4599,-0.5761,-0.647,-0.6918,-0.7095,-0.7095,-0.7095,-0.7095,0.0,-0.7095,-0.7095,-0.7095,-0.7095,-0.7095,-0.7095,-0.7095,-0.7095,-0.7095,-0.7095,-0.7095,-0.7095,-0.7095,-0.7095,-0.7228,-0.7973,-0.8842,-0.9623,-0.9879,-0.9966,-0.9836,-0.9396,-0.9266,-0.9096,-0.8408,-0.875,-0.8877,-0.7401,-0.7709,-0.8017,-0.7228,-0.7095,-0.7095,-0.7095,-0.7095,-0.7095,-0.7095,-0.7095,-0.7095,-0.7095,-0.7095,-0.7095,-0.7095,-0.7095,-0.7095,-0.7095,-0.7095,-0.7095,-0.7095,-0.7095,-0.7095,-0.7095,-0.7095,-0.6915,-0.647,-0.6473,-0.6248,-0.5797,-0.5087,-0.433,-0.3614,-0.3614,-0.4239,0.0,0.2542,0.0,0.0,0.0,0.0,0.0222,0.0224,0.0,0.0135,0.0135,0.009,0.0,0.0,0.0,0.0,0.0,0.0,0.0,-0.1746,0.0,0.0,-0.4599,-0.4376,-0.2013,-0.2815,-0.2503,-0.018,0.0,0.0,0.0,0.0,0.0,0.0,0.0,0.0,0.0,-0.1121,-0.1701,-0.1835,-0.4065,-0.5225,-0.5447,-0.6517,-0.7007,-0.7095,-0.7095,-0.7095,-0.7095,-0.7095,-0.7095,-0.7095,-0.7095,-0.7095,-0.7095,-0.7095,-0.7095,-0.7095,-0.7095,-0.7095,-0.7095,-0.7095,-0.7095,-0.7095,-0.7095,-0.8619,-1.0135,-0.9061,-0.8759,-0.8496,-0.7404,-0.7095,-0.7095,-0.7095,-0.7095,-0.7095,-0.7095,-0.7095,-0.7095,-0.7095,-0.7095,-0.7095,-0.7095,-0.7095,-0.7095,-0.7095,-0.7095,-0.7095,-0.7095,-0.7095,-0.7095,-0.7095,-0.7095,-0.7095,-0.7095,-0.7095,-0.7051,-0.7007,-0.6962,-0.6962,-0.6871,-0.6871,-0.6337,-0.5312,-0.527,-0.4688,-0.3481,-0.3481,-0.3436,-0.3347,-0.3347,-0.3972,0.555,0.0,0.2755,0.2754,0.2647,0.2533,0.0,0.0,0.0,0.0,0.0,0.1076,0.018,0.0,0.0,0.0,0.0,0.0,-0.0404,0.0,0.0,-0.3436,-0.3838,-0.3438,-0.1924,-0.2057,-0.1612,-0.009,0.0,0.0,0.0,0.0,0.0,0.0,0.0,0.0,0.0,-0.0269,-0.0897,-0.179,-0.237,-0.3619,-0.5403,-0.5669,-0.6293,-0.7095,-0.7095,-0.7095,-0.7095,-0.7095,-0.7095,-0.7095,-0.7095,-0.7095,-0.7095,-0.7095,-0.7095,-0.7095,-0.7095,-0.7095,-0.7095,-0.7095,-0.7095,-0.7095,-0.7095,-0.7489,-0.7878,-0.7621,-0.7536,-0.7445,-0.7183,-0.7095,-0.7095,-0.7095,-0.7095,-0.7095,-0.7095,-0.7095,-0.7095,-0.7095,-0.7095,-0.7095,-0.7095,-0.7095,-0.7095,-0.7095,-0.7095,-0.7095,-0.7095,-0.7095,-0.7095,-0.7095,-0.7095,-0.7095,-0.7095,-0.7095,-0.6738,-0.5849,-0.5802,-0.5401,-0.4461,-0.4417,-0.4281,-0.4016,-0.4016,-0.3438,-0.2236,-0.2236,-0.1746,-0.0852,-0.0852,-0.1478,0.63,0.5079,0.3847,0.3821,0.3581,0.3328,0.0,0.0,0.0,0.0,0.0,0.0,0.179,0.0761,0.0,0.0,-0.009,0.0,0.0,0.0,-0.2858,-0.3525,-0.3614,-0.3126,-0.1924,-0.179,-0.1299,-0.009,0.0,0.0,0.0,0.0,0.0,0.0,0.0,0.0,0.0,0.0,-0.0314,-0.0986,-0.2102,-0.3304,-0.4596,-0.5669,-0.6517,-0.7095,-0.7095,-0.7095,-0.7095,-0.7095,-0.7095,-0.7095,-0.7095,-0.7095,-0.7095,-0.7095,-0.7095,-0.7095,-0.7095,-0.7095,-0.7095,-0.7095,-0.7095,-0.7095,-0.7095,-0.7095,-0.7095,-0.7095,-0.7095,-0.7095,-0.7095,-0.7095,-0.7095,-0.7095,-0.7095,-0.7095,-0.7095,-0.7095,-0.7095,-0.7095,-0.7095,-0.7095,-0.7095,-0.7095,-0.7095,-0.7095,-0.7095,-0.7095,-0.7095,-0.7095,-0.6915,-0.6384,-0.6337,-0.6113,-0.5531,-0.5487,-0.5489,-0.5403,-0.4865,-0.4283,-0.3614,-0.3614,-0.3347,-0.2769,-0.2236,-0.1612,-0.0986,-0.0986,-0.0628,0.0,0.0,-0.0628,0.63,0.5628,0.4945,0.4928,0.4435,0.3914,0.0,0.0,0.0,0.0,0.0,0.0,0.0,0.0,0.0,0.0,0.0,0.0,-0.1522,-0.2413,-0.3037,-0.3037,-0.3037,-0.2637,-0.1612,-0.1522,-0.1121,-0.009,0.0,0.0,0.0,0.0,0.0,0.0,0.0,0.0,0.0,0.0,0.0,-0.0045,-0.2057,-0.3126,-0.3392,-0.5575,-0.665,-0.683,-0.7007,-0.7095,-0.7095,-0.7095,-0.7095,-0.7095,-0.7095,-0.7095,-0.7095,-0.7095,-0.7095,-0.7095,-0.7095,-0.7095,-0.7095,-0.7095,-0.7095,-0.7095,-0.7095,-0.7095,-0.7102,-0.7125,-0.7112,-0.7095,-0.7095,-0.7095,-0.7095,-0.7095,-0.7095,-0.7095,-0.7095,-0.7095,-0.7095,-0.7095,-0.7095,-0.7095,-0.7095,-0.7095,-0.7095,-0.7095,-0.7095,-0.7051,-0.6874,-0.6827,-0.6381,-0.5267,-0.5134,-0.4732,-0.3703,-0.3436,-0.3749,-0.4779,-0.3883,-0.326,-0.3037,-0.3037,-0.2547,-0.1567,-0.0539,0.0,0.0,0.0,0.0,0.0,0.0,-0.0539,0.63,0.618,0.6067,0.6051,0.6133,0.6201,0.0,0.0,0.0,0.0,0.0,0.0,0.0,0.0,0.0,0.0,0.0,-0.0269,0.0,0.0,-0.0539,-0.0539,-0.0539,-0.0494,-0.0314,-0.0269,-0.018,0.0,0.0,0.0,0.0,0.0,0.0,0.0,0.0,0.0,0.0,0.0,0.0,0.0,-0.0359,-0.1076,-0.2102,-0.3527,-0.4685,-0.5714,-0.6694,-0.7095,-0.7095,-0.7095,-0.7095,-0.7095,-0.7095,-0.7095,-0.7095,-0.7095,-0.7095,-0.7095,-0.7095,-0.7095,-0.7095,-0.7095,-0.7095,-0.7095,-0.7095,-0.7095,-0.7122,-0.7299,-0.7241,-0.7095,-0.7095,-0.7095,-0.7095,-0.7095,-0.7095,-0.7095,-0.7095,-0.7095,-0.7095,-0.7095,-0.7095,-0.7095,-0.7095,-0.7095,-0.7095,-0.7095,-0.7095,-0.6738,-0.5802,-0.5669,-0.5223,-0.4016,-0.3881,-0.3792,-0.3614,-0.2681,-0.2147,-0.2325,-0.2191,-0.1612,-0.0583,-0.0539,-0.0449,-0.0269,-0.009,0.0,0.0,0.0,0.0,0.0,0.0,-0.009,0.6451,0.63,0.6317,0.6395,0.6539,0.6722,0.0,0.0,0.0,0.0,0.0,0.0,0.0,0.0,0.1204,-0.0672,0.0,0.0,0.0,0.0,0.0,0.0,0.0,0.0,0.0,0.0,0.0,0.0,0.0,0.0,0.0,0.0,0.0,0.0,0.0,0.0,0.0,0.0,0.0,0.0,-0.0673,-0.1254,-0.1835,-0.3037,-0.3881,-0.4508,-0.5667,-0.616,-0.6248,-0.683,-0.7095,-0.7095,-0.7095,-0.7095,-0.7095,-0.7095,-0.7095,-0.7109,-0.7238,-0.7265,-0.7278,-0.736,-0.7387,-0.7387,-0.7387,-0.7387,-0.7404,-0.7475,-0.7383,-0.7285,-0.7366,-0.7387,-0.7387,-0.7387,-0.7387,-0.7366,-0.7282,-0.7265,-0.7241,-0.7112,-0.7095,-0.7095,-0.7095,-0.7095,-0.6871,-0.6293,-0.616,-0.5758,-0.4596,-0.4419,-0.3972,-0.2771,-0.2637,-0.237,-0.1701,-0.1165,-0.0807,-0.0807,-0.0807,-0.0584,-0.0045,0.0,0.0,0.0,0.0,0.0,0.0,0.0,0.0,0.0,0.0,0.0,0.7215,0.7053,0.7118,0.7278,0.0,0.0,0.6852,0.0,0.0,0.0,0.0,0.0,0.0,0.343,0.0,-0.067,-0.0404,0.0,0.0,0.0,0.0,0.0,0.0,0.0,0.0,0.0,0.0,0.0,0.0,0.0,0.0,0.0,0.0,0.0,0.0,0.0,0.0,0.0,0.0,0.0,-0.0942,-0.1389,-0.1433,-0.2637,-0.317,-0.326,-0.4463,-0.5134,-0.5447,-0.6337,-0.6874,-0.7095,-0.7095,-0.7119,-0.7156,-0.7189,-0.7203,-0.722,-0.7383,-0.7424,-0.7444,-0.756,-0.76,-0.76,-0.76,-0.76,-0.7607,-0.7641,-0.7563,-0.7495,-0.758,-0.76,-0.76,-0.76,-0.76,-0.7567,-0.7451,-0.7424,-0.739,-0.7227,-0.7203,-0.71,-0.6796,-0.6745,-0.6329,-0.5139,-0.4999,-0.4552,-0.3349,-0.317,-0.2726,-0.1522,-0.1389,-0.0986,-0.009,0.0,0.0,0.0,0.0,0.0,0.0,0.0,0.0,0.0,0.0,0.0,0.0,0.0,0.0,0.0,0.0,0.0,0.9107,0.9255,0.9493,0.9621,0.0,0.0,0.6852,0.0,0.0,0.0,0.0,0.0,0.0,0.3439,0.1744,0.1566,0.0673,0.0,0.0,0.0,0.0,0.0,0.0,0.0,0.0,0.0,0.0,0.0,0.0,0.0,0.0,0.0,0.0,0.0,0.0,0.0,0.0,0.0,0.0,0.0,-0.009,-0.0135,-0.018,-0.1389,-0.1924,-0.2013,-0.3215,-0.4374,-0.5403,-0.5492,-0.616,-0.7095,-0.7095,-0.7227,-0.737,-0.7512,-0.7567,-0.7567,-0.758,-0.7584,-0.7587,-0.7597,-0.76,-0.76,-0.76,-0.76,-0.7628,-0.7756,-0.7787,-0.775,-0.7631,-0.76,-0.76,-0.76,-0.76,-0.7597,-0.7587,-0.7584,-0.758,-0.757,-0.7567,-0.7147,-0.5904,-0.5702,-0.5251,-0.3939,-0.3748,-0.3304,-0.2102,-0.1924,-0.1478,-0.0269,-0.0135,-0.009,0.0,0.0,0.0,0.0,0.0,0.0,0.0,0.0,0.0,0.0,0.0,0.0,0.0,0.0,0.0,0.0,0.0,0.0,0.9694,0.9091,0.8913,0.9932,0.0,0.0,0.0,0.0,0.0,0.0,0.0,0.0,0.0,0.0,0.179,0.179,0.0807,0.0,0.0,0.0,0.0,0.0,0.0,0.0,0.0,0.0,0.0,0.0,0.0,0.0,0.0,0.0,0.0,0.0,0.0,0.0,0.0,0.0,0.0,0.0,0.0,0.0,0.0,-0.0494,-0.0673,-0.0763,-0.1969,-0.2747,-0.3235,-0.3961,-0.4539,-0.5007,-0.5839,-0.5727,-0.5162,-0.6053,-0.5832,-0.5228,-0.6157,-0.5944,-0.5374,-0.6322,-0.6048,-0.5356,-0.5356,-0.5356,-0.5363,-0.54,-0.5459,-0.58,-0.7443,-0.7872,-0.7872,-0.7872,-0.7872,-0.7848,-0.775,-0.7053,-0.6449,-0.6369,-0.569,-0.4969,-0.4463,-0.4363,-0.3916,-0.2651,-0.2461,-0.2043,-0.0854,-0.0673,-0.0494,-0.0045,0.0,0.0,0.0,0.0,0.0,0.0,0.0,0.0,0.0,0.0,0.0,0.0,0.0,0.0,0.0,0.0,0.0,0.0,0.0,0.0,1.0241,0.9681,0.0,0.0,0.0,0.0,0.0,0.0,0.0,0.0,0.0,0.0,0.0,0.0,0.0,0.0,0.0807,0.0,0.0,0.0,0.0,0.0,0.0,0.0,0.0,0.0,0.0,0.0,0.0,0.0,0.0,0.0,0.0,0.0,0.0,0.0,0.0,0.0,0.0,0.0,0.0,0.0,0.0,0.0,0.0,-0.0045,-0.0866,-0.1427,-0.1864,-0.2699,-0.3235,-0.3703,-0.4678,-0.4452,-0.3786,-0.472,-0.449,-0.3873,-0.4903,-0.463,-0.4049,-0.5051,-0.477,-0.4016,-0.4016,-0.4016,-0.4016,-0.4016,-0.4016,-0.4416,-0.6274,-0.6728,-0.6728,-0.6728,-0.6728,-0.6702,-0.6614,-0.5858,-0.5201,-0.5131,-0.4346,-0.3569,-0.3165,-0.3113,-0.2666,-0.1403,-0.1212,-0.0926,-0.0091,0.0,0.0,0.0,0.0,0.0,0.0,0.0,0.0,0.0,0.0,0.0,0.0,0.0,0.0,0.0,0.0,0.0,0.0,0.0,0.0,0.0,0.0404,0.0584,1.1028,1.1433,0.0,0.0,0.0,0.0,0.0,0.0,0.0,0.0,0.0,0.6378,0.4059,0.3614,0.0,0.2013,0.0807,0.0,0.0,0.0,0.0,0.0,0.0,0.0,0.0,0.0,0.0,0.0,0.0,0.0,0.0,0.0,0.0,0.0,0.0,0.0,0.0,0.0,0.0,0.0,0.0,0.0,0.0,0.0,0.0,0.0,0.0,-0.0667,-0.1761,-0.1761,-0.2473,-0.3567,-0.3736,-0.3764,-0.3772,-0.394,-0.3966,-0.3966,-0.3966,-0.3966,-0.3966,-0.3966,-0.3966,-0.3966,-0.3966,-0.3966,-0.3966,-0.3966,-0.3966,-0.3966,-0.3966,-0.3966,-0.3966,-0.4016,-0.4016,-0.4016,-0.4016,-0.3966,-0.3966,-0.3966,-0.3966,-0.3544,-0.2208,-0.2006,-0.1508,-0.0191,0.0,0.0,0.0,0.0,0.0,0.0,0.0,0.0,0.0,0.0,0.0,0.0,0.0,0.0,0.0,0.0,0.0,0.0,0.0,0.0,0.0,0.0,0.0045,0.0045,0.1254,0.1835,1.2492,0.0,0.0,0.0,0.0,0.0,0.0,0.0,0.0,0.0,0.0,0.6871,0.6201,0.4727,0.0,0.3126,0.1344,0.0,0.0,0.0,0.0,0.0,0.0,0.0,0.0,0.0,0.0,0.0,0.0,0.0,0.0,0.0,0.0,0.0,0.0,0.0,0.0,0.0,0.0,0.0,0.0,0.0,0.0,0.0,0.0,0.0,0.0,-0.0192,-0.0535,-0.0543,-0.0744,-0.1141,-0.2141,-0.1947,-0.125,-0.2209,-0.2013,-0.131,-0.2264,-0.1962,-0.136,-0.2264,-0.1962,-0.1209,-0.1209,-0.1209,-0.1209,-0.1209,-0.1209,-0.1209,-0.1209,-0.1209,-0.1661,-0.3565,-0.4016,-0.4016,-0.4016,-0.3265,-0.2614,-0.2614,-0.1812,-0.1056,-0.0651,-0.06,-0.0447,-0.0049,0.0,0.0,0.0,0.0,0.0,0.0,0.0,0.0,0.0,0.0,0.0,0.0,0.0,0.0,0.0,0.0,0.0,0.0,0.0,0.0404,0.1254,0.1254,0.1701,0.2547,0.2903,0.3081,1.1451,0.0,0.0,0.0,0.0,0.0,0.0,0.0,0.0,0.0,0.0,0.6962,0.6517,0.4863,0.3436,0.2948,0.1254,0.0,0.0,0.0,0.0,0.0,0.0,0.0,0.0,0.0,0.0,0.0,0.0,0.0,0.0,0.0,0.0,0.0,0.0,0.0,0.0,0.0,0.0,0.0,0.0,0.0,0.0,0.0,0.0,0.0,0.0,0.0,0.0,0.0,0.0,-0.0101,-0.0907,-0.0706,-0.0101,-0.0907,-0.0706,-0.0101,-0.0907,-0.0656,-0.0151,-0.0958,-0.0656,0.0,0.0,0.0,0.0,0.0,0.0,0.0,0.0,0.0,-0.0404,-0.2013,-0.2414,-0.2414,-0.2414,-0.1762,-0.1209,-0.1209,-0.0555,0.0,0.0,0.0,0.0,0.0,0.0,0.0,0.0,0.0,0.0,0.0,0.0,0.0,0.0,0.0,0.0,0.0,0.0,0.0225,0.0673,0.0718,0.0718,0.0718,0.1165,0.179,0.2503,0.2503,0.2903,0.3614,0.4105,0.433,0.0,0.0,0.0,0.0,0.0,0.0,0.0,0.0,0.0,0.0,0.0,0.6786,0.5758,0.4463,0.326,0.2147,0.0852,0.0,0.0,0.0,0.0,0.0,0.0,0.0,0.0,0.0,0.0,0.0,0.0,0.0,0.0,0.0,0.0,0.0,0.0,0.0,0.0,0.0,0.0,0.0,0.0,0.0,0.0,0.0,0.0,0.0,0.0,0.0,0.0,0.0,0.0,0.0,0.0,0.0,0.0,0.0,0.0,0.0,0.0,0.0,0.0,0.0,0.0,0.0,0.0,0.0,0.0,0.0,0.0,0.0,0.0,0.0,0.0,0.0,0.0,0.0,0.0,0.0,0.0,0.0,0.0,0.0,0.0,0.0,0.0,0.0,0.0,0.0,0.0,0.0,0.0,0.0,0.0,0.0,0.0,0.0,0.0,0.0,0.009,0.0673,0.1746,0.179,0.1835,0.1969,0.3037,0.3659,0.3748,0.3748,0.3837,0.3926,0.5043,0.5536,0.0,0.0,0.0,0.0,0.0,0.0,0.0,0.0,0.0,0.0,0.7753,0.7007,0.6782,0.4996,0.3525,0.326,0.1388,0.0,0.0,0.0,0.0,0.0,0.0,0.0,0.0,0.0,0.0,0.0,0.0,0.0,0.0,0.0,0.0,0.0,0.0,0.0,0.0,0.0,0.0,0.0,0.0,0.0,0.0,0.0,0.0,0.0,0.0,0.0,0.0,0.0,0.0,0.0,0.0,0.0,0.0,0.0,0.0,0.0,0.0,0.0,0.0,0.0,0.0,0.0,0.0,0.0,0.0,0.0,0.0,0.0,0.0,0.0,0.0,0.0,0.0,0.0,0.0,0.0,0.0,0.0,0.0,0.0,0.0,0.0,0.0,0.0,0.0,0.0,0.0,0.0,0.0,0.0,0.0,0.0,0.0,0.0,0.0,0.0,0.0897,0.1522,0.179,0.179,0.2236,0.3215,0.3481,0.4061,0.5001,0.5001,0.5489,0.6334,0.6605,0.6738,0.0,0.0,0.0,0.0,0.0,0.0,0.0,0.0,0.0,0.7929,0.7533,0.7095,0.7095,0.5667,0.4463,0.4463,0.2904,0.1746,0.1746,0.121,0.0855,0.0864,0.0364,0.023,0.0889,0.0938,0.1224,0.1853,0.1919,0.1929,0.1929,0.1896,0.1905,0.1905,0.1924,0.1934,0.1934,0.1903,0.1913,0.1913,0.1913,0.1913,0.1862,0.0605,0.0,0.0,0.0,0.0,0.0,0.0,0.0,0.0,0.0,0.0,0.0,0.0,0.0,0.0,0.0,0.0,0.0,0.0,0.0,0.0,0.0,0.0,0.0,0.0,0.0,0.0,0.0,0.0,0.0,0.0,0.0,0.0,0.0,0.0,0.0,0.0,0.0,0.0,0.0,0.0,0.0,0.0,0.0,0.0,0.0,0.0,0.0,0.0,0.0,0.0,0.0,0.0,0.0233,0.0821,0.1455,0.2305,0.3487,0.353,0.384,0.4463,0.4996,0.5575,0.6204,0.6204,0.6517,0.7095,0.7095,0.7095,0.0,0.0,0.0,0.0,0.0,0.0,0.0,0.0,0.0,0.7404,0.7228,0.7095,0.7095,0.616,0.5403,0.5403,0.4374,0.3619,0.3631,0.2785,0.2175,0.2175,0.13,0.1123,0.2243,0.2343,0.2823,0.3931,0.3992,0.3978,0.3978,0.3985,0.4016,0.4016,0.4016,0.4016,0.4016,0.4016,0.4016,0.4016,0.4016,0.4016,0.3915,0.1711,0.0555,0.0353,0.0101,0.0,0.0,0.0,0.0,0.0,0.0,0.0,0.0,0.0,0.0,0.0,0.0,0.0,0.0,0.0,0.0,0.0,0.0,0.0,0.0,0.0,0.0,0.0,0.0,0.0,0.0,0.0,0.0,0.0,0.0,0.0,0.0,0.0,0.0,0.0,0.0,0.0,0.0,0.0,0.0,0.0,0.0,0.0,0.0,0.0,0.0,0.0,0.0,0.0192,0.0759,0.1766,0.2226,0.3397,0.5347,0.5657,0.5735,0.5716,0.6605,0.7095,0.7095,0.7095,0.7095,0.7095,0.7095,0.7095,0.0,0.0,0.0,0.0,0.0,0.0,0.0,0.0,0.0,0.0,0.7841,0.7095,0.7095,0.616,0.5403,0.5403,0.4374,0.3638,0.3751,0.3623,0.3559,0.368,0.3547,0.3528,0.3696,0.3751,0.3824,0.3983,0.3995,0.4002,0.4002,0.4011,0.4016,0.4016,0.4016,0.4016,0.4016,0.4016,0.4016,0.4016,0.4016,0.4016,0.3966,0.3615,0.2815,0.1661,0.0504,0.0,0.0,0.0,0.0,0.0,0.0,0.0,0.0,0.0,0.0,0.0,0.0,0.0,0.0,0.0,0.0,0.0,0.0,0.0,0.0,0.0,0.0,0.0,0.0,0.0,0.0,0.0,0.0,0.0,0.0,0.0,0.0,0.0,0.0,0.0,0.0,0.0,0.0,0.0,0.0,0.0,0.0,0.0,0.0,0.0,0.0,0.0,0.0,0.1073,0.1789,0.1946,0.4065,0.5337,0.5557,0.656,0.705,0.6874,0.7007,0.7095,0.7095,0.7095,0.7095,0.7095,0.7095,0.7095,0.0,0.0,0.0,0.0,0.0,0.0,0.0,0.0,0.9836,0.9836,0.8925,0.7885,0.7228,0.6694,0.6408,0.6487,0.6085,0.5761,0.5931,0.5337,0.4951,0.5003,0.439,0.4279,0.5055,0.5113,0.5428,0.6171,0.6224,0.6224,0.6224,0.6224,0.6224,0.6224,0.6224,0.6224,0.6224,0.6224,0.6224,0.6224,0.6224,0.6224,0.6224,0.5472,0.437,0.3065,0.2514,0.1812,0.1109,0.1109,0.0656,0.0,0.0,0.0,0.0,0.0,0.0,0.0,0.0,0.0,0.0,0.0,0.0,0.0,0.0,0.0,0.0,0.0,0.0,0.0,0.0,0.0,0.0,0.0,0.0,0.0,0.0,0.0,0.0,0.0,0.0,0.0,0.0,0.0,0.0,0.0,0.0,0.0,0.0,0.0,0.0303,0.1058,0.1109,0.1405,0.2187,0.2779,0.3397,0.4107,0.5159,0.6069,0.6706,0.7217,0.7468,0.7397,0.7183,0.7095,0.7095,0.7095,0.7095,0.7095,0.7095,0.7095,0.0,0.0,0.0,0.0,0.0,0.0,0.0,0.0,1.1037,0.0,1.0139,0.8986,0.7801,0.7371,0.7238,0.7398,0.745,0.7482,0.7631,0.6881,0.6303,0.6379,0.5559,0.5394,0.6423,0.6531,0.6933,0.7939,0.7988,0.7988,0.7988,0.7988,0.7988,0.7988,0.7988,0.7988,0.7988,0.7988,0.7988,0.7988,0.7988,0.7988,0.7988,0.6983,0.5977,0.4968,0.4316,0.3416,0.2514,0.2514,0.1913,0.0958,0.0656,0.0504,0.0454,0.0101,0.0,0.0,0.0,0.0,0.0,0.0,0.0,0.0,0.0,0.0,0.0,0.0,0.0,0.0,0.0,0.0,0.0,0.0,0.0,0.0,0.0,0.0,0.0,0.0,0.0,0.0,0.0,0.0,0.0,0.0,0.0,0.0101,0.0454,0.0504,0.1008,0.2363,0.2514,0.2914,0.3915,0.4316,0.4891,0.5806,0.6146,0.6731,0.7611,0.7651,0.7638,0.76,0.7373,0.7193,0.7156,0.7115,0.7095,0.7095,0.7095,0.7095,0.0,0.0,0.0,0.0,0.0,0.0,0.0,0.0,1.22,1.22,1.1295,1.0197,0.9195,0.8117,0.7409,0.7415,0.7492,0.7638,0.778,0.7749,0.7758,0.7859,0.7826,0.7829,0.7889,0.7889,0.7939,0.7988,0.7988,0.7988,0.7988,0.7988,0.7988,0.7988,0.7988,0.7988,0.7988,0.7988,0.7988,0.7988,0.7988,0.7988,0.7988,0.7939,0.7839,0.7637,0.5118,0.3966,0.3915,0.3915,0.3865,0.3665,0.2413,0.1913,0.1762,0.0454,0.0,0.0,0.0,0.0,0.0,0.0,0.0,0.0,0.0,0.0,0.0,0.0,0.0,0.0,0.0,0.0,0.0,0.0,0.0,0.0,0.0,0.0,0.0,0.0,0.0,0.0,0.0,0.0,0.0,0.0,0.0,0.0454,0.1712,0.1913,0.2413,0.3765,0.3915,0.3915,0.4016,0.5172,0.5924,0.5972,0.7173,0.7858,0.7804,0.7801,0.7736,0.76,0.7584,0.7506,0.7405,0.721,0.7095,0.7095,0.7095,0.7095,0.0,0.0,0.0,0.0,0.0,0.0,0.0,1.4265,1.3521,1.37,1.2804,1.1949,1.1748,0.9962,0.8288,0.7762,0.7699,0.7787,0.7887,0.7907,0.7928,0.7982,0.7988,0.7988,0.7988,0.7988,0.7988,0.7988,0.7988,0.7988,0.7988,0.7988,0.7988,0.7988,0.7988,0.7988,0.7988,0.7988,0.7988,0.7988,0.7988,0.7988,0.7988,0.7988,0.7988,0.7939,0.698,0.6074,0.5275,0.5275,0.477,0.3966,0.3465,0.3265,0.3115,0.1762,0.126,0.1159,0.0303,0.0,0.0,0.0,0.0,0.0,0.0,0.0,0.0,0.0,0.0,0.0,0.0,0.0,0.0,0.0,0.0656,0.126,0.126,0.0605,0.0,0.0,0.0,0.0,0.0,0.0706,0.126,0.126,0.2013,0.2765,0.3215,0.3265,0.3817,0.5122,0.5275,0.5625,0.6476,0.7033,0.7285,0.7285,0.7739,0.7965,0.7911,0.7907,0.7884,0.7833,0.7787,0.7662,0.7516,0.7363,0.7288,0.7285,0.7142,0.7095,0.0,0.0,0.0,0.0,0.0,0.0,0.0,0.0,1.5156,1.4727,1.4071,1.3475,1.3288,1.1766,1.0108,0.8678,0.8143,0.7874,0.7975,0.7988,0.7988,0.7988,0.7988,0.7988,0.7988,0.7988,0.7988,0.7988,0.7988,0.7988,0.7988,0.7988,0.7988,0.7988,0.7988,0.7988,0.7988,0.7988,0.7988,0.7988,0.7988,0.7988,0.7988,0.7988,0.7988,0.7988,0.7988,0.7487,0.6681,0.6681,0.6126,0.532,0.487,0.467,0.4518,0.3165,0.2665,0.2564,0.1661,0.136,0.136,0.136,0.136,0.136,0.136,0.136,0.136,0.136,0.136,0.136,0.136,0.136,0.136,0.136,0.2013,0.2665,0.2665,0.1611,0.0807,0.126,0.136,0.136,0.136,0.2063,0.2665,0.2665,0.3416,0.4166,0.4618,0.467,0.517,0.6531,0.6681,0.7033,0.7939,0.7988,0.7988,0.7988,0.7988,0.7988,0.7988,0.7988,0.7988,0.7988,0.7891,0.8032,0.8409,0.7776,0.7448,0.7444,0.7343,0.7444,0.0,0.0,0.0,0.0,0.0,0.0,1.837,0.0,1.7173,1.5462,1.5105,1.4734,1.3688,1.345,1.2648,1.0292,0.8912,0.8137,0.8137,0.8088,0.8038,0.8038,0.8038,0.7988,0.7988,0.7988,0.7988,0.7988,0.7988,0.7988,0.7988,0.7988,0.7988,0.7988,0.7988,0.7988,0.7988,0.7988,0.7988,0.7988,0.7988,0.7988,0.7988,0.7988,0.7988,0.7988,0.7988,0.7988,0.7988,0.7988,0.7988,0.7889,0.6581,0.6079,0.5877,0.4568,0.4066,0.4066,0.4016,0.4016,0.4016,0.4016,0.4016,0.4016,0.4016,0.4016,0.4016,0.4016,0.4016,0.4016,0.4016,0.4016,0.4066,0.4016,0.4016,0.4066,0.4066,0.3015,0.2514,0.3765,0.4016,0.4016,0.4016,0.4016,0.4066,0.4066,0.4116,0.4568,0.5877,0.6079,0.6581,0.7839,0.7988,0.7988,0.7988,0.7988,0.7988,0.7988,0.7988,0.7988,0.7988,0.7988,0.8041,0.8038,0.8038,0.8726,1.0047,0.8457,0.7701,0.7698,0.7695,0.8247,2.3708,0.0,0.0,0.0,0.0,0.0,2.1469,0.0,1.9209,1.8053,1.7168,1.6277,1.5303,1.4397,1.3528,1.2853,1.1657,1.0828,1.0828,1.0047,0.946,0.946,0.8577,0.7988,0.7988,0.7988,0.7988,0.7988,0.7988,0.7988,0.7988,0.7988,0.7988,0.7988,0.7988,0.7988,0.7988,0.7988,0.7988,0.7988,0.7988,0.7988,0.7988,0.7988,0.7988,0.7988,0.7988,0.7988,0.7988,0.7988,0.7988,0.7939,0.7587,0.7437,0.7285,0.5927,0.5425,0.5322,0.4318,0.4016,0.4016,0.4016,0.4016,0.4016,0.4016,0.4016,0.4016,0.4016,0.4016,0.4016,0.4016,0.4718,0.5222,0.4218,0.472,0.5425,0.5425,0.5175,0.4722,0.4117,0.4016,0.4016,0.4016,0.482,0.5425,0.5425,0.6276,0.703,0.7385,0.7437,0.7587,0.7939,0.7988,0.7988,0.7988,0.7988,0.7988,0.7988,0.7988,0.7988,0.7988,0.7988,0.8432,0.941,0.946,1.0096,1.1365,0.9901,0.969,1.0575,1.0473,1.0554,0.0,0.0,0.0,0.0,0.0,0.0,2.2808,2.166,2.0377,1.8071,1.7066,1.6436,1.5886,1.5194,1.4704,1.4704,1.4028,1.3162,1.2042,1.1268,1.0779,1.0779,1.0092,0.9604,0.9604,0.9604,0.9604,0.9604,0.9604,0.9604,0.9604,0.9604,0.9604,0.9604,0.9604,0.9604,0.9604,0.9604,0.9604,0.9604,0.9604,0.9604,0.9604,0.9069,0.8825,0.8825,0.8237,0.7988,0.7988,0.7988,0.7988,0.7988,0.7988,0.7988,0.7889,0.7135,0.6833,0.6731,0.5924,0.567,0.567,0.567,0.567,0.567,0.567,0.567,0.567,0.567,0.567,0.567,0.567,0.6226,0.6631,0.5874,0.6276,0.6833,0.6833,0.6833,0.6581,0.5822,0.567,0.567,0.567,0.6326,0.6833,0.6833,0.7487,0.7988,0.7988,0.7988,0.7988,0.7988,0.7988,0.7988,0.7988,0.7988,0.7988,0.7988,0.7988,0.8237,0.8825,0.8825,0.946,1.0779,1.0779,1.1409,1.2716,1.1327,1.1077,1.1791,1.2124,1.2289,0.0,0.0,0.0,0.0,2.8147,0.0,2.3585,2.2719,2.1589,1.7758,1.6847,1.672,1.6579,1.6579,1.6579,1.6579,1.6358,1.527,1.2716,1.2188,1.2139,1.2139,1.1994,1.1896,1.1896,1.1896,1.1896,1.1896,1.1896,1.1896,1.1896,1.1896,1.1896,1.1896,1.1896,1.1896,1.1896,1.1896,1.1896,1.1896,1.1896,1.1896,1.1848,1.073,1.0194,1.0145,0.897,0.8432,0.8432,0.8432,0.8283,0.7988,0.7988,0.7988,0.7988,0.7988,0.7988,0.7988,0.7988,0.7988,0.7988,0.7988,0.7988,0.7988,0.7988,0.7988,0.7988,0.7988,0.7988,0.7988,0.7988,0.7988,0.7988,0.7988,0.7988,0.7988,0.7988,0.7988,0.7988,0.7988,0.7988,0.7988,0.7988,0.7988,0.7988,0.7988,0.7988,0.7988,0.7988,0.7988,0.7988,0.7988,0.7988,0.7988,0.7988,0.8137,0.8233,0.8233,0.8333,0.897,1.0145,1.0194,1.0828,1.2091,1.2237,1.2915,1.4118,1.2915,1.2334,1.2328,1.3259,1.3672,0.0,0.0,2.8109,2.8109,2.8399,0.0,2.7752,2.7234,2.6407,2.4609,2.3519,2.2582,2.1595,2.142,2.142,2.142,1.9864,1.7796,1.5365,1.4172,1.3488,1.3488,1.2571,1.1896,1.1896,1.1896,1.1896,1.1896,1.1896,1.1896,1.1896,1.1896,1.1896,1.1896,1.1896,1.1896,1.1896,1.1896,1.1896,1.1896,1.1896,1.1896,1.1896,1.1653,1.1512,1.1507,1.1263,1.1121,1.1121,1.1121,0.9899,0.7988,0.7988,0.7988,0.7988,0.7988,0.7988,0.7988,0.7988,0.7988,0.7988,0.7988,0.7988,0.7988,0.7988,0.7988,0.7988,0.7988,0.7988,0.7988,0.7988,0.7988,0.7988,0.7988,0.7988,0.7988,0.7988,0.7988,0.7988,0.7988,0.7988,0.7988,0.7988,0.7988,0.7988,0.7988,0.7988,0.7988,0.7988,0.7988,0.7988,0.7988,0.7988,0.7988,0.7988,0.897,0.9608,0.9608,1.0583,1.1268,1.1507,1.1512,1.2134,1.3488,1.4513,1.5146,1.5439,1.5146,1.5051,1.5051,1.5231,1.5354,2.9188,2.895,2.895,2.895,2.9151,0.0,0.0,2.7402,2.6683,2.4933,2.4114,2.3519,2.2889,2.2803,2.2803,2.2803,2.082,1.9084,1.8531,1.6357,1.4854,1.4854,1.4274,1.3836,1.3836,1.3836,1.3836,1.3836,1.3836,1.3836,1.3836,1.3836,1.3836,1.3836,1.3836,1.3836,1.3836,1.3836,1.3836,1.3836,1.3836,1.3836,1.3836,1.3204,1.2909,1.2861,1.2188,1.1896,1.1896,1.1896,1.1116,0.9948,0.9948,0.9554,0.9019,0.9019,0.8581,0.7988,0.7988,0.7988,0.7988,0.7988,0.7988,0.7988,0.7988,0.7988,0.7988,0.7988,0.7988,0.7988,0.7988,0.7988,0.7988,0.7988,0.7988,0.7988,0.7988,0.7988,0.7988,0.7988,0.7988,0.7988,0.7988,0.7988,0.7988,0.7988,0.7988,0.7988,0.7988,0.7988,0.7988,0.7988,0.8577,0.9019,0.9019,1.019,1.0974,1.0974,1.1556,1.2188,1.2861,1.2909,1.3494,1.4806,1.5486,1.5784,1.5784,1.5784,1.5784,1.5784,1.5784,1.5784,3.0595,3.0355,3.0355,3.0355,3.0355,2.9833,0.0,0.0,0.0,2.5065,2.4535,2.443,2.443,2.4294,2.4115,2.398,2.2096,2.097,2.1826,1.9187,1.6987,1.656,1.6103,1.592,1.6157,1.6157,1.6062,1.5825,1.6015,1.6062,1.5825,1.5784,1.5784,1.5784,1.5784,1.5784,1.5784,1.5784,1.5784,1.5784,1.5784,1.5784,1.5784,1.4752,1.4262,1.4214,1.3108,1.2624,1.2624,1.2624,1.2624,1.2576,1.2091,1.1268,1.0386,1.0386,0.9509,0.8382,0.8382,0.8237,0.7988,0.7988,0.7988,0.7988,0.7988,0.7988,0.7988,0.7988,0.7988,0.7988,0.7988,0.7988,0.7988,0.7988,0.7988,0.7988,0.7988,0.7988,0.8088,0.8333,0.8382,0.8283,0.8038,0.7988,0.8088,0.8333,0.8382,0.8482,0.8726,0.8775,0.8775,0.8775,0.9706,1.0386,1.0386,1.1556,1.2285,1.2285,1.2528,1.3156,1.422,1.4262,1.4752,1.5784,1.5784,1.592,1.6157,1.6157,1.6157,1.6157,1.6157,1.6157,3.2536,3.2285,3.2285,3.2285,3.2285,3.22,3.1965,0.0,3.1793,3.1522,0.0,3.0239,3.0239,0.0,0.0,2.829,2.6708,2.5385,2.5051,2.3257,2.1289,1.9289,1.7156,1.6244,1.7365,1.7505,1.7037,1.5872,1.685,1.699,1.5872,1.5784,1.5784,1.5784,1.5784,1.5784,1.5784,1.5784,1.5784,1.5784,1.5784,1.5784,1.5784,1.5635,1.5588,1.5588,1.5439,1.5343,1.5343,1.5343,1.5343,1.5146,1.2818,1.1799,1.1702,1.1702,1.0877,0.9756,0.9756,0.9019,0.7988,0.7988,0.7988,0.7988,0.7988,0.7988,0.7988,0.7988,0.7988,0.7988,0.7988,0.7988,0.7988,0.7988,0.7988,0.7988,0.7988,0.7988,0.8333,0.9558,0.9756,0.941,0.8187,0.7988,0.8382,0.9608,0.9756,1.0194,1.1312,1.1458,1.1458,1.1458,1.1604,1.1702,1.1702,1.2915,1.368,1.368,1.4704,1.5439,1.5588,1.5588,1.5635,1.5784,1.5784,1.6339,1.7505,1.7505,1.7505,1.7505,1.7505,1.7505,3.2855,3.2593,3.2593,3.2593,3.2593,3.2593,3.2593,3.2593,3.2593,3.2593,0.0,0.0,0.0,0.0,0.0,0.0,2.7659,2.647,2.6938,2.4556,2.2476,2.1528,2.0499,1.9791,1.9669,1.9669,1.9203,1.8025,1.9029,1.9157,1.8025,1.7264,1.6897,1.6897,1.6204,1.5784,1.5784,1.5784,1.5784,1.5784,1.5784,1.5784,1.5784,1.5784,1.5784,1.5784,1.5784,1.5784,1.5784,1.5784,1.5784,1.5683,1.4615,1.3692,1.3054,1.3054,1.2231,1.1121,1.1121,1.073,1.0141,0.941,0.8627,0.7988,0.7988,0.7988,0.7988,0.7988,0.7988,0.7988,0.7988,0.7988,0.7988,0.7988,0.8577,0.9167,0.9167,0.9752,1.0435,1.0974,1.1121,1.0921,1.0337,1.0239,1.0435,1.1023,1.1121,1.1317,1.1848,1.1896,1.1896,1.1896,1.2624,1.3054,1.3054,1.4268,1.4997,1.4997,1.5486,1.5784,1.5784,1.6527,1.6897,1.6897,1.7576,1.8218,1.8726,1.8726,1.9085,1.9761,1.9085,1.8726,3.3941,3.3702,3.3648,3.3449,3.3394,3.3394,3.3394,3.3394,3.3394,3.3394,3.3185,0.0,0.0,0.0,3.1251,3.0163,0.0,2.8095,2.8288,2.6454,2.4775,2.3922,2.3529,2.2822,2.1676,2.1861,2.1458,2.0028,2.0962,2.1007,1.9579,1.8688,1.8187,1.8187,1.7304,1.6788,1.6788,1.6788,1.6788,1.6788,1.6788,1.6788,1.6788,1.6788,1.6788,1.6788,1.6788,1.6788,1.6788,1.6788,1.6615,1.6339,1.6339,1.552,1.4411,1.4411,1.359,1.2431,1.2431,1.2188,1.175,1.0828,0.985,0.9069,0.9069,0.9069,0.9069,0.9069,0.9069,0.9069,0.9069,0.9069,0.9069,0.9069,0.9801,1.0534,1.0534,1.1263,1.1994,1.2382,1.2431,1.2576,1.2915,1.2382,1.2042,1.2382,1.2431,1.2576,1.2915,1.2963,1.2963,1.2963,1.3836,1.4411,1.4411,1.5289,1.5967,1.6292,1.6615,1.6788,1.6788,1.7723,1.8187,1.8187,1.9039,1.967,1.9988,1.9988,2.0621,2.1756,2.0576,1.9988,3.6691,3.6477,3.6306,3.5589,3.5407,3.5407,3.5407,3.5407,3.5407,3.5407,3.461,3.3959,3.391,3.3171,3.2072,0.0,0.0,0.0,0.0,3.0058,2.9783,2.6737,2.5291,2.406,2.2856,2.3795,2.3506,2.1219,2.2242,2.1938,1.9625,1.9451,1.9451,1.9451,1.9405,1.9397,1.9397,1.9397,1.9397,1.9397,1.9397,1.9397,1.9397,1.9397,1.9397,1.9397,1.9397,1.9397,1.9397,1.9397,1.868,1.7645,1.7645,1.685,1.573,1.573,1.4949,1.383,1.383,1.3006,1.1896,1.1848,1.1799,1.175,1.175,1.175,1.175,1.175,1.175,1.175,1.175,1.175,1.175,1.175,1.1799,1.1853,1.1853,1.1853,1.2285,1.3584,1.383,1.422,1.5439,1.3596,1.2334,1.3632,1.383,1.4268,1.554,1.5683,1.5683,1.5683,1.573,1.573,1.573,1.5784,1.6339,1.7552,1.8726,1.9397,1.9397,1.9405,1.9451,1.9451,1.9497,2.0079,2.1248,2.1248,2.1845,2.3003,2.18,2.1248,3.7485,3.7397,3.7219,3.643,3.6228,3.6117,3.5619,3.5504,3.5504,3.5504,3.5246,3.4791,3.4129,3.3739,0.0,0.0,0.0,0.0,0.0,3.1802,3.1738,3.0652,2.8388,2.6769,2.6356,2.603,2.5219,2.367,2.3968,2.3514,2.1987,2.1123,2.0702,2.0702,1.9898,1.9497,1.9497,1.9497,1.9497,1.9497,1.9497,1.9497,1.9497,1.9497,1.9497,1.9497,1.9497,1.9497,1.9497,1.9497,1.8772,1.7692,1.7692,1.6897,1.5784,1.5784,1.5534,1.5146,1.5146,1.4316,1.3199,1.3199,1.2619,1.1896,1.1896,1.1896,1.1896,1.1896,1.1896,1.1896,1.1896,1.1896,1.1896,1.1896,1.2576,1.3199,1.3199,1.3884,1.4615,1.5051,1.5146,1.5289,1.573,1.5051,1.4615,1.5099,1.5146,1.5289,1.573,1.5784,1.5784,1.5784,1.5784,1.6157,1.699,1.7809,1.8442,1.8864,1.9268,1.9497,1.9497,2.026,2.0702,2.0702,2.1489,2.2085,2.2492,2.2492,2.2677,2.3091,2.2677,2.2492,3.8262,3.8206,3.7991,3.7203,3.7024,3.6889,3.643,3.6321,3.6321,3.6321,3.6321,3.6134,3.5456,3.5115,3.4607,0.0,0.0,0.0,0.0,3.282,3.2593,3.2593,3.0592,2.9047,2.863,2.8044,2.6883,2.4957,2.5168,2.4713,2.3178,2.2359,2.1943,2.1943,2.1177,2.0773,2.0773,2.0773,2.0773,2.0773,2.0773,2.0773,2.0773,2.0773,2.0773,2.0773,2.0773,2.0773,2.0773,2.0773,2.0087,1.9001,1.9001,1.8218,1.7023,1.615,1.5784,1.5784,1.5784,1.5242,1.4561,1.4561,1.398,1.3307,1.3307,1.3307,1.3307,1.3307,1.3307,1.3307,1.3307,1.3307,1.3307,1.3307,1.3932,1.4561,1.4561,1.5242,1.5784,1.5784,1.5784,1.592,1.6386,1.648,1.6339,1.5872,1.5784,1.5784,1.5784,1.6197,1.648,1.648,1.6842,1.7444,1.8272,1.9451,2.0124,2.0124,2.0539,2.0773,2.0773,2.1534,2.2008,2.2201,2.2798,2.3378,2.3921,2.3751,2.393,2.4307,2.4307,2.4307]}]]